[[{"header":{"parameterUnit":"m.s-1","parameterCategory":1,"la1":30.6,"la2":29.2853,"lo1":-89.7004,"lo2":-87.6739,"dx":0.0162,"dy":0.0183,"nx":112,"ny":82,"refTime":"2022-11-28T18:00:00:Z","depth":0,"parameterNumber":2,"parameterNumberName":"U-component_of_WINDS"},"data":[0.0,0.0,0.0,0.0,0.0,0.0,0.0,0.0,0.0,0.0,0.0,0.0,0.0,0.0,0.0,0.0,0.0,0.0,0.0,0.0,0.0,0.0,0.0,0.0,0.0,0.0,0.0,0.0,0.0,0.0,0.0,0.0,0.0,0.0,0.0,0.0,0.0,0.0,0.0,0.0,0.0,0.0,0.0,0.0,0.0,0.0,0.0,0.0,0.0,0.0,0.0,0.0,0.0,0.0,0.0,0.0,0.0,0.0,0.0,0.0,0.0,0.0,0.0,0.0,0.0,0.0,0.0,0.0,0.0,0.0,0.0,0.0,0.0,0.0,0.0,0.0,0.0,0.0,0.0,0.0,0.0,0.0,0.0,0.0,0.0,0.0,0.0,0.0,0.0,0.0,-2.8994,-2.9,-2.9007,-2.9007,-2.9,-2.9,-2.8993,-2.8992,0.0,0.0,0.0,0.0,0.0,0.0,0.0,0.0,0.0,0.0,0.0,0.0,0.0,0.0,0.0,0.0,0.0,0.0,0.0,0.0,0.0,0.0,0.0,0.0,0.0,0.0,0.0,0.0,0.0,0.0,0.0,0.0,0.0,0.0,0.0,0.0,0.0,0.0,0.0,0.0,0.0,0.0,0.0,0.0,0.0,0.0,0.0,0.0,0.0,0.0,0.0,0.0,0.0,0.0,0.0,0.0,0.0,0.0,0.0,0.0,0.0,0.0,0.0,0.0,0.0,0.0,0.0,0.0,0.0,0.0,0.0,0.0,0.0,0.0,0.0,0.0,0.0,0.0,0.0,0.0,0.0,0.0,0.0,0.0,0.0,0.0,0.0,0.0,0.0,0.0,0.0,0.0,0.0,0.0,0.0,0.0,0.0,0.0,0.0,0.0,0.0,0.0,0.0,0.0,-2.8989,-2.8991,-2.901,-2.9004,-2.8997,-2.8997,-2.899,-2.8996,0.0,0.0,0.0,0.0,0.0,0.0,0.0,0.0,0.0,0.0,0.0,0.0,0.0,0.0,0.0,0.0,0.0,0.0,0.0,0.0,0.0,0.0,0.0,0.0,0.0,0.0,0.0,0.0,0.0,0.0,0.0,0.0,0.0,0.0,0.0,0.0,0.0,0.0,0.0,0.0,0.0,0.0,0.0,0.0,0.0,0.0,0.0,0.0,0.0,0.0,0.0,0.0,0.0,0.0,0.0,0.0,0.0,0.0,0.0,0.0,0.0,0.0,0.0,0.0,0.0,0.0,0.0,0.0,0.0,0.0,0.0,0.0,0.0,0.0,0.0,0.0,0.0,0.0,0.0,0.0,0.0,0.0,0.0,0.0,0.0,0.0,0.0,0.0,0.0,0.0,0.0,0.0,0.0,0.0,0.0,0.0,0.0,0.0,0.0,0.0,0.0,0.0,0.0,-2.9132,-2.9095,-2.9347,-2.914,-2.8991,-2.8992,-2.8986,-2.8997,-2.9008,-2.9004,0.0,0.0,0.0,0.0,0.0,0.0,0.0,0.0,0.0,0.0,0.0,0.0,0.0,0.0,0.0,0.0,0.0,0.0,0.0,0.0,0.0,0.0,0.0,0.0,0.0,0.0,0.0,0.0,0.0,0.0,0.0,0.0,0.0,0.0,0.0,0.0,0.0,0.0,0.0,0.0,0.0,0.0,0.0,0.0,0.0,0.0,0.0,0.0,0.0,0.0,0.0,0.0,0.0,0.0,0.0,0.0,0.0,0.0,0.0,0.0,0.0,0.0,0.0,0.0,0.0,0.0,0.0,0.0,0.0,0.0,0.0,0.0,0.0,0.0,0.0,0.0,0.0,0.0,0.0,0.0,0.0,0.0,0.0,0.0,0.0,0.0,0.0,0.0,0.0,0.0,0.0,0.0,0.0,0.0,0.0,0.0,0.0,0.0,0.0,0.0,0.0,0.0,-2.9268,-2.9322,-2.9519,-2.9713,-2.9746,-2.9534,-2.9911,-2.9867,-2.921,-2.9301,0.0,0.0,0.0,0.0,0.0,0.0,0.0,0.0,0.0,0.0,0.0,0.0,0.0,0.0,0.0,0.0,0.0,0.0,0.0,0.0,0.0,0.0,0.0,0.0,0.0,0.0,0.0,0.0,0.0,0.0,0.0,0.0,0.0,0.0,0.0,0.0,0.0,0.0,0.0,0.0,0.0,0.0,0.0,0.0,0.0,0.0,0.0,0.0,0.0,0.0,0.0,0.0,0.0,0.0,0.0,0.0,0.0,0.0,0.0,0.0,0.0,0.0,0.0,0.0,0.0,0.0,0.0,0.0,0.0,0.0,0.0,0.0,0.0,0.0,0.0,0.0,0.0,0.0,0.0,0.0,0.0,0.0,0.0,0.0,0.0,0.0,0.0,0.0,0.0,0.0,0.0,0.0,0.0,0.0,0.0,0.0,0.0,0.0,0.0,0.0,0.0,0.0,-2.9301,-2.9783,-2.912,-3.0973,-3.193,-3.1101,-3.2529,-3.2363,-2.9809,-3.0178,0.0,0.0,0.0,0.0,0.0,0.0,0.0,0.0,0.0,0.0,0.0,0.0,0.0,0.0,0.0,0.0,0.0,0.0,0.0,0.0,0.0,0.0,0.0,0.0,0.0,0.0,0.0,0.0,0.0,0.0,0.0,0.0,0.0,0.0,0.0,0.0,0.0,0.0,0.0,0.0,0.0,0.0,0.0,0.0,0.0,0.0,0.0,0.0,0.0,0.0,0.0,0.0,0.0,0.0,0.0,0.0,0.0,0.0,0.0,0.0,0.0,0.0,0.0,0.0,0.0,0.0,0.0,0.0,0.0,0.0,0.0,0.0,0.0,0.0,0.0,0.0,0.0,0.0,0.0,0.0,0.0,0.0,0.0,0.0,0.0,0.0,0.0,0.0,0.0,0.0,0.0,0.0,0.0,0.0,0.0,0.0,0.0,0.0,0.0,0.0,0.0,0.0,-2.8833,-2.9663,-3.03,-3.1164,-3.1557,-3.1224,-3.1535,-3.1163,-2.9785,0.0,0.0,0.0,0.0,0.0,0.0,0.0,0.0,0.0,0.0,0.0,0.0,0.0,0.0,0.0,0.0,0.0,0.0,0.0,0.0,0.0,0.0,0.0,0.0,0.0,0.0,0.0,0.0,0.0,0.0,0.0,0.0,0.0,0.0,0.0,0.0,0.0,0.0,0.0,0.0,0.0,0.0,0.0,0.0,0.0,0.0,0.0,0.0,0.0,0.0,0.0,0.0,0.0,0.0,0.0,0.0,0.0,0.0,0.0,0.0,0.0,0.0,0.0,0.0,0.0,0.0,0.0,0.0,0.0,0.0,0.0,0.0,0.0,0.0,0.0,0.0,0.0,0.0,0.0,0.0,0.0,0.0,0.0,0.0,0.0,0.0,0.0,0.0,0.0,0.0,0.0,0.0,0.0,0.0,0.0,0.0,0.0,0.0,0.0,0.0,0.0,0.0,-2.7504,-2.8802,-3.0076,-3.1101,-3.1199,-3.1202,-3.1202,-3.1027,-3.0544,-2.9682,0.0,0.0,0.0,0.0,0.0,0.0,0.0,0.0,0.0,0.0,0.0,0.0,0.0,0.0,0.0,0.0,0.0,0.0,0.0,0.0,0.0,0.0,0.0,0.0,0.0,0.0,0.0,0.0,0.0,0.0,0.0,0.0,0.0,0.0,0.0,0.0,0.0,0.0,0.0,0.0,0.0,0.0,0.0,0.0,0.0,0.0,0.0,0.0,0.0,0.0,0.0,0.0,0.0,0.0,0.0,0.0,0.0,0.0,0.0,0.0,0.0,0.0,0.0,0.0,0.0,0.0,0.0,0.0,0.0,0.0,0.0,0.0,0.0,0.0,0.0,0.0,0.0,0.0,0.0,0.0,0.0,0.0,0.0,0.0,0.0,0.0,0.0,0.0,0.0,0.0,0.0,0.0,0.0,0.0,0.0,0.0,0.0,0.0,0.0,0.0,0.0,0.0,-2.6753,-2.934,-3.1198,-3.1193,-3.119,-3.119,-3.119,-3.1565,-3.1148,0.0,0.0,0.0,0.0,0.0,0.0,0.0,0.0,0.0,0.0,0.0,0.0,0.0,0.0,0.0,0.0,0.0,0.0,0.0,0.0,0.0,0.0,0.0,0.0,0.0,0.0,0.0,0.0,0.0,0.0,0.0,0.0,0.0,0.0,0.0,0.0,0.0,0.0,0.0,0.0,0.0,0.0,0.0,0.0,0.0,0.0,0.0,0.0,0.0,0.0,0.0,0.0,0.0,0.0,0.0,0.0,0.0,0.0,0.0,0.0,0.0,0.0,0.0,0.0,0.0,0.0,0.0,0.0,0.0,0.0,0.0,0.0,0.0,0.0,0.0,0.0,0.0,0.0,0.0,0.0,0.0,0.0,0.0,0.0,0.0,0.0,0.0,0.0,0.0,0.0,0.0,0.0,0.0,0.0,0.0,0.0,0.0,0.0,0.0,0.0,0.0,0.0,0.0,-2.9874,-3.0666,-3.1198,-3.121,-3.119,-3.119,-3.119,-3.131,-3.1059,-3.0318,0.0,0.0,0.0,0.0,0.0,0.0,0.0,0.0,0.0,0.0,0.0,0.0,0.0,0.0,0.0,0.0,0.0,0.0,0.0,0.0,0.0,0.0,0.0,0.0,0.0,0.0,0.0,0.0,0.0,0.0,0.0,0.0,0.0,0.0,0.0,0.0,0.0,0.0,0.0,0.0,0.0,0.0,0.0,0.0,0.0,0.0,0.0,0.0,0.0,0.0,0.0,0.0,0.0,0.0,0.0,0.0,0.0,0.0,0.0,0.0,0.0,0.0,0.0,0.0,0.0,0.0,0.0,0.0,0.0,0.0,0.0,0.0,0.0,0.0,0.0,0.0,0.0,0.0,0.0,0.0,0.0,0.0,0.0,0.0,0.0,0.0,0.0,0.0,0.0,0.0,0.0,0.0,0.0,0.0,0.0,0.0,0.0,0.0,0.0,0.0,0.0,0.0,-3.0409,-3.0342,-3.0249,-3.0249,-3.0592,-3.0838,-3.0838,-3.1055,-3.0968,-3.0429,0.0,0.0,0.0,0.0,0.0,0.0,0.0,0.0,0.0,0.0,0.0,0.0,0.0,0.0,0.0,0.0,0.0,0.0,0.0,0.0,0.0,0.0,0.0,0.0,0.0,0.0,0.0,0.0,0.0,0.0,0.0,0.0,0.0,0.0,0.0,0.0,0.0,0.0,0.0,0.0,0.0,0.0,0.0,0.0,0.0,0.0,0.0,0.0,0.0,0.0,0.0,0.0,0.0,0.0,0.0,0.0,0.0,0.0,0.0,0.0,0.0,0.0,0.0,0.0,0.0,0.0,0.0,0.0,0.0,0.0,0.0,0.0,0.0,0.0,0.0,0.0,0.0,0.0,0.0,0.0,0.0,0.0,0.0,0.0,0.0,0.0,0.0,0.0,0.0,0.0,0.0,0.0,0.0,0.0,0.0,0.0,0.0,0.0,0.0,0.0,0.0,0.0,-2.9189,-2.906,-2.886,-2.886,-2.9681,-3.0208,-3.0208,-3.072,-3.0766,-3.0073,0.0,0.0,0.0,0.0,0.0,0.0,0.0,0.0,0.0,0.0,0.0,0.0,0.0,0.0,0.0,0.0,0.0,0.0,0.0,0.0,0.0,0.0,0.0,0.0,0.0,0.0,0.0,0.0,0.0,0.0,0.0,0.0,0.0,0.0,0.0,0.0,0.0,0.0,0.0,0.0,0.0,0.0,0.0,0.0,0.0,0.0,0.0,0.0,0.0,0.0,0.0,0.0,0.0,0.0,0.0,0.0,0.0,0.0,0.0,0.0,-2.7555,-2.7416,0.0,0.0,0.0,0.0,0.0,0.0,0.0,0.0,0.0,0.0,0.0,0.0,0.0,0.0,0.0,0.0,0.0,0.0,0.0,0.0,0.0,0.0,0.0,0.0,0.0,0.0,0.0,0.0,0.0,0.0,0.0,0.0,0.0,0.0,0.0,0.0,0.0,0.0,0.0,0.0,-2.8823,-2.9131,-2.9281,-2.9281,-2.9464,-2.9585,-2.9585,-2.9717,-2.9718,-2.9551,-2.9,0.0,0.0,0.0,0.0,0.0,0.0,0.0,0.0,0.0,0.0,0.0,0.0,0.0,0.0,0.0,0.0,0.0,0.0,0.0,0.0,0.0,0.0,0.0,0.0,0.0,0.0,0.0,0.0,0.0,0.0,0.0,0.0,0.0,0.0,0.0,0.0,0.0,0.0,0.0,0.0,0.0,0.0,0.0,0.0,0.0,0.0,0.0,0.0,0.0,0.0,0.0,0.0,0.0,0.0,0.0,0.0,0.0,0.0,0.0,-2.8058,-2.7888,0.0,0.0,0.0,0.0,0.0,0.0,0.0,0.0,0.0,0.0,0.0,0.0,0.0,0.0,0.0,0.0,0.0,0.0,0.0,0.0,0.0,0.0,0.0,0.0,0.0,0.0,0.0,0.0,0.0,0.0,0.0,0.0,0.0,0.0,0.0,0.0,0.0,0.0,0.0,0.0,-2.8163,-2.8412,-2.8543,-2.8543,-2.8787,-2.8966,-2.8966,-2.9225,-2.9406,-2.9406,-2.9032,0.0,0.0,0.0,0.0,0.0,0.0,0.0,0.0,0.0,0.0,0.0,0.0,0.0,0.0,0.0,0.0,0.0,0.0,0.0,0.0,0.0,0.0,0.0,0.0,0.0,0.0,0.0,0.0,0.0,0.0,0.0,0.0,0.0,0.0,0.0,0.0,0.0,0.0,0.0,0.0,0.0,0.0,0.0,0.0,0.0,0.0,0.0,0.0,0.0,0.0,0.0,0.0,0.0,-2.7214,-2.7214,-2.7214,-2.7214,-2.7214,-2.7251,-2.8266,-2.8218,-2.7473,-2.7971,0.0,0.0,0.0,0.0,0.0,0.0,0.0,0.0,0.0,0.0,0.0,0.0,0.0,0.0,0.0,0.0,0.0,0.0,0.0,0.0,0.0,0.0,-2.5422,-2.554,-2.5569,-2.5828,-2.6858,0.0,0.0,0.0,0.0,0.0,0.0,0.0,0.0,0.0,0.0,0.0,-2.76,-2.76,-2.76,-2.76,-2.8042,-2.8343,-2.8343,-2.8803,-2.9088,-2.9088,-2.9088,-2.8865,0.0,0.0,0.0,0.0,0.0,0.0,0.0,0.0,0.0,0.0,0.0,0.0,0.0,0.0,0.0,0.0,0.0,0.0,0.0,0.0,0.0,0.0,0.0,0.0,0.0,0.0,0.0,0.0,0.0,0.0,0.0,0.0,-2.4964,-2.6279,0.0,0.0,0.0,0.0,0.0,0.0,0.0,0.0,0.0,0.0,0.0,0.0,0.0,-2.6336,-2.5701,-2.5701,-2.5701,-2.5701,-2.5701,-2.5701,-2.5701,-2.5701,-2.5701,-2.5701,-2.5863,0.0,-2.7575,-2.765,0.0,0.0,0.0,0.0,0.0,0.0,0.0,0.0,0.0,0.0,0.0,0.0,0.0,0.0,0.0,0.0,0.0,0.0,0.0,0.0,0.0,0.0,-2.4712,-2.5296,-2.5436,-2.5638,-2.6405,-2.6135,-2.5686,-2.5573,-2.4511,-2.3976,0.0,0.0,0.0,0.0,0.0,0.0,-2.761,-2.76,-2.76,-2.76,-2.7675,-2.771,-2.771,-2.7785,-2.7845,-2.7845,-2.7845,-2.8021,-2.8443,-2.7337,0.0,0.0,0.0,0.0,0.0,0.0,0.0,0.0,0.0,0.0,0.0,0.0,0.0,0.0,0.0,0.0,0.0,0.0,0.0,0.0,0.0,0.0,0.0,0.0,0.0,0.0,0.0,0.0,0.0,-2.4086,-2.4723,-2.5292,-2.5692,-2.6048,0.0,0.0,0.0,0.0,0.0,0.0,0.0,0.0,0.0,-2.5425,-2.5701,-2.5728,-2.5398,-2.5398,-2.5398,-2.5398,-2.5398,-2.5398,-2.5398,-2.5398,-2.5398,-2.5398,-2.5398,-2.5783,-2.6375,-2.6375,-2.6375,-2.6375,0.0,0.0,0.0,0.0,-2.5735,-2.5506,-2.5506,-2.5284,-2.4926,-2.4575,0.0,0.0,0.0,0.0,0.0,0.0,0.0,-2.4603,-2.5274,-2.5201,-2.5025,-2.5329,-2.5398,-2.5481,-2.581,-2.5682,-2.5611,-2.6083,-2.5997,-2.5804,-2.5627,-2.6692,0.0,0.0,0.0,-2.76,-2.76,-2.76,-2.76,-2.76,-2.76,-2.76,-2.76,-2.76,-2.76,-2.76,-2.76,-2.771,-2.7968,-2.7103,-2.6702,0.0,0.0,0.0,0.0,0.0,0.0,0.0,0.0,0.0,0.0,0.0,0.0,0.0,0.0,0.0,0.0,0.0,0.0,0.0,0.0,0.0,0.0,0.0,0.0,0.0,0.0,0.0,0.0,-2.4126,-2.446,-2.4653,-2.5094,-2.5398,0.0,0.0,0.0,0.0,0.0,0.0,-2.5119,-2.5287,-2.5231,-2.4838,-2.5007,-2.5007,-2.4809,-2.4809,-2.4809,-2.4809,-2.4809,-2.4809,-2.4809,-2.4809,-2.4809,-2.4809,-2.4809,-2.4809,-2.4824,-2.5231,-2.5398,-2.5398,-2.5398,-2.5398,-2.5398,-2.5398,-2.5398,-2.5398,-2.5398,-2.5287,-2.5051,-2.4545,-2.4368,-2.4286,-2.3797,0.0,0.0,0.0,0.0,-2.4477,-2.4996,-2.4979,-2.4809,-2.4809,-2.4809,-2.4866,-2.5063,-2.4951,-2.5108,-2.6108,-2.7003,-2.7287,-2.6287,-2.6948,0.0,-2.7597,-2.7457,-2.7382,-2.7575,-2.7433,-2.7382,-2.7575,-2.76,-2.76,-2.76,-2.76,-2.76,-2.76,-2.76,-2.76,-2.76,-2.6946,-2.649,-2.6327,0.0,0.0,0.0,0.0,0.0,0.0,0.0,0.0,0.0,0.0,0.0,0.0,0.0,0.0,0.0,0.0,0.0,0.0,0.0,0.0,0.0,0.0,0.0,0.0,0.0,0.0,0.0,0.0,0.0,-2.5273,-2.5384,0.0,0.0,0.0,0.0,-2.5398,-2.5398,-2.5091,-2.4408,-2.5007,-2.4724,-2.3245,-2.3972,-2.4002,-2.3215,-2.3215,-2.3215,-2.3215,-2.3215,-2.3215,-2.3215,-2.3215,-2.3215,-2.3215,-2.3215,-2.3215,-2.3335,-2.4809,-2.5398,-2.5398,-2.5398,-2.5398,-2.5398,-2.5398,-2.5398,-2.5398,-2.5398,-2.4922,-2.4337,-2.431,-2.4297,-2.4297,-2.4271,-2.4757,0.0,0.0,-2.4854,-2.431,-2.4337,-2.3796,-2.3215,-2.3215,-2.3215,-2.3424,-2.4205,-2.3767,-2.3666,-2.5162,-2.6607,-2.7577,-2.7505,0.0,-2.7595,-2.7595,-2.6994,-2.68,-2.7524,-2.6982,-2.6826,-2.7524,-2.76,-2.76,-2.76,-2.76,-2.76,-2.76,-2.76,-2.76,-2.76,-2.6901,-2.6217,-2.5557,-2.4813,0.0,0.0,0.0,0.0,0.0,0.0,0.0,0.0,0.0,0.0,0.0,0.0,0.0,0.0,0.0,0.0,0.0,0.0,0.0,0.0,0.0,0.0,0.0,0.0,0.0,0.0,0.0,0.0,-2.3904,-2.393,0.0,-2.393,-2.393,-2.393,-2.393,-2.393,-2.3813,-2.3531,-2.3796,-2.3679,-2.3138,-2.3395,-2.3395,-2.3108,-2.3108,-2.3108,-2.3108,-2.3108,-2.3108,-2.3108,-2.3108,-2.3108,-2.3108,-2.3108,-2.3108,-2.3125,-2.3695,-2.393,-2.393,-2.393,-2.393,-2.393,-2.393,-2.393,-2.393,-2.393,-2.3767,-2.3543,-2.3543,-2.3543,-2.3543,-2.3543,-2.3708,-2.393,-2.393,-2.3738,-2.3543,-2.3543,-2.3305,-2.3108,-2.3108,-2.3108,-2.3198,-2.3484,-2.3305,-2.3275,-2.3813,-2.4337,-2.5337,-2.7269,-2.6006,-2.5052,-2.6018,-2.5963,-2.5892,-2.6162,-2.6271,-2.6399,-2.6662,-2.7003,-2.7201,-2.7201,-2.6889,-2.669,-2.669,-2.6375,-2.6188,-2.6188,-2.5919,-2.5685,-2.5446,-2.5175,-2.4722,0.0,0.0,0.0,0.0,0.0,0.0,0.0,0.0,0.0,0.0,0.0,0.0,0.0,0.0,0.0,0.0,0.0,0.0,0.0,0.0,0.0,0.0,0.0,0.0,0.0,-2.3153,-2.3108,-2.3108,-2.3108,-2.3108,-2.3108,-2.3108,-2.2975,-2.2732,-2.2702,-2.2567,-2.2279,-2.2249,-2.2249,-2.2249,-2.2249,-2.2249,-2.2249,-2.2249,-2.2249,-2.2249,-2.2249,-2.2249,-2.2249,-2.2249,-2.2249,-2.2249,-2.2249,-2.2433,-2.2702,-2.2702,-2.2702,-2.272,-2.2975,-2.3108,-2.3108,-2.3108,-2.3108,-2.3108,-2.3108,-2.3108,-2.3108,-2.3108,-2.3108,-2.3047,-2.2793,-2.2884,-2.3035,-2.2763,-2.2884,-2.3108,-2.3108,-2.3108,-2.3108,-2.3108,-2.3108,-2.3108,-2.3108,-2.3258,-2.3341,-2.3131,-2.3102,-2.3742,-2.5735,-2.441,-2.3644,-2.5279,-2.5389,-2.546,-2.5879,-2.6019,-2.6176,-2.644,-2.6783,-2.7003,-2.7003,-2.6689,-2.6469,-2.6469,-2.5976,-2.5674,-2.5674,-2.5257,-2.5035,-2.5035,-2.4753,-2.441,-2.3967,0.0,0.0,0.0,0.0,0.0,0.0,0.0,0.0,0.0,0.0,0.0,0.0,0.0,0.0,0.0,0.0,0.0,0.0,0.0,0.0,0.0,0.0,0.0,-2.2975,-2.3078,-2.3078,-2.3108,-2.3078,-2.3078,-2.3078,-2.3047,-2.2702,-2.1908,-2.1846,-2.1491,-2.0655,-2.059,-2.059,-2.059,-2.059,-2.059,-2.059,-2.059,-2.059,-2.059,-2.059,-2.059,-2.059,-2.059,-2.059,-2.059,-2.059,-2.108,-2.1846,-2.1846,-2.1846,-2.1939,-2.2763,-2.3047,-2.3005,-2.3005,-2.3005,-2.3005,-2.3005,-2.3005,-2.3005,-2.3005,-2.3005,-2.2884,-2.2094,-2.2414,-2.2854,-2.2063,-2.2445,-2.3078,-2.309,-2.3103,-2.3133,-2.3158,-2.3158,-2.3128,-2.3128,-2.3597,-2.3829,-2.3206,-2.3127,-2.3158,-2.3201,-2.3179,-2.3735,-2.5445,-2.5368,0.0,-2.6786,-2.6306,-2.6166,-2.6881,-2.6955,-2.6969,-2.6969,-2.6985,-2.6971,-2.6971,-2.6437,-2.6164,-2.6164,-2.4972,-2.4316,-2.429,-2.3526,-2.3108,-2.3108,0.0,0.0,0.0,0.0,0.0,0.0,0.0,0.0,0.0,0.0,0.0,0.0,0.0,0.0,0.0,0.0,0.0,0.0,0.0,0.0,0.0,-2.1428,-2.1447,-2.2884,-2.261,-2.2445,-2.3035,-2.258,-2.223,-2.223,-2.1647,-2.1195,-2.0974,-2.0942,-2.0846,-2.0623,-2.059,-2.059,-2.059,-2.059,-2.059,-2.059,-2.059,-2.059,-2.059,-2.059,-2.059,-2.059,-2.059,-2.059,-2.059,-2.059,-2.0751,-2.0942,-2.0942,-2.0942,-2.1037,-2.1908,-2.1834,-2.129,-2.129,-2.129,-2.129,-2.129,-2.129,-2.129,-2.129,-2.129,-2.1259,-2.1005,-2.1101,-2.1227,-2.1005,-2.1585,-2.2314,-2.2701,-2.3293,-2.3866,-2.4224,-2.4324,-2.4121,-2.3397,-2.3964,-2.4174,-2.2781,-2.351,-2.4596,-2.5415,-2.4886,-2.4595,-2.5363,-2.5128,-2.5001,-2.5351,-2.5563,-2.576,-2.5942,-2.6374,-2.6631,-2.6631,-2.6232,-2.5975,-2.5975,-2.5472,-2.5189,-2.5189,-2.486,-2.4467,-2.4091,-2.343,-2.3108,0.0,0.0,0.0,0.0,0.0,0.0,0.0,0.0,0.0,0.0,0.0,0.0,0.0,0.0,0.0,0.0,0.0,0.0,0.0,0.0,0.0,0.0,-2.0623,-2.0515,-2.1865,-2.1647,-2.1522,-2.199,-2.1647,-2.1365,-2.1365,-2.091,-2.0462,-2.0074,-2.0042,-1.989,-1.9529,-1.9529,-1.9529,-1.9529,-1.9529,-1.9529,-1.9529,-1.9529,-1.9592,-1.9772,-1.9772,-1.9889,-2.0046,-2.0046,-2.0046,-2.0046,-2.0046,-2.0272,-2.0608,-2.0608,-2.0608,-2.0631,0.0,0.0,0.0,0.0,-2.059,-2.059,-2.059,-2.059,-2.059,-2.059,-2.059,-2.056,-2.038,-2.0566,-2.0807,-2.0654,-2.124,-2.1964,-2.2298,-2.2742,-2.3197,-2.3508,-2.358,-2.3435,-2.2841,-2.3354,-2.3857,-2.3631,-2.4609,0.0,-2.6401,-2.5966,-2.5517,-2.5501,-2.5275,-2.5234,-2.5473,-2.5774,-2.5996,-2.5996,-2.6298,-2.6499,-2.6499,-2.6185,0.0,0.0,0.0,-2.5046,-2.48,-2.4788,0.0,0.0,0.0,-2.381,-2.381,-2.381,0.0,0.0,-2.3987,-2.3722,0.0,0.0,0.0,0.0,0.0,0.0,0.0,0.0,0.0,0.0,0.0,0.0,0.0,0.0,0.0,0.0,-1.9726,-1.9431,-2.0204,-2.0301,-2.0365,-2.059,-2.0526,-2.0462,-2.0462,-2.0365,-1.9977,-1.9199,-1.9144,-1.8821,-1.8042,-1.8008,0.0,0.0,0.0,-1.8105,-1.8154,-1.8154,-1.834,-1.8676,-1.8676,-1.8916,-1.9287,-1.9287,-1.9287,-1.9287,-1.9287,-1.9739,-2.0461,-2.0461,-2.0461,-2.0459,-2.0432,-2.0466,-2.0466,-2.0466,-2.0466,-2.0466,-2.0466,0.0,0.0,-2.0466,-2.0466,-2.038,-1.9962,-2.0386,-2.0914,-2.0558,-2.1086,-2.1759,-2.1838,-2.1929,-2.2009,-2.2065,-2.2076,-2.2041,-2.1937,-2.2457,-2.3323,-2.4623,-2.575,-2.6434,-2.6191,-2.6357,-2.6309,-2.5786,-2.5686,-2.5875,-2.6424,-2.6499,-2.6499,-2.6499,-2.6499,0.0,-2.6499,-2.6499,-2.6499,-2.6499,-2.6009,-2.5485,-2.4988,-2.4946,-2.4876,-2.4876,-2.4813,-2.4788,-2.4788,-2.4788,-2.4788,-2.4763,-2.376,-2.3296,0.0,0.0,0.0,0.0,0.0,0.0,0.0,0.0,0.0,0.0,0.0,0.0,0.0,0.0,0.0,-1.9431,-1.8821,-1.8303,-1.8496,-1.8496,-1.9011,-2.043,-1.9977,-1.9562,-1.9562,-1.8921,-1.8428,-1.8269,-1.8236,-1.8178,-1.8008,-1.8008,-1.8164,-1.8471,-1.8481,-1.8682,-1.9033,-1.9043,-1.9082,-1.916,-1.916,0.0,-1.9287,-1.9287,-1.9287,-1.9287,-1.9287,-1.9396,-1.9568,-1.9568,-1.9568,-1.9548,-1.9549,-1.956,-1.956,-1.956,-1.956,-1.956,-1.956,-1.956,-1.956,-1.956,-1.956,-1.9534,-1.9445,-1.9537,0.0,-1.9574,-2.0186,-2.097,-2.1377,-2.2001,-2.2635,-2.3097,-2.3198,-2.298,-2.2173,-2.3349,-2.3949,-2.1919,-2.4213,-2.5983,-2.4347,-2.5437,-2.6447,-2.6323,-2.6336,-2.6361,-2.6474,-2.6499,-2.6499,-2.6499,-2.6499,-2.6499,-2.6499,-2.6499,-2.6499,-2.6499,-2.6386,-2.6285,-2.6185,-2.5686,-2.5448,-2.5448,-2.5034,-2.4788,-2.4788,-2.4788,-2.4788,-2.4775,-2.4562,-2.4462,0.0,0.0,0.0,0.0,0.0,0.0,0.0,0.0,0.0,0.0,0.0,-1.7888,-1.8523,0.0,-1.8134,-1.8596,-1.8269,-1.8008,-1.8008,-1.8008,-1.8337,-1.921,-1.8911,-1.8654,-1.8654,-1.8269,-1.8008,-1.8008,-1.8203,-1.8286,-1.8286,-1.8525,-1.874,-1.8955,-1.8965,-1.9072,-1.9287,-1.9287,-1.9394,-1.96,-1.96,-1.9717,-1.9959,-1.9959,-1.9959,-1.9959,-1.9959,-1.9959,-1.9959,-1.9959,-1.9959,-1.9959,-1.9959,-1.9668,-1.9287,-1.9287,-1.9287,-1.9287,-1.9287,-1.9287,-1.9287,-1.9287,-1.9287,-1.9326,-1.9541,-1.96,-1.9648,-1.9863,-2.025,-2.0663,-2.0913,-2.1302,-2.1728,-2.1996,-2.2048,-2.1897,-2.1413,-2.2075,-2.2483,-2.1484,-2.2541,-2.3632,-2.3965,-2.4565,-2.5331,-2.6352,-2.6509,-2.6499,-2.6499,-2.6499,-2.6499,-2.6499,-2.6499,-2.6499,-2.6499,-2.6499,-2.6499,-2.6499,-2.6499,-2.6499,-2.6499,-2.6223,-2.6059,-2.6059,-2.5808,-2.5636,-2.5636,-2.5636,-2.5636,-2.5636,-2.5636,-2.5347,0.0,0.0,0.0,0.0,0.0,0.0,0.0,-1.7256,-1.75,-1.75,-1.7773,-1.8008,-1.8008,-1.8008,-1.8008,-1.8008,-1.8008,-1.8008,-1.8008,-1.8008,-1.8008,-1.8008,-1.8008,-1.8008,-1.8008,-1.8086,-1.8135,-1.8135,-1.849,-1.8724,-1.8724,-1.9092,-1.9326,-1.9404,-1.9404,-1.9453,-1.9541,-1.9541,-1.9707,-2.0039,-2.0039,-2.0225,-2.0605,-2.0605,-2.0605,-2.0605,-2.0605,-2.0605,-2.0605,-2.0605,-2.0605,-2.0605,-2.0605,-2.0184,-1.9541,-1.9541,-1.9541,-1.9541,-1.9541,-1.9541,-1.9541,-1.9541,-1.9541,-1.96,-1.9941,-2.0039,-2.0117,-2.0507,-2.0605,-2.0605,-2.0605,-2.0605,-2.0605,-2.0605,-2.0605,-2.0605,-2.0605,-2.075,-2.1039,-2.1631,-2.1412,-2.1703,-2.3457,-2.3296,-2.3748,-2.6138,-2.6482,-2.6499,-2.6499,-2.6499,-2.6499,-2.6499,-2.6499,-2.6499,-2.6499,-2.6499,-2.6499,-2.6499,-2.6499,-2.6499,-2.6499,-2.6499,-2.6499,-2.6499,-2.6499,-2.6499,-2.6499,-2.6499,-2.6499,-2.6499,-2.6499,-2.6021,-1.7451,-1.7062,-1.6969,-1.7359,-1.7435,-1.7534,0.0,-1.791,-1.7939,-1.7939,-1.7978,-1.8008,-1.8008,-1.8008,-1.8008,-1.8008,-1.8008,-1.8008,-1.8008,-1.8008,-1.8008,-1.8008,-1.8008,-1.8008,-1.8008,-1.8315,-1.8529,-1.8529,-1.8965,-1.9219,-1.9219,-1.9268,-1.9453,-1.9834,-1.9844,-2.0029,-2.0458,-2.0458,-2.0488,-2.0537,-2.0537,-2.0556,-2.0605,-2.0605,-2.0605,-2.0605,-2.0605,-2.0605,-2.0605,-2.0605,-2.0605,-2.0605,-2.0605,-2.0546,-2.0458,-2.0458,-2.0458,-2.0458,-2.0458,-2.0458,-2.0458,-2.0458,-2.0458,-2.0468,-2.0517,-2.0537,-2.0537,-2.0595,-2.0605,-2.0605,-2.0605,-2.0605,-2.0605,-2.0605,-2.0605,-2.0605,-2.0605,-2.126,-2.1631,-2.0895,-2.2085,-2.274,-2.1264,-2.0971,-2.2168,-2.5948,-2.6482,-2.6499,-2.6499,-2.6499,-2.6499,-2.6499,-2.6499,-2.6499,-2.6499,-2.6499,-2.6499,-2.6499,-2.6499,-2.6499,-2.6499,-2.6499,-2.6499,-2.6499,-2.6499,-2.6499,-2.6499,-2.6499,-2.6499,-2.6499,-2.6499,-2.6424,-1.7429,-1.7219,-1.7217,-1.7646,-1.7744,-1.7793,-1.7969,-1.8008,-1.8008,-1.8008,-1.8008,-1.8008,-1.8008,-1.8008,-1.8008,-1.8008,-1.8008,-1.8008,-1.8008,-1.8008,-1.8105,-1.8315,-1.8344,-1.8344,-1.8344,-1.8769,-1.9014,-1.9014,-1.9414,-1.9648,-1.9648,-1.9893,-2.0145,-2.0283,-2.0293,-2.0381,-2.0605,-2.0605,-2.0605,-2.0605,-2.0605,-2.0605,-2.0605,-2.0605,-2.0605,-2.0605,-2.0605,-2.0605,-2.0605,-2.0605,-2.0605,-2.0605,-2.0605,-2.0605,-2.0605,-2.0605,-2.0605,-2.0605,-2.0605,-2.0605,-2.0605,-2.0605,-2.0605,-2.0605,-2.0605,-2.0605,-2.0605,-2.0605,-2.0605,-2.0605,-2.0605,-2.0605,-2.0605,-2.0605,-2.0605,-2.0605,-2.0605,-2.0895,-2.1078,-2.0683,-2.1255,-2.1555,-2.0731,-2.059,-2.1142,-2.2826,-2.4529,-2.5629,-2.5629,-2.6129,-2.6499,-2.6499,-2.6499,-2.6499,-2.6499,-2.6499,-2.6499,-2.6499,-2.6499,-2.6499,-2.6499,-2.6499,-2.6233,-2.5629,-2.5629,-2.5323,-2.4767,-2.5323,-2.5629,-2.5629,-2.6245,-2.6198,-1.7596,-1.7559,-1.7627,-1.7939,-1.8008,-1.8008,-1.8008,-1.8008,-1.8008,-1.8008,-1.8008,-1.8008,-1.8008,-1.8008,-1.8008,-1.8008,-1.8008,-1.8008,-1.8008,-1.8115,-1.8256,-1.8568,-1.8812,-1.8958,-1.8958,-1.9277,-1.9463,-1.9463,-1.9853,-2.0088,-2.0088,-2.0429,-2.0605,-2.0605,-2.0605,-2.0605,-2.0605,-2.0605,-2.0605,-2.0605,-2.0605,-2.0605,-2.0605,-2.0605,-2.0605,-2.0605,-2.0605,-2.0605,-2.0605,-2.0605,-2.0605,-2.0605,-2.0605,-2.0605,-2.0605,-2.0605,-2.0605,-2.0605,-2.0605,-2.0605,-2.0605,-2.0605,-2.0605,-2.0605,-2.0605,-2.0605,-2.0605,-2.0605,-2.0605,-2.0605,-2.0605,-2.0605,-2.0605,-2.0605,-2.0605,-2.0605,-2.0605,-2.0605,-2.0605,-2.0605,-2.0605,-2.0605,-2.0605,-2.0583,-2.0597,-2.0597,-2.2433,-2.398,-2.4516,-2.5476,-2.6198,-2.6452,-2.6499,-2.6499,-2.6499,-2.6499,-2.6499,-2.6499,-2.6499,-2.6499,-2.6499,-2.6499,-2.6164,-2.5441,-2.5158,-2.4636,-2.3927,-2.4373,-2.46,-2.46,-2.548,-2.5469,-1.7881,-1.7988,-1.7988,-1.8008,-1.8008,-1.8008,-1.8008,-1.8008,-1.8008,-1.8008,-1.8008,-1.8008,-1.8008,-1.8008,-1.8008,-1.8008,-1.8008,-1.8008,-1.8008,-1.8325,-1.8588,-1.8598,-1.9329,-1.9873,-1.9873,-1.9883,-1.9893,-1.9893,-2.0303,-2.0586,-2.0586,-2.0595,-2.0605,-2.0605,-2.0605,-2.0605,-2.0605,-2.0605,-2.0605,-2.0605,-2.0605,-2.0605,-2.0605,-2.0605,-2.0605,-2.0605,-2.0605,-2.0605,-2.0605,-2.0605,-2.0605,-2.0605,-2.0605,-2.0605,-2.0605,-2.0605,-2.0605,-2.0605,-2.0605,-2.0605,-2.0605,-2.0605,-2.0605,-2.0605,-2.0605,-2.0605,-2.0605,-2.0605,-2.0605,-2.0605,-2.0605,-2.0605,-2.0605,-2.0605,-2.0605,-2.0605,-2.0605,-2.0605,-2.0605,-2.0605,-2.0605,-2.0605,-2.0605,-2.0595,-2.0595,-2.0595,-2.0667,-2.1424,-2.3297,-2.4409,-2.5406,-2.6383,-2.6499,-2.6499,-2.6499,-2.6499,-2.6499,-2.6499,-2.6499,-2.6499,-2.6499,-2.6499,-2.6499,-2.6452,-2.5488,-2.4969,-2.4933,-2.4,-2.3562,-2.3573,-2.4056,-2.4243,-1.686,-1.6611,-1.6437,-1.7691,-1.7535,-1.707,-1.707,-1.707,-1.6897,-1.6263,-1.6158,-1.6158,-1.6158,-1.6645,-1.707,-1.707,-1.7569,-1.8008,-1.8008,-1.8334,-1.8705,-1.9033,-1.957,-2.0029,-2.0312,-2.0342,-2.0342,-2.0342,-2.0517,-2.0605,-2.0605,-2.0605,-2.0605,-2.0605,-2.0605,-2.0605,-2.0605,-2.0605,-2.0605,-2.0605,-1.9883,-1.952,-1.952,-1.8749,-1.8421,-1.8421,-1.8421,-1.8421,-1.8421,-1.8421,-1.8868,-1.952,-1.952,-1.9962,-2.0605,-2.0605,-2.0605,-2.0605,-2.0605,-2.0605,-2.0605,-2.0605,-2.0605,-2.0605,-2.0605,-2.0605,-2.0605,-2.0605,-2.0605,-2.0605,-2.0605,-2.0605,-2.0605,-2.0605,-2.0605,-2.0605,-2.0605,-2.0605,-2.0605,-2.0605,-2.0605,-2.0605,-2.0605,-2.0605,-2.0605,-2.0605,-2.1151,-2.1997,-2.332,-2.3818,-2.4145,-2.4469,-2.5111,-2.5511,-2.5511,-2.5511,-2.5511,-2.5511,-2.5169,-2.4982,-2.4982,-2.5222,-2.5058,-2.4401,-2.4057,-2.3576,-2.2953,-2.3225,-2.3371,-2.3371,-2.4194,-2.4232,-1.593,-1.5649,-1.5482,-1.6689,-1.6541,-1.6105,-1.6105,-1.6105,-1.5939,-1.5305,-1.5199,-1.5199,-1.5199,-1.5974,-1.6489,-1.614,-1.6897,-1.7398,-1.7044,-1.7437,-1.7843,-1.8175,-1.8664,-1.9106,-1.9404,-1.9432,-1.9756,-2.0527,-2.0605,-2.0605,-2.0605,-2.0605,-2.0401,-2.004,-2.004,-2.004,-2.004,-2.004,-2.004,-2.0001,-1.8917,-1.839,-1.835,-1.7617,-1.7302,-1.7302,-1.7302,-1.7302,-1.7302,-1.7302,-1.7747,-1.839,-1.839,-1.9076,-2.004,-2.004,-2.0284,-2.0605,-2.0605,-2.0605,-2.0605,-2.0605,-2.0605,-2.0605,-2.0605,-2.0605,-2.0605,-2.0605,-2.0605,-2.0605,-2.0605,-2.0605,-2.0605,-2.0605,-2.0605,-2.0605,-2.0605,-2.0605,-2.0605,-2.0605,-2.0605,-2.0605,-2.0605,-2.0596,-2.0702,-2.1006,-2.146,-2.2139,-2.3085,-2.3224,-2.3403,-2.3906,-2.4537,-2.4918,-2.4918,-2.4918,-2.4918,-2.4918,-2.4619,-2.4408,-2.4408,-2.4659,-2.4513,-2.383,-2.3482,-2.302,-2.2421,-2.2686,-2.2788,-2.2839,-2.3591,-2.3624,-1.5128,-1.5092,-1.5092,-1.5163,-1.5163,-1.5128,-1.5128,-1.5128,-1.5128,-1.5057,-1.5057,-1.5057,-1.5057,-1.5825,-1.614,-1.5269,-1.5895,-1.621,-1.534,-1.5774,-1.6182,-1.6182,-1.684,-1.7302,-1.7302,-1.7302,-1.8181,-2.0284,-2.044,-2.044,-2.044,-2.044,-1.9962,-1.8957,-1.8917,-1.8917,-1.8917,-1.8917,-1.8917,-1.8917,-1.7738,-1.722,-1.722,-1.7172,-1.7139,-1.7139,-1.7139,-1.7139,-1.7139,-1.7139,-1.718,-1.722,-1.722,-1.7908,-1.8917,-1.8917,-1.9559,-2.044,-2.044,-2.0527,-2.0605,-2.0605,-2.0605,-2.0605,-2.0605,-2.0605,-2.0605,-2.0605,-2.0605,-2.0605,-2.0605,-2.0605,-2.0605,-2.0605,-2.0605,-2.0605,-2.0605,-2.0605,-2.0605,-2.0605,-2.0615,-2.0596,-2.0615,-2.0671,-2.0995,-2.1826,-2.1661,-2.1743,-2.255,-2.2655,-2.3165,-2.4508,-2.4709,-2.4709,-2.4709,-2.4709,-2.4709,-2.4709,-2.4692,-2.4664,-2.4664,-2.4686,-2.4697,-2.4697,-2.3785,-2.3274,-2.3274,-2.2409,-2.1953,-2.1963,-2.2353,-2.2549,-1.3882,-1.3557,-1.3375,-1.4843,-1.4629,-1.4099,-1.4099,-1.4099,-1.3882,-1.3164,-1.3055,-1.3055,-1.3055,-1.381,-1.4343,-1.4135,-1.4914,-1.5473,-1.5234,-1.5774,-1.6182,-1.6182,-1.684,-1.7302,-1.7302,-1.7302,-1.7536,-1.8101,-1.8141,-1.8141,-1.8141,-1.8141,-1.802,-1.7738,-1.7747,-1.7747,-1.7747,-1.7747,-1.7747,-1.7698,-1.6642,-1.6108,-1.6067,-1.5269,-1.4901,-1.4901,-1.4901,-1.4901,-1.4901,-1.4901,-1.5387,-1.6108,-1.6108,-1.6764,-1.7747,-1.7747,-1.7908,-1.8141,-1.8141,-1.9234,-2.0605,-2.0605,-2.0605,-2.0605,-2.0605,-2.0605,-2.0605,-2.0605,-2.0605,-2.0605,-2.0605,-2.0605,-2.0605,-2.0605,-2.0605,-2.0605,-2.0605,-2.0605,-2.0605,-2.0605,-2.0614,-2.0587,-2.0583,-2.1641,-2.2531,-2.2754,-2.2385,-2.2081,-2.2087,-2.2108,-2.2229,-2.2615,-2.3262,-2.3682,-2.3682,-2.3682,-2.3682,-2.3682,-2.3309,-2.31,-2.31,-2.3372,-2.3543,-2.3543,-2.3298,-2.3137,-2.3137,-2.2899,-2.2779,-2.2822,-2.2886,-2.2935,-1.2952,-1.2703,-1.2549,-1.3658,-1.3484,-1.3098,-1.3098,-1.3098,-1.2952,-1.2409,-1.2305,-1.2305,-1.2305,-1.3062,-1.3564,-1.3164,-1.3918,-1.4414,-1.3991,-1.4486,-1.4872,-1.4872,-1.5468,-1.5876,-1.5876,-1.5876,-1.5876,-1.5876,-1.6772,-1.7302,-1.7302,-1.7302,-1.709,-1.6601,-1.6601,-1.6601,-1.6601,-1.6601,-1.6601,-1.6601,-1.5504,-1.5019,-1.4977,-1.437,-1.4088,-1.4088,-1.4088,-1.4088,-1.4088,-1.4088,-1.4447,-1.5019,-1.5019,-1.567,-1.6601,-1.6601,-1.6887,-1.7302,-1.7302,-1.8101,-1.9146,-1.9146,-1.9471,-1.9883,-1.9883,-2.0245,-2.0605,-2.0605,-2.0605,-2.0605,-2.0605,-2.0605,-2.0605,-2.0605,-2.0605,-2.0605,-2.0605,-2.0723,-2.0918,-2.1153,-2.1288,-2.1327,-2.1201,-2.222,-2.3116,-2.3098,-2.2836,-2.2608,-2.2441,-2.2275,-2.2236,-2.2412,-2.2908,-2.3213,-2.3213,-2.3213,-2.3213,-2.3213,-2.2925,-2.274,-2.274,-2.2974,-2.3091,-2.3091,-2.3091,-2.3091,-2.3091,-2.3091,-2.3091,-2.3091,-2.3091,-2.3091,-1.2342,-1.2305,-1.2305,-1.2305,-1.2305,-1.2305,-1.2305,-1.2305,-1.2305,-1.2305,-1.2305,-1.2305,-1.2305,-1.2989,-1.3237,-1.2445,-1.2989,-1.3237,-1.2409,-1.2826,-1.3213,-1.3213,-1.3728,-1.4088,-1.4088,-1.4088,-1.4088,-1.4088,-1.5835,-1.6895,-1.6895,-1.6895,-1.6445,-1.5538,-1.5504,-1.5504,-1.5504,-1.5504,-1.5504,-1.5496,-1.4531,-1.4088,-1.4088,-1.4088,-1.4088,-1.4088,-1.4088,-1.4088,-1.4088,-1.4088,-1.4088,-1.4088,-1.4088,-1.4657,-1.5504,-1.5504,-1.6075,-1.6895,-1.6895,-1.6895,-1.6935,-1.7212,-1.7989,-1.8798,-1.8957,-1.9638,-2.0401,-2.0566,-2.0605,-2.0605,-2.0605,-2.0605,-2.0605,-2.0605,-2.0605,-2.0615,-2.0683,-2.1006,-2.1445,-2.1885,-2.2136,-2.2264,-2.2082,-2.266,-2.3123,-2.3096,-2.3091,-2.3091,-2.3091,-2.2822,-2.2691,-2.3052,-2.3091,-2.3091,-2.3091,-2.3091,-2.3091,-2.3091,-2.3091,-2.3091,-2.3091,-2.3091,-2.3091,-2.3091,-2.3091,-2.3091,-2.3091,-2.3091,-2.3091,-2.3091,-2.3091,-2.3091,-1.2519,-1.2305,-1.2305,-1.2305,-1.2305,-1.2305,-1.2305,-1.2305,-1.2305,-1.2305,-1.2305,-1.2305,-1.2305,-1.2445,-1.2482,-1.2342,-1.2445,-1.2482,-1.2335,-1.2826,-1.3213,-1.3213,-1.3728,-1.4088,-1.4088,-1.4088,-1.4088,-1.4088,-1.4454,-1.4657,-1.4657,-1.4657,-1.458,-1.437,-1.437,-1.437,-1.437,-1.437,-1.437,-1.437,-1.4173,-1.4088,-1.4088,-1.4088,-1.4088,-1.4088,-1.4088,-1.4088,-1.4088,-1.4088,-1.4088,-1.4088,-1.4088,-1.4208,-1.437,-1.437,-1.4496,-1.4657,-1.4657,-1.4657,-1.4943,-1.6731,-1.7423,-1.7787,-1.8709,-1.9125,-1.9441,-2.0362,-2.0605,-2.0605,-2.0605,-2.0605,-2.0605,-2.0605,-2.0605,-2.0703,-2.1035,-2.1465,-2.1894,-2.2324,-2.235,-2.2425,-2.28,-2.2994,-2.312,-2.3091,-2.3091,-2.3091,-2.3091,-2.3033,-2.3013,-2.3091,-2.3091,-2.3091,-2.3091,-2.3091,-2.3091,-2.3091,-2.3091,-2.3091,-2.3091,-2.3091,-2.3091,-2.3091,-2.3091,-2.3091,-2.3091,-2.3091,-2.3091,-2.3091,-2.3091,-2.3091,-1.2556,-1.2305,-1.2305,-1.2305,-1.2305,-1.2305,-1.2305,-1.2305,-1.2305,-1.2305,-1.2305,-1.2305,-1.2305,-1.2305,-1.2305,-1.2305,-1.2305,-1.2305,-1.2305,-1.2826,-1.3213,-1.3213,-1.3728,-1.4088,-1.4088,-1.4088,-1.4088,-1.4088,-1.4088,-1.4088,-1.4088,-1.4088,-1.4088,-1.4088,-1.4088,-1.4088,-1.4088,-1.4088,-1.4088,-1.4088,-1.4088,-1.4088,-1.4088,-1.4088,-1.4088,-1.4088,-1.4088,-1.4088,-1.4088,-1.4088,-1.4088,-1.4088,-1.4088,-1.4088,-1.4088,-1.4088,-1.4088,-1.4088,-1.4088,-1.4088,-1.425,-1.5311,-1.5992,-1.6683,-1.7779,-1.851,-1.9244,-2.0284,-2.0605,-2.0605,-2.0605,-2.0605,-2.0664,-2.0859,-2.1084,-2.1377,-2.1807,-2.206,-2.2334,-2.2711,-2.2779,-2.2794,-2.3062,-2.3091,-2.3091,-2.3091,-2.3091,-2.3091,-2.3091,-2.3091,-2.3091,-2.3091,-2.3091,-2.3091,-2.3091,-2.3091,-2.3091,-2.3091,-2.3091,-2.3091,-2.3091,-2.3091,-2.3091,-2.3091,-2.3091,-2.3091,-2.3091,-2.3091,-2.3091,-2.3091,-2.3091,-2.3091,-1.2556,-1.2305,-1.2305,-1.2305,-1.2305,-1.2305,-1.2305,-1.2305,-1.2305,-1.2305,-1.2305,-1.2305,-1.2305,-1.2305,-1.2305,-1.2305,-1.2305,-1.2305,-1.2305,-1.2826,-1.3213,-1.3213,-1.3728,-1.4088,-1.4088,-1.4088,-1.4088,-1.4088,-1.4088,-1.4088,-1.4088,-1.4088,-1.4088,-1.4088,-1.4088,-1.4088,-1.4088,-1.4088,-1.4088,-1.4088,-1.4088,-1.4088,-1.4088,-1.4088,-1.4088,-1.4088,-1.4088,-1.4088,-1.4088,-1.4088,-1.4088,-1.4088,-1.4088,-1.4088,-1.4088,-1.4088,-1.4088,-1.4088,-1.4088,-1.4088,-1.4088,-1.4088,-1.465,-1.5579,-1.6887,-1.7948,-1.8917,-2.0235,-2.0605,-2.0605,-2.0605,-2.0674,-2.082,-2.1269,-2.1709,-2.2109,-2.2441,-2.2578,-2.2701,-2.3033,-2.3091,-2.3091,-2.3091,-2.3091,-2.3091,-2.3091,-2.3091,-2.3091,-2.3091,-2.3091,-2.3091,-2.3091,-2.3091,-2.3091,-2.3091,-2.3091,-2.3091,-2.3091,-2.3091,-2.3091,-2.3091,-2.3091,-2.3091,-2.3091,-2.3091,-2.3091,-2.3091,-2.3091,-2.3091,-2.3091,-2.3091,-2.3091,-1.2556,-1.2305,-1.2305,-1.2305,-1.2305,-1.2305,-1.2305,-1.2305,-1.2305,-1.2305,-1.2305,-1.2305,-1.2305,-1.2305,-1.2305,-1.2305,-1.2305,-1.2305,-1.2305,-1.2826,-1.3213,-1.3213,-1.3728,-1.4088,-1.4088,-1.4088,-1.4088,-1.4088,-1.4088,-1.4088,-1.4088,-1.4088,-1.4088,-1.4088,-1.4088,-1.4088,-1.4088,-1.4088,-1.4088,-1.4088,-1.4088,-1.4088,-1.4088,-1.4088,-1.4088,-1.4088,-1.4088,-1.4088,-1.4088,-1.4088,-1.4088,-1.4088,-1.4088,-1.4088,-1.4088,-1.4088,-1.4088,-1.4088,-1.4088,-1.4088,-1.4088,-1.4088,-1.4173,-1.4615,-1.669,-1.7383,-1.79,-2.0001,-2.0605,-2.0605,-2.0605,-2.0869,-2.1249,-2.1719,-2.2148,-2.2461,-2.251,-2.2769,-2.3052,-2.3091,-2.3091,-2.3091,-2.3091,-2.3091,-2.3091,-2.3091,-2.3091,-2.3091,-2.3091,-2.3091,-2.3091,-2.3091,-2.3091,-2.3091,-2.3091,-2.3091,-2.3091,-2.3091,-2.3091,-2.3091,-2.3091,-2.3091,-2.3091,-2.3091,-2.3091,-2.3091,-2.3091,-2.3091,-2.3091,-2.3091,-2.3091,-2.3091,-1.2732,-1.2305,-1.2305,-1.2305,-1.2305,-1.2305,-1.2305,-1.2305,-1.2305,-1.2305,-1.2305,-1.2305,-1.2305,-1.2305,-1.2305,-1.2305,-1.2305,-1.2305,-1.2305,-1.2826,-1.3213,-1.3213,-1.3728,-1.4088,-1.4088,-1.4088,-1.4088,-1.4088,-1.4088,-1.4088,-1.4088,-1.4088,-1.4088,-1.4088,-1.4088,-1.4088,-1.4088,-1.4088,-1.4088,-1.4088,-1.4088,-1.4088,-1.4088,-1.4088,-1.4088,-1.4088,-1.4088,-1.4088,-1.4088,-1.4088,-1.4088,-1.4088,-1.4088,-1.4088,-1.4088,-1.4088,-1.4088,-1.4088,-1.4088,-1.4088,-1.4088,-1.4088,-1.4088,-1.4377,-1.5869,-1.6805,-1.7617,-1.9195,-2.0079,-2.0664,-2.0898,-2.1484,-2.2051,-2.2217,-2.2588,-2.2847,-2.2847,-2.2974,-2.3091,-2.3091,-2.3091,-2.3091,-2.3091,-2.3091,-2.3091,-2.3091,-2.3091,-2.3091,-2.3091,-2.3091,-2.3091,-2.3091,-2.3091,-2.3091,-2.3091,-2.3091,-2.3091,-2.3091,-2.3091,-2.3091,-2.3091,-2.3091,-2.3091,-2.3091,-2.3091,-2.3091,-2.3091,-2.3091,-2.3091,-2.3091,-2.3091,-2.3091,-1.3098,-1.2519,-1.2305,-1.2305,-1.2305,-1.2305,-1.2305,-1.2305,-1.2305,-1.2305,-1.2305,-1.2305,-1.2305,-1.2305,-1.2305,-1.2305,-1.2305,-1.2305,-1.2305,-1.2826,-1.3213,-1.3213,-1.3728,-1.4088,-1.4088,-1.4088,-1.4088,-1.4088,-1.4088,-1.4088,-1.4088,-1.4088,-1.4088,-1.4088,-1.4088,-1.4088,-1.4088,-1.4088,-1.4088,-1.4088,-1.4088,-1.4088,-1.4088,-1.4088,-1.4088,-1.4088,-1.4088,-1.4088,-1.4088,-1.4088,-1.4088,-1.4088,-1.4088,-1.4088,-1.4088,-1.4088,-1.4088,-1.4088,-1.4088,-1.4088,-1.4088,-1.4088,-1.4088,-1.425,-1.5019,-1.6198,-1.7545,-1.8678,-1.986,-2.0898,-2.1424,-2.206,-2.2539,-2.2666,-2.2877,-2.3091,-2.3091,-2.3091,-2.3091,-2.3091,-2.3091,-2.3091,-2.3091,-2.3091,-2.3091,-2.3091,-2.3091,-2.3091,-2.3091,-2.3091,-2.3091,-2.3091,-2.3091,-2.3091,-2.3091,-2.3091,-2.3091,-2.3091,-2.3091,-2.3091,-2.3091,-2.3091,-2.3091,-2.3091,-2.3091,-2.3091,-2.3091,-2.3091,-2.3091,-2.3091,-2.3091,-2.3091,-1.3709,-1.3025,-1.2305,-1.2305,-1.2305,-1.2305,-1.2305,-1.2305,-1.2305,-1.2305,-1.2305,-1.2305,-1.2305,-1.2305,-1.2305,-1.2305,-1.2305,-1.2305,-1.2305,-1.2826,-1.3213,-1.3213,-1.3728,-1.4088,-1.4088,-1.4088,-1.4088,-1.4088,-1.4088,-1.4088,-1.4088,-1.4088,-1.4088,-1.4088,-1.4088,-1.4088,-1.4088,-1.4088,-1.4088,-1.4088,-1.4088,-1.4088,-1.4088,-1.4088,-1.4088,-1.4088,-1.4088,-1.4088,-1.4088,-1.4088,-1.4088,-1.4088,-1.4088,-1.4088,-1.4088,-1.4088,-1.4088,-1.4088,-1.4088,-1.4088,-1.4088,-1.4088,-1.4088,-1.4088,-1.413,-1.5594,-1.7545,-1.8678,-2.0066,-2.1385,-2.2275,-2.251,-2.2617,-2.2994,-2.3091,-2.3091,-2.3091,-2.3091,-2.3091,-2.3091,-2.3091,-2.3091,-2.3091,-2.3091,-2.3091,-2.3091,-2.3091,-2.3091,-2.3091,-2.3091,-2.3091,-2.3091,-2.3091,-2.3091,-2.3091,-2.3091,-2.3091,-2.3091,-2.3091,-2.3091,-2.3091,-2.3091,-2.3091,-2.3091,-2.3091,-2.3091,-2.3091,-2.3091,-2.3091,-2.3091,-2.3091,-2.3091,-1.3882,-1.3025,-1.2305,-1.2305,-1.2305,-1.2305,-1.2305,-1.2305,-1.2305,-1.2305,-1.2305,-1.2305,-1.2305,-1.2305,-1.2305,-1.2305,-1.2305,-1.2305,-1.2305,-1.2826,-1.3213,-1.3213,-1.3728,-1.4088,-1.4088,-1.4088,-1.4088,-1.4088,-1.4088,-1.4088,-1.4088,-1.4088,-1.4088,-1.4088,-1.4088,-1.4088,-1.4088,-1.4088,-1.4088,-1.4088,-1.4088,-1.4088,-1.4088,-1.4088,-1.4088,-1.4088,-1.4088,-1.4088,-1.4088,-1.4088,-1.4088,-1.4088,-1.4088,-1.4088,-1.4088,-1.4088,-1.4088,-1.4088,-1.4088,-1.4088,-1.4088,-1.4088,-1.4088,-1.4088,-1.4088,-1.5594,-1.7757,-1.9913,-2.1257,-2.2168,-2.2441,-2.2682,-2.2925,-2.3062,-2.3091,-2.3091,-2.3091,-2.3091,-2.3091,-2.3091,-2.3091,-2.3091,-2.3091,-2.3091,-2.3091,-2.3091,-2.3091,-2.3091,-2.3091,-2.3091,-2.3091,-2.3091,-2.3091,-2.3091,-2.3091,-2.3091,-2.3091,-2.3091,-2.3091,-2.3091,-2.3091,-2.3091,-2.3091,-2.3091,-2.3091,-2.3091,-2.3091,-2.3091,-2.3091,-2.3091,-2.3091,-2.3091,-1.4482,-1.3564,-1.2732,-1.2372,-1.2305,-1.2305,-1.2305,-1.2305,-1.2305,-1.2305,-1.2305,-1.2305,-1.2305,-1.2305,-1.2305,-1.2305,-1.2305,-1.2305,-1.2305,-1.2826,-1.3293,-1.3514,-1.3861,-1.4088,-1.4088,-1.4088,-1.4088,-1.4088,-1.4088,-1.4088,-1.4088,-1.4088,-1.4088,-1.4088,-1.4088,-1.4088,-1.4088,-1.4088,-1.4088,-1.4088,-1.4088,-1.4088,-1.4088,-1.4088,-1.4088,-1.4088,-1.4088,-1.4088,0.0,-1.4088,-1.4088,-1.4088,-1.4088,-1.4088,-1.4088,-1.4088,-1.4088,-1.4088,-1.4088,-1.4088,-1.4088,-1.4088,-1.4088,-1.4271,-1.5246,-1.6516,-1.8116,-2.0721,-2.1982,-2.2549,-2.2705,-2.2896,-2.3091,-2.3091,-2.3091,-2.3091,-2.3091,-2.3091,-2.3091,-2.3091,-2.3091,-2.3091,-2.3091,-2.3091,-2.3091,-2.3091,-2.3091,-2.3091,-2.3091,-2.3091,-2.3091,-2.3091,-2.3091,-2.3091,-2.3091,-2.3091,-2.3091,-2.3091,-2.3091,-2.3091,-2.3091,-2.3091,-2.3091,-2.3091,-2.3091,-2.3091,-2.3091,-2.3091,-2.3091,-2.3091,-2.3091,-2.3091,0.0,-1.449,-1.3491,-1.2629,-1.2342,-1.2305,-1.2305,-1.2305,0.0,-1.2305,-1.2305,-1.2305,-1.2305,-1.2305,-1.2305,-1.2305,-1.2305,-1.2305,-1.2305,-1.2826,-1.3427,-1.4015,-1.4088,-1.4088,-1.4088,-1.4088,-1.4088,-1.4088,-1.4088,-1.4088,-1.4088,-1.4088,-1.4088,-1.4088,-1.4088,-1.4088,-1.4088,-1.4088,-1.4088,-1.4088,-1.4088,-1.4088,-1.4088,-1.4088,-1.4088,-1.4088,-1.4088,-1.4088,-1.4088,-1.4088,-1.4088,-1.4088,-1.4088,-1.4088,-1.4088,-1.4088,-1.4088,-1.4088,-1.4088,-1.4088,-1.4088,-1.4088,-1.4088,-1.4551,-1.7111,-1.7945,-1.859,-2.1199,-2.2236,-2.2646,-2.2994,-2.3091,-2.3091,-2.3091,-2.3091,-2.3091,-2.3091,-2.3091,-2.3091,-2.3091,-2.3091,-2.3091,-2.3091,-2.3091,-2.3091,-2.3091,-2.3091,-2.3091,-2.3091,-2.3091,-2.3091,-2.3091,-2.3091,-2.3091,-2.3091,-2.3091,-2.3091,-2.3091,-2.3091,-2.3091,-2.3091,-2.3091,-2.3091,-2.3091,-2.3091,-2.3091,-2.3091,-2.3091,-2.3091,-2.3091,-2.3091,-2.3091,-1.5507,0.0,-1.3637,-1.3419,-1.2842,-1.2305,0.0,-1.2305,-1.2305,-1.2305,-1.2305,-1.2305,-1.2305,-1.2305,-1.2305,-1.2305,-1.2305,-1.2305,-1.2305,-1.2826,-1.3427,-1.4015,-1.4088,-1.4088,-1.4088,-1.4088,-1.4088,-1.4088,-1.4088,-1.4088,-1.4088,-1.4088,-1.4088,-1.4088,-1.4088,-1.4088,-1.4088,-1.4088,-1.4088,-1.4088,-1.4088,-1.4088,-1.4088,-1.4088,-1.4088,-1.4088,-1.4088,-1.4088,-1.4088,-1.4088,-1.4088,-1.4088,-1.4088,-1.4088,-1.4088,-1.4088,-1.4088,-1.4088,-1.4088,-1.4088,-1.4088,-1.4088,-1.4088,-1.4431,-1.605,-1.7424,-1.9008,-2.1627,-2.2666,-2.2974,-2.3071,-2.3091,-2.3091,-2.3091,-2.3091,-2.3091,-2.3091,-2.3091,-2.3091,-2.3091,-2.3091,-2.3091,-2.3091,-2.3091,-2.3091,-2.3091,-2.3091,-2.3091,-2.3091,-2.3091,-2.3091,-2.3091,-2.3091,-2.3091,-2.3091,-2.3091,-2.3091,-2.3091,-2.3091,-2.3091,-2.3091,-2.3091,-2.3091,-2.3091,-2.3091,-2.3091,-2.3091,-2.3091,-2.3091,-2.3091,-2.3091,-2.3091,-1.5795,-1.5188,-1.4487,-1.3628,-1.3172,-1.2842,-1.2409,-1.2305,-1.2305,-1.2305,-1.2305,-1.2305,-1.2305,-1.2305,-1.2305,-1.2305,-1.2305,-1.2398,-1.2679,-1.312,-1.3581,-1.4035,-1.4088,-1.4088,-1.4088,-1.4088,-1.4088,-1.4088,-1.4088,-1.4088,-1.4088,-1.4088,-1.4088,-1.4088,-1.4088,-1.4088,-1.4088,-1.4088,-1.4088,-1.4088,-1.4088,-1.4088,-1.4088,-1.4088,-1.4088,-1.4088,-1.4088,-1.4088,-1.4088,-1.4088,-1.4088,-1.4088,-1.4088,-1.4088,-1.4088,-1.4088,-1.4088,-1.4088,-1.4088,-1.4088,-1.4088,-1.4088,-1.4088,-1.4409,-1.5928,-1.7435,-1.9007,-2.1099,-2.2361,-2.3091,-2.3091,-2.3091,-2.3091,-2.3091,-2.3091,-2.3091,-2.3091,-2.3091,-2.3091,-2.3091,-2.3091,-2.3091,-2.3091,-2.3091,-2.3091,-2.3091,-2.3091,-2.3091,-2.3091,-2.3091,-2.3091,-2.3091,-2.3091,-2.3091,-2.3091,-2.3091,-2.3091,-2.3091,-2.3091,-2.3091,-2.3091,-2.3091,-2.3091,-2.3091,-2.3091,-2.3091,-2.3091,-2.3091,-2.3091,-2.3091,-2.3091,-2.3091,-1.5987,-1.5996,-1.559,-1.3758,-1.3469,-1.336,-1.2505,-1.2305,-1.2305,-1.2305,-1.2305,-1.2305,-1.2305,-1.2305,-1.2305,-1.2305,-1.2338,-1.2565,-1.3133,-1.342,-1.3713,-1.4048,-1.4088,-1.4088,-1.4088,-1.4088,-1.4088,-1.4088,-1.4088,-1.4088,-1.4088,-1.4088,-1.4088,-1.4088,-1.4088,-1.4088,-1.4088,-1.4088,-1.4088,-1.4088,-1.4088,-1.4088,-1.4088,-1.4088,-1.4088,-1.4088,-1.4088,-1.4088,-1.4088,-1.4088,-1.4088,-1.4088,-1.4088,-1.4088,-1.4088,-1.4088,-1.4088,-1.4088,-1.4088,-1.4088,-1.4088,-1.4088,-1.4115,-1.4462,-1.6024,-1.7537,-1.8919,-2.0166,-2.177,-2.3091,-2.3091,-2.3091,-2.3091,-2.3091,-2.3091,-2.3091,-2.3091,-2.3091,-2.3091,-2.3091,-2.3091,-2.3091,-2.3091,-2.3091,-2.3091,-2.3091,-2.3091,-2.3091,-2.3091,-2.3091,-2.3091,-2.3091,-2.3091,-2.3091,-2.3091,-2.3091,-2.3091,-2.3091,-2.3091,-2.3091,-2.3091,-2.3091,-2.3091,-2.3091,-2.3091,-2.3091,-2.3091,-2.3091,-2.3091,-2.3091,-2.3091,-2.3091,-1.5508,-1.603,-1.621,-1.468,-1.3743,-1.3027,-1.2428,-1.2305,-1.2305,-1.2305,-1.2305,-1.2305,-1.2305,-1.2305,-1.2305,-1.2305,-1.2549,-1.2837,-1.316,-1.342,-1.3713,-1.4048,-1.4088,-1.4088,-1.4088,-1.4088,-1.4088,-1.4088,-1.4088,-1.4088,-1.4088,-1.4088,-1.4088,-1.4088,-1.4088,-1.4088,-1.4088,-1.4088,-1.4088,-1.4088,-1.4088,-1.4088,-1.4088,-1.4088,-1.4088,-1.4088,-1.4088,-1.4088,-1.4088,-1.4088,-1.4088,-1.4088,-1.4088,-1.4088,-1.4088,-1.4088,-1.4088,-1.4088,-1.4088,-1.4088,-1.4088,-1.4088,-1.4255,-1.4559,-1.5116,-1.7018,-1.9129,-1.9577,-2.131,-2.3091,-2.3091,-2.3091,-2.3091,-2.3091,-2.3091,-2.3091,-2.3091,-2.3091,-2.3091,-2.3091,-2.3091,-2.3091,-2.3091,-2.3091,-2.3091,-2.3091,-2.3091,-2.3091,-2.3091,-2.3091,-2.3091,-2.3091,-2.3091,-2.3091,-2.3091,-2.3091,-2.3091,-2.3091,-2.3091,-2.3091,-2.3091,-2.3091,-2.3091,-2.3091,-2.3091,-2.3091,-2.3091,-2.3091,-2.3091,-2.3091,-2.3091,-2.3091,-1.541,-1.5879,-1.6143,-1.5164,-1.4592,-1.4013,-1.3244,-1.2659,-1.2305,-1.2305,-1.2305,-1.2305,-1.2305,-1.2305,-1.2351,-1.2556,-1.2837,-1.31,-1.336,-1.3701,-1.3935,-1.4075,-1.4088,-1.4088,-1.4088,-1.4088,-1.4088,-1.4088,-1.4088,-1.4088,-1.4088,-1.4088,-1.4088,-1.4088,-1.4088,-1.4088,-1.4088,-1.4088,-1.4088,-1.4088,-1.4088,-1.4088,-1.4088,-1.4088,-1.4088,-1.4088,-1.4088,-1.4088,-1.4088,-1.4088,-1.4088,-1.4088,-1.4088,-1.4088,-1.4088,-1.4088,-1.4088,-1.4088,-1.4088,-1.4088,-1.4088,-1.4088,-1.4282,-1.47,-1.5685,-1.7447,-1.9301,-2.0202,-2.1721,-2.3091,-2.3091,-2.3091,-2.3091,-2.3091,-2.3091,-2.3091,-2.3091,-2.3091,-2.3091,-2.3091,-2.3091,-2.3091,-2.3091,-2.3091,-2.3091,-2.3091,-2.3091,-2.3091,-2.3091,-2.3091,-2.3091,-2.3091,-2.3091,-2.3091,-2.3091,-2.3091,-2.3091,-2.3091,-2.3091,-2.3091,-2.3091,-2.3091,-2.3091,-2.3091,-2.3091,-2.3091,-2.3091,-2.3091,-2.3091,-2.3091,-2.3091,-2.3091,-1.5596,-1.5889,-1.6164,-1.5859,-1.5409,-1.4809,-1.3903,-1.2989,-1.2305,-1.2305,-1.2305,-1.2305,-1.2305,-1.2358,-1.2516,-1.275,-1.3066,-1.3353,-1.3573,-1.3901,-1.4088,-1.4088,-1.4088,-1.4088,-1.4088,-1.4088,-1.4088,-1.4088,-1.4088,-1.4088,-1.4088,-1.4088,-1.4088,-1.4088,-1.4088,-1.4088,-1.4088,-1.4088,-1.4088,-1.4088,-1.4088,-1.4088,-1.4088,-1.4088,-1.4088,-1.4088,-1.4088,-1.4088,-1.4088,-1.4088,-1.4088,-1.4088,-1.4088,-1.4088,-1.4088,-1.4088,-1.4088,-1.4088,-1.4088,-1.4088,-1.4088,-1.4088,-1.4329,-1.4875,-1.6345,-1.7929,-1.9499,-2.09,-2.2164,-2.3091,-2.3091,-2.3091,-2.3091,-2.3091,-2.3091,-2.3091,-2.3091,-2.3091,-2.3091,-2.3091,-2.3091,-2.3091,-2.3091,-2.3091,-2.3091,-2.3091,-2.3091,-2.3091,-2.3091,-2.3091,-2.3091,-2.3091,-2.3091,-2.3091,-2.3091,-2.3091,-2.3091,-2.3091,-2.3091,-2.3091,-2.3091,-2.3091,-2.3091,-2.3091,-2.3091,-2.3091,-2.3091,-2.3091,-2.3091,-2.3091,-2.3091,-2.3091,-1.6118,-1.6338,-1.6755,-1.7152,-1.5898,-1.4396,-1.3814,-1.2989,-1.2305,-1.2305,-1.2305,-1.2305,-1.2305,-1.2563,-1.2757,-1.2784,-1.3233,-1.358,-1.36,-1.3901,-1.4088,-1.4088,-1.4088,-1.4088,-1.4088,-1.4088,-1.4088,-1.4088,-1.4088,-1.4088,-1.4088,-1.4088,-1.4088,-1.4088,-1.4088,-1.4088,-1.4088,-1.4088,-1.4088,-1.4088,-1.4088,-1.4088,-1.4088,-1.4088,-1.4088,-1.4088,-1.4088,-1.4088,-1.4088,-1.4088,-1.4088,-1.4088,-1.4088,-1.4088,-1.4088,-1.4088,-1.4088,-1.4088,-1.4088,-1.4088,-1.4088,-1.4088,-1.4469,-1.5191,-1.6419,-1.805,-1.9728,-2.0971,-2.2164,-2.3091,-2.3091,-2.3091,-2.3091,-2.3091,-2.3091,-2.3091,-2.3091,-2.3091,-2.3091,-2.3091,-2.3091,-2.3091,-2.3091,-2.3091,-2.3091,-2.3091,-2.3091,-2.3091,-2.3091,-2.3091,-2.3091,-2.3091,-2.3091,-2.3091,-2.3091,-2.3091,-2.3091,-2.3091,-2.3091,-2.3091,-2.3091,-2.3091,-2.3091,-2.3091,-2.3091,-2.3091,-2.3091,-2.3091,-2.3091,-2.3091,-2.3091,-2.3091,-1.6178,-1.6387,-1.6804,-1.7275,-1.6145,-1.4884,-1.4668,-1.3411,-1.2305,-1.2305,-1.2305,-1.2358,-1.2583,-1.2703,-1.2904,-1.3247,-1.3453,-1.3666,-1.3895,-1.4015,-1.4088,-1.4088,-1.4088,-1.4088,-1.4088,-1.4088,-1.4088,-1.4088,-1.4088,-1.4088,-1.4088,-1.4088,-1.4088,-1.4088,-1.4088,-1.4088,-1.4088,-1.4088,-1.4088,-1.4088,-1.4088,-1.4088,-1.4088,-1.4088,-1.4088,-1.4088,-1.4088,-1.4088,-1.4088,-1.4088,-1.4088,-1.4088,-1.4088,-1.4088,-1.4088,-1.4088,-1.4088,-1.4088,-1.4088,-1.4088,-1.4115,-1.4295,-1.4629,-1.5387,-1.7588,-1.8832,-1.9898,-2.1854,-2.2775,-2.3091,-2.3091,-2.3091,-2.3091,-2.3091,-2.3091,-2.3091,-2.3091,-2.3091,-2.3091,-2.3091,-2.3091,-2.3091,-2.3091,-2.3091,-2.3091,-2.3091,-2.3091,-2.3091,-2.3091,-2.3091,-2.3091,-2.3091,-2.3091,-2.3091,-2.3091,-2.3091,-2.3091,-2.3091,-2.3091,-2.3091,-2.3091,-2.3091,-2.3091,-2.3091,-2.3091,-2.3091,-2.3091,-2.3091,-2.3091,-2.3091,-2.3091,-2.3091,-1.6386,-1.6494,-1.6833,-1.7441,-1.6387,-1.5199,-1.5199,-1.3694,-1.2305,-1.2305,-1.2378,-1.2543,-1.275,-1.2938,-1.316,-1.3533,-1.368,-1.3854,-1.4055,-1.4088,-1.4088,-1.4088,-1.4088,-1.4088,-1.4088,-1.4088,-1.4088,-1.4088,-1.4088,-1.4088,-1.4088,-1.4088,-1.4088,-1.4088,-1.4088,-1.4088,-1.4088,-1.4088,-1.4088,-1.4088,-1.4088,-1.4088,-1.4088,-1.4088,-1.4088,-1.4088,-1.4088,-1.4088,-1.4088,-1.4088,-1.4088,-1.4088,-1.4088,-1.4088,-1.4088,-1.4088,-1.4088,-1.4088,-1.4088,-1.4088,-1.4135,-1.4429,-1.4723,-1.5497,-1.8277,-1.9297,-1.9988,-2.2413,-2.3091,-2.3091,-2.3091,-2.3091,-2.3091,-2.3091,-2.3091,-2.3091,-2.3091,-2.3091,-2.3091,-2.3091,-2.3091,-2.3091,-2.3091,-2.3091,-2.3091,-2.3091,-2.3091,-2.3091,-2.3091,-2.3091,-2.3091,-2.3091,-2.3091,-2.3091,-2.3091,-2.3091,-2.3091,-2.3091,-2.3091,-2.3091,-2.3091,-2.3091,-2.3091,-2.3091,-2.3091,-2.3091,-2.3091,-2.3091,-2.3091,-2.3091,-2.3091,-2.3091,-1.6847,-1.6697,-1.6902,-1.7793,-1.6585,-1.5199,-1.5199,-1.3694,-1.2305,-1.2305,-1.2576,-1.2784,-1.279,-1.324,-1.36,-1.3606,-1.3895,-1.4088,-1.4088,-1.4088,-1.4088,-1.4088,-1.4088,-1.4088,-1.4088,-1.4088,-1.4088,-1.4088,-1.4088,-1.4088,-1.4088,-1.4088,-1.4088,-1.4088,-1.4088,-1.4088,-1.4088,-1.4088,-1.4088,-1.4088,-1.4088,-1.4088,-1.4088,-1.4088,-1.4088,-1.4088,-1.4088,-1.4088,-1.4088,-1.4088,-1.4088,-1.4088,-1.4088,-1.4088,-1.4088,-1.4088,-1.4088,-1.4088,-1.4088,-1.4088,-1.4135,-1.4429,-1.4723,-1.5549,-1.8285,-1.9306,-2.0034,-2.2413,-2.3091,-2.3091,-2.3091,-2.3091,-2.3091,-2.3091,-2.3091,-2.3091,-2.3091,-2.3091,-2.3091,-2.3091,-2.3091,-2.3091,-2.3091,-2.3091,-2.3091,-2.3091,-2.3091,-2.3091,-2.3091,-2.3091,-2.3091,-2.3091,-2.3091,-2.3091,-2.3091,-2.3091,-2.3091,-2.3091,-2.3091,-2.3091,-2.3091,-2.3091,-2.3091,-2.3091,-2.3091,-2.3091,-2.3091,-2.3091,-2.3091,-2.3091,-2.3091,-2.3091,-1.6847,-1.6697,-1.6902,-1.7793,-1.6585,-1.5199,-1.5199,-1.3694,-1.2305,-1.2305,-1.2576,-1.2851,-1.3033,-1.3387,-1.3673,-1.3921,-1.4028,-1.4088,-1.4088,-1.4088,-1.4088,-1.4088,-1.4088,-1.4088,-1.4088,-1.4088,-1.4088,-1.4088,-1.4088,-1.4088,-1.4088,-1.4088,-1.4088,-1.4088,-1.4088,-1.4088,-1.4088,-1.4088,-1.4088,-1.4088,-1.4088,-1.4088,-1.4088,-1.4088,-1.4088,-1.4088,-1.4088,-1.4088,-1.4088,-1.4088,-1.4088,-1.4088,-1.4088,-1.4088,-1.4088,-1.4088,-1.4088,-1.4088,-1.4088,-1.4222,-1.4442,-1.4736,-1.5631,-1.6906,-1.8818,-2.0039,-2.1078,-2.2677,-2.3091,-2.3091,-2.3091,-2.3091,-2.3091,-2.3091,-2.3091,-2.3091,-2.3091,-2.3091,-2.3091,-2.3091,-2.3091,-2.3091,-2.3091,-2.3091,-2.3091,-2.3091,-2.3091,-2.3091,-2.3091,-2.3091,-2.3091,-2.3091,-2.3091,-2.3091,-2.3091,-2.3091,-2.3091,-2.3091,-2.3091,-2.3091,-2.3091,-2.3091,-2.3091,-2.3091,-2.3091,-2.3091,-2.3091,-2.3091,-2.3091,-2.3091,-2.3091,-2.3091,-1.6847,-1.6697,-1.6902,-1.7793,-1.6585,-1.4985,-1.4235,-1.3127,-1.2305,-1.2305,-1.2639,-1.3025,-1.3173,-1.3547,-1.3708,-1.3438,-1.3379,-1.3209,-1.2778,-1.2693,-1.2693,-1.2693,-1.2693,-1.2912,-1.3336,-1.3379,-1.3597,-1.4046,-1.4088,-1.4088,-1.4088,-1.4088,-1.4088,-1.4088,-1.4088,-1.4088,-1.4088,-1.4088,-1.4088,-1.4088,-1.4088,-1.4088,-1.4088,-1.4088,-1.4088,-1.4088,-1.4088,-1.4088,-1.4088,-1.4088,-1.4088,-1.4088,-1.4088,-1.4088,-1.4088,-1.4088,-1.4162,-1.4262,-1.4262,-1.4449,-1.4743,-1.5044,-1.6087,-1.7485,-1.9018,-2.035,-2.1569,-2.2765,-2.3091,-2.3091,-2.3091,-2.3091,-2.3091,-2.3091,-2.3091,-2.3091,-2.3091,-2.3091,-2.3091,-2.3091,-2.3091,-2.3091,-2.3091,-2.3091,-2.3091,-2.3091,-2.3091,-2.3091,-2.3091,-2.3091,-2.3091,-2.3091,-2.3091,-2.3091,-2.3091,-2.3091,-2.3091,-2.3091,-2.3091,-2.3091,-2.3091,-2.3091,-2.3091,-2.3091,-2.3091,-2.3091,-2.3091,-2.3091,-2.3091,-2.3091,-2.3091,-2.3091,-1.6847,-1.6697,-1.6902,-1.7793,-1.6585,-1.47,-1.2732,-1.2305,-1.2311,-1.2338,-1.2806,-1.322,-1.3247,-1.3619,-1.3561,-1.2498,-1.22,-1.1766,-1.074,-1.0611,-1.0611,-1.0611,-1.0611,-1.0999,-1.2029,-1.2157,-1.2589,-1.3695,-1.3864,-1.3955,-1.3955,-1.4039,-1.4088,-1.4088,-1.4088,-1.4088,-1.4088,-1.4088,-1.4088,-1.4088,-1.4088,-1.4088,-1.4088,-1.4088,-1.4088,-1.4088,-1.4088,-1.4088,-1.4088,-1.4088,-1.4088,-1.4088,-1.4088,-1.4088,-1.4088,-1.4115,-1.4295,-1.4479,-1.4549,-1.4756,-1.5095,-1.5311,-1.6303,-1.7659,-1.9071,-2.035,-2.1569,-2.2765,-2.3003,-2.296,-2.3047,-2.3091,-2.3091,-2.3091,-2.3091,-2.3091,-2.3091,-2.3091,-2.3091,-2.3091,-2.3091,-2.3091,-2.3091,-2.3091,-2.3091,-2.3091,-2.3091,-2.3091,-2.3091,-2.3091,-2.3091,-2.3091,-2.3091,-2.3091,-2.3091,-2.3091,-2.3091,-2.3091,-2.3091,-2.3091,-2.3091,-2.3091,-2.3091,-2.3091,-2.3091,-2.3091,-2.3091,-2.3091,-2.3091,-2.3091,-2.3091,-2.3091,-1.6847,-1.6697,-1.6902,-1.7793,-1.6585,-1.47,-1.2732,-1.2305,-1.2365,-1.2643,-1.2946,-1.328,-1.3467,-1.306,-1.2589,-1.2328,-1.1552,-1.0869,-1.0611,-1.0611,-1.0611,-1.0611,-1.0611,-1.0697,-1.0956,-1.095,-1.1085,-1.1348,-1.2163,-1.2674,-1.2674,-1.3597,-1.4088,-1.4088,-1.4088,-1.4088,-1.4088,-1.4088,-1.4088,-1.4088,-1.4088,-1.4088,-1.4088,-1.4088,-1.4088,-1.4088,-1.4088,-1.4088,-1.4088,-1.4088,-1.4088,-1.4088,-1.4088,-1.4088,-1.4115,-1.4342,-1.4469,-1.4556,-1.4783,-1.5057,-1.5311,-1.5378,-1.7035,-1.9071,-1.9418,-2.035,-2.1569,-2.2765,-2.2403,-2.1889,-2.2862,-2.3091,-2.3091,-2.3091,-2.3091,-2.3091,-2.3091,-2.3091,-2.3091,-2.3091,-2.3091,-2.3091,-2.3091,-2.3091,-2.3091,-2.3091,-2.3091,-2.3091,-2.3091,-2.3091,-2.3091,-2.3091,-2.3091,-2.3091,-2.3091,-2.3091,-2.3091,-2.3091,-2.3091,-2.3091,-2.3091,-2.3091,-2.3091,-2.3091,-2.3091,-2.3091,-2.3091,-2.3091,-2.3091,-2.3091,-2.3091,-2.3091,-1.6557,-1.6541,-1.6699,-1.667,-1.5904,-1.47,-1.2732,-1.2305,-1.2385,-1.2723,-1.2993,-1.3094,-1.2656,-1.2415,-1.1943,-1.0869,-1.0183,-0.9575,-0.9008,-0.8921,-0.8921,-0.8921,-0.8921,-0.9139,-0.9749,-0.9792,-1.0009,-1.0567,-1.1638,-1.2285,-1.2285,-1.3428,-1.4088,-1.4088,-1.4088,-1.4155,-1.4295,-1.4295,-1.4369,-1.4553,-1.4553,-1.4553,-1.4539,-1.4215,-1.4088,-1.4088,-1.4088,-1.4088,-1.4095,-1.4242,-1.4295,-1.4309,-1.4449,-1.4553,-1.4566,-1.4676,-1.4823,-1.4963,-1.5117,-1.5357,-1.5605,-1.5605,-1.7342,-1.9405,-1.8818,-1.9898,-2.1293,-2.1355,-2.0899,-2.0711,-2.1943,-2.2262,-2.2403,-2.296,-2.3091,-2.3091,-2.3091,-2.3091,-2.3091,-2.3091,-2.3091,-2.3091,-2.3091,-2.3091,-2.3091,-2.3091,-2.3091,-2.3091,-2.3091,-2.3091,-2.3091,-2.3091,-2.3091,-2.3091,-2.3091,-2.333,-2.3457,-2.3457,-2.3643,-2.3705,-2.3705,-2.3705,-2.3608,-2.3457,-2.3598,-2.3705,-2.3705,-2.3705,-2.3705,-2.3705,-2.3705,-2.3705,-1.6375,-1.6538,-1.656,-1.5461,-1.5199,-1.47,-1.2732,-1.2305,-1.2371,-1.2656,-1.2959,-1.2856,-1.179,-1.1803,-1.1338,-0.9235,-0.8715,-0.8237,-0.7228,-0.7095,-0.7095,-0.7095,-0.7095,-0.7489,-0.8496,-0.8584,-0.8969,-0.9918,-1.1252,-1.2029,-1.2029,-1.3387,-1.4162,-1.4162,-1.4208,-1.4355,-1.4596,-1.4596,-1.4723,-1.5008,-1.5008,-1.5008,-1.4988,-1.4462,-1.4278,-1.4278,-1.4278,-1.4278,-1.4255,-1.4496,-1.4596,-1.4623,-1.4914,-1.5008,-1.5015,-1.5068,-1.519,-1.5404,-1.5451,-1.5625,-1.5784,-1.5784,-1.7343,-1.9001,-1.8002,-1.9085,-2.0522,-1.9716,-1.9497,-1.9761,-2.098,-2.1426,-2.1845,-2.2862,-2.3091,-2.3091,-2.3091,-2.3091,-2.3091,-2.3091,-2.3091,-2.3091,-2.3091,-2.3091,-2.3091,-2.3091,-2.3091,-2.3091,-2.3091,-2.3091,-2.3091,-2.3091,-2.3159,-2.3208,-2.3208,-2.3652,-2.3896,-2.3896,-2.4228,-2.4414,-2.4414,-2.4492,-2.4365,-2.4014,-2.4277,-2.4414,-2.4414,-2.4414,-2.4414,-2.4414,-2.4414,-2.4414,-1.7019,-1.7192,-1.6964,-1.5556,-1.5199,-1.47,-1.2732,-1.2305,-1.2311,-1.2351,-1.2812,-1.2915,-1.2022,-1.1286,-1.0394,-0.9104,-0.8013,-0.7272,-0.7139,-0.7095,-0.7095,-0.7095,-0.7095,-0.7183,-0.7316,-0.736,-0.7401,-0.7573,-0.9614,-1.0826,-1.0826,-1.3126,-1.4462,-1.4462,-1.4716,-1.4908,-1.4948,-1.4948,-1.4968,-1.5008,-1.5008,-1.5008,-1.5008,-1.4928,-1.4894,-1.4894,-1.4894,-1.4894,-1.4894,-1.4934,-1.4948,-1.4955,-1.4995,-1.5008,-1.5035,-1.5244,-1.5364,-1.5431,-1.5685,-1.5751,-1.5784,-1.5784,-1.6756,-1.7917,-1.7738,-1.7917,-1.8365,-1.9268,-1.9497,-1.9761,-2.098,-2.2076,-2.2906,-2.3047,-2.3091,-2.3091,-2.3091,-2.3091,-2.3091,-2.3091,-2.3091,-2.3091,-2.3091,-2.3091,-2.3091,-2.3091,-2.3091,-2.3091,-2.3091,-2.3091,-2.3091,-2.3091,-2.3477,-2.3701,-2.3701,-2.4092,-2.4336,-2.4336,-2.4385,-2.4414,-2.4414,-2.4775,-2.4998,-2.4949,-2.458,-2.4414,-2.4414,-2.4414,-2.4414,-2.4414,-2.4414,-2.4414,-1.6538,-1.6773,-1.6645,-1.518,-1.5006,-1.47,-1.2732,-1.2305,-1.2305,-1.2305,-1.2645,-1.2713,-1.1849,-1.0945,-1.0042,-0.9043,-0.7885,-0.7095,-0.7095,-0.7095,-0.7095,-0.7095,-0.7095,-0.7095,-0.7095,-0.7095,-0.7095,-0.7095,-0.8667,-0.9666,-0.9666,-1.2144,-1.3567,-1.3567,-1.4486,-1.5089,-1.5204,-1.5204,-1.5291,-1.5444,-1.5444,-1.5444,-1.5444,-1.5444,-1.5271,-1.5008,-1.5008,-1.5008,-1.5022,-1.5137,-1.5204,-1.5224,-1.5384,-1.5444,-1.5464,-1.5591,-1.5638,-1.5658,-1.5738,-1.5784,-1.5784,-1.5784,-1.6669,-1.7552,-1.685,-1.7131,-1.7824,-1.8319,-1.8503,-1.891,-2.08,-2.1712,-2.2262,-2.295,-2.3091,-2.3091,-2.3091,-2.3091,-2.3091,-2.3091,-2.3091,-2.3091,-2.3091,-2.3091,-2.3091,-2.3091,-2.3091,-2.3091,-2.3091,-2.3091,-2.3188,-2.3477,-2.3682,-2.3887,-2.4121,-2.4531,-2.4785,-2.4785,-2.5019,-2.5109,-2.5109,-2.5342,-2.5439,-2.5439,-2.5254,-2.5109,-2.5109,-2.5109,-2.5109,-2.5109,-2.5109,-2.5109,-1.5967,-1.6221,-1.6227,-1.4841,-1.4747,-1.4553,-1.2718,-1.2305,-1.2305,-1.2305,-1.2516,-1.2407,-1.1581,-1.0751,-0.9879,-0.8923,-0.7811,-0.7095,-0.7095,-0.7095,-0.7095,-0.7095,-0.7095,-0.7095,-0.7095,-0.7095,-0.7095,-0.7095,-0.8233,-0.9017,-0.9323,-1.1585,-1.3043,-1.3358,-1.4572,-1.5291,-1.5504,-1.5504,-1.5618,-1.5784,-1.5784,-1.5784,-1.5784,-1.5784,-1.5591,-1.5184,-1.5184,-1.5184,-1.5204,-1.5418,-1.5504,-1.5524,-1.5698,-1.5784,-1.5784,-1.5784,-1.5784,-1.5784,-1.5784,-1.5784,-1.5784,-1.5784,-1.6433,-1.7037,-1.6109,-1.648,-1.7225,-1.7225,-1.7684,-1.8588,-2.0395,-2.1293,-2.1987,-2.2916,-2.3091,-2.3091,-2.3091,-2.3091,-2.3091,-2.3091,-2.3091,-2.3091,-2.3091,-2.3091,-2.3091,-2.3091,-2.3091,-2.3091,-2.3091,-2.3188,-2.3428,-2.375,-2.3984,-2.4238,-2.4551,-2.498,-2.5234,-2.5234,-2.5557,-2.5693,-2.5693,-2.5693,-2.5693,-2.5693,-2.5693,-2.5693,-2.5693,-2.5693,-2.5693,-2.5693,-2.5693,-2.5693,-1.5677,-1.5762,-1.5878,-1.4774,-1.4532,-1.4145,-1.2627,-1.2305,-1.2305,-1.2305,-1.2311,-1.2114,-1.1358,-1.0643,-0.9826,-0.8624,-0.7697,-0.7095,-0.7095,-0.7095,-0.7095,-0.7095,-0.7095,-0.7095,-0.7095,-0.7095,-0.7095,-0.7095,-0.8233,-0.9362,-1.0438,-1.2193,-1.3697,-1.4847,-1.5445,-1.5792,-1.5758,-1.5758,-1.5764,-1.5784,-1.5784,-1.5784,-1.5784,-1.5784,-1.5764,-1.5738,-1.5738,-1.5738,-1.5738,-1.5751,-1.5758,-1.5758,-1.5771,-1.5784,-1.5784,-1.5784,-1.5784,-1.5784,-1.5784,-1.5784,-1.5784,-1.5784,-1.5825,-1.5872,-1.5825,-1.5825,-1.592,-1.592,-1.7576,-1.9451,-1.9534,-2.1311,-2.3003,-2.3101,-2.3091,-2.3091,-2.3091,-2.3091,-2.3091,-2.3091,-2.3091,-2.3091,-2.3091,-2.3091,-2.3091,-2.3091,-2.3091,-2.3091,-2.3091,-2.3496,-2.3769,-2.3789,-2.4558,-2.5057,-2.5077,-2.5449,-2.5654,-2.5654,-2.5674,-2.5693,-2.5693,-2.5693,-2.5693,-2.5693,-2.5693,-2.5693,-2.5693,-2.5693,-2.5693,-2.5693,-2.5693,-2.5693,-1.5056,-1.5322,-1.5409,-1.4353,-1.431,-1.4122,-1.2627,-1.2305,-1.2305,-1.2305,-1.2305,-1.2029,-1.1107,-1.0277,-0.9502,-0.8737,-0.769,-0.6994,-0.7085,-0.7095,-0.7095,-0.7095,-0.7095,-0.7095,-0.7095,-0.7095,-0.7095,-0.7095,-0.7489,-0.8277,-0.9449,-1.117,-1.2655,-1.3812,-1.5145,-1.5784,-1.5784,-1.5784,-1.5784,-1.5784,-1.5784,-1.5784,-1.5784,-1.5784,-1.5784,-1.5784,-1.5784,-1.5784,-1.5784,-1.5784,-1.5784,-1.5784,-1.5784,-1.5784,-1.5784,-1.5784,-1.5784,-1.5784,-1.5784,-1.5784,-1.5784,-1.5784,-1.5784,-1.5784,-1.5784,-1.5784,-1.5967,-1.6803,-1.8218,-1.967,-2.044,-2.1854,-2.3091,-2.3091,-2.3091,-2.3091,-2.3091,-2.3091,-2.3091,-2.3091,-2.3091,-2.3091,-2.3091,-2.3091,-2.3091,-2.3091,-2.3091,-2.3198,-2.3525,-2.3691,-2.3994,-2.4551,-2.493,-2.5185,-2.5478,-2.5644,-2.5693,-2.5693,-2.5693,-2.5693,-2.5693,-2.5693,-2.5693,-2.5693,-2.5693,-2.5693,-2.5693,-2.5693,-2.5693,-2.5693,-2.5693,-2.5693,-1.443,-1.4766,-1.4982,-1.4139,-1.4115,-1.3989,-1.2834,-1.2414,-1.2305,-1.2305,-1.2305,-1.1996,-1.0975,-1.0051,-0.9237,-0.8572,-0.7563,-0.6859,-0.7004,-0.7024,-0.7045,-0.7092,-0.7095,-0.7095,-0.7095,-0.7095,-0.7095,-0.7095,-0.7095,-0.7793,-0.9405,-1.0696,-1.2144,-1.3896,-1.5144,-1.5784,-1.5784,-1.5784,-1.5784,-1.5784,-1.5784,-1.5784,-1.5784,-1.5784,-1.5784,-1.5784,-1.5784,-1.5784,-1.5784,-1.5784,-1.5784,-1.5784,-1.5784,-1.5784,-1.5784,-1.5784,-1.5784,-1.5784,-1.5784,-1.5784,-1.5784,-1.5784,-1.5784,-1.5784,-1.5784,-1.5784,-1.6062,-1.7365,-1.8549,-1.9761,-2.098,-2.2217,-2.3091,-2.3091,-2.3091,-2.3091,-2.3091,-2.3091,-2.3091,-2.3091,-2.3091,-2.3091,-2.3091,-2.3091,-2.3091,-2.3091,-2.3218,-2.3467,-2.375,-2.4043,-2.448,-2.5057,-2.5205,-2.541,-2.5664,-2.5693,-2.5693,-2.5693,-2.5693,-2.5693,-2.5693,-2.5693,-2.5693,-2.5693,-2.5693,-2.5693,-2.5693,-2.5693,-2.5693,-2.5693,-2.5693,-2.5693,0.0,0.0,0.0,-1.4134,-1.3947,-1.3773,-1.3212,-1.2684,-1.2328,-1.2285,-1.2291,-1.1996,-1.0975,-1.0008,-0.9057,-0.8125,-0.7278,-0.6749,-0.6859,-0.6879,-0.693,-0.7071,-0.7088,-0.7092,-0.7095,-0.7095,-0.7095,-0.7095,-0.7095,-0.8097,-1.0438,-1.096,-1.2473,-1.5331,-1.5678,-1.5784,-1.5784,-1.5784,-1.5784,-1.5784,-1.5784,-1.5784,-1.5784,-1.5784,-1.5784,-1.5784,-1.5784,-1.5784,-1.5784,-1.5784,-1.5784,-1.5784,-1.5784,-1.5784,-1.5784,-1.5784,-1.5784,-1.5784,-1.5784,-1.5784,-1.5784,-1.5784,-1.5784,-1.5784,-1.5784,-1.5784,-1.6062,-1.7318,-1.8549,-1.9807,-2.1025,-2.2217,-2.3091,-2.3091,-2.3091,-2.3091,-2.3091,-2.3091,-2.3091,-2.3091,-2.3091,-2.3091,-2.3091,-2.3091,-2.3091,-2.3091,-2.3516,-2.3799,-2.3809,-2.4587,-2.5116,-2.5135,-2.5478,-2.5693,-2.5693,-2.5693,-2.5693,-2.5693,-2.5693,-2.5693,-2.5693,-2.5693,-2.5693,-2.5693,-2.5693,-2.5693,-2.5693,-2.5693,-2.5693,-2.5693,-2.5693,-2.5693,-1.3761,0.0,0.0,0.0,0.0,0.0,-1.307,-1.2857,-1.2692,-1.2128,-1.2151,-1.1996,-1.0975,-1.0565,-0.9836,-0.8112,-0.7109,-0.6586,-0.6742,-0.6763,-0.682,-0.6927,-0.6943,-0.6984,-0.7085,-0.7095,-0.7095,-0.7095,-0.7095,-0.7749,-0.9279,-1.1426,-1.3486,-1.5338,-1.5678,-1.5784,-1.5784,-1.5784,-1.5784,-1.5784,-1.5784,-1.5784,-1.5784,-1.5784,-1.5784,-1.5784,-1.5784,-1.5784,-1.5784,-1.5784,-1.5784,-1.5784,-1.5784,-1.5784,-1.5784,-1.5784,-1.5784,-1.5784,-1.5784,-1.5784,-1.5784,-1.5784,-1.5784,-1.5784,-1.5784,-1.5784,-1.5872,-1.6251,-1.7848,-1.9988,-2.2041,-2.2862,-2.3091,-2.3091,-2.3091,-2.3091,-2.3091,-2.3091,-2.3091,-2.3091,-2.3091,-2.3091,-2.3091,-2.3091,-2.3091,-2.3091,-2.3516,-2.3896,-2.4209,-2.4727,-2.5195,-2.5518,-2.5615,-2.5693,-2.5693,-2.5693,-2.5693,-2.5693,-2.5693,-2.5693,-2.5693,-2.5693,-2.5693,-2.5693,-2.5693,-2.5693,-2.5693,-2.5693,-2.5693,-2.5693,-2.5693,-2.5693,-1.3575,-1.3555,-1.3874,-1.4026,0.0,0.0,-1.3688,-1.3296,-1.2952,-1.2501,-1.2351,-1.2114,-1.1539,-1.1087,-1.0409,-0.9248,-0.8288,-0.7415,-0.6705,-0.6607,-0.6661,-0.6814,-0.6834,-0.6892,-0.6994,-0.748,-0.7592,-0.7136,-0.7577,-0.836,-0.9536,-1.2248,-1.418,-1.5204,-1.5498,-1.5705,-1.5784,-1.5784,-1.5784,-1.5784,-1.5784,-1.5784,-1.5784,-1.5784,-1.5784,-1.5784,-1.5784,-1.5784,-1.5784,-1.5784,-1.5784,-1.5784,-1.5784,-1.5784,-1.5784,-1.5784,-1.5784,-1.5784,-1.5784,-1.5784,-1.5784,-1.5784,-1.5784,-1.5784,-1.5784,-1.5784,-1.6015,-1.707,-1.9123,-2.132,-2.2731,-2.3091,-2.3091,-2.3091,-2.3091,-2.3091,-2.3091,-2.3091,-2.3091,-2.3091,-2.3091,-2.3091,-2.3091,-2.3091,-2.3159,-2.3379,-2.3779,-2.4209,-2.4629,-2.5078,-2.5449,-2.5664,-2.5693,-2.5693,-2.5693,-2.5693,-2.5693,-2.5693,-2.5693,-2.5693,-2.5693,-2.5693,-2.5693,-2.5693,-2.5693,-2.5693,-2.5693,-2.5693,-2.5693,-2.5693,-2.5693,-2.5693,-1.3405,-1.3223,-1.3603,-1.3938,-1.4045,0.0,-1.45,-1.3893,-1.3216,-1.3051,-1.2642,-1.2328,-1.2281,-1.1532,-1.0902,-1.0815,-1.004,-0.8827,-0.7055,-0.6723,-0.6703,-0.6819,-0.6836,-0.6899,-0.7016,-0.8136,-0.8461,-0.7493,-0.8352,-0.9405,-1.0524,-1.2853,-1.4386,-1.5001,-1.5244,-1.5538,-1.5778,-1.5784,-1.5784,-1.5784,-1.5784,-1.5784,-1.5784,-1.5784,-1.5784,-1.5784,-1.5784,-1.5784,-1.5784,-1.5784,-1.5784,-1.5784,-1.5784,-1.5784,-1.5784,-1.5784,-1.5784,-1.5784,-1.5784,-1.5784,-1.5784,-1.5784,-1.5784,-1.5784,-1.5784,-1.5784,-1.6285,-1.8694,-2.0962,-2.2736,-2.3047,-2.3091,-2.3091,-2.3091,-2.3091,-2.3091,-2.3091,-2.3091,-2.3091,-2.3091,-2.3091,-2.3091,-2.3091,-2.3091,-2.3247,-2.3721,-2.415,-2.458,-2.5057,-2.5459,-2.5693,-2.5693,-2.5693,-2.5693,-2.5693,-2.5693,-2.5693,-2.5693,-2.5693,-2.5693,-2.5693,-2.5693,-2.5693,-2.5693,-2.5693,-2.5693,-2.5693,-2.5693,-2.5693,-2.5693,-2.5693,-2.5693,-1.3616,-1.3447,-1.3525,-1.3613,-1.4133,0.0,-1.393,-1.4101,-1.4008,-1.2649,-1.2494,-1.2505,-1.2053,-1.1807,-1.1505,-1.0902,-1.0634,-1.0094,-0.8932,-0.8064,-0.7594,-0.7724,-0.7745,-0.7817,-0.7916,-0.9141,-0.984,-0.9625,-0.9147,-0.9405,-1.0524,-1.1351,-1.2756,-1.4905,-1.5244,-1.5538,-1.5778,-1.5784,-1.5784,-1.5784,-1.5784,-1.5784,-1.5784,-1.5784,-1.5784,-1.5784,-1.5784,-1.5784,-1.5784,-1.5784,-1.5784,-1.5784,-1.5784,-1.5784,-1.5784,-1.5784,-1.5784,-1.5784,-1.5784,-1.5784,-1.5784,-1.5784,-1.5784,-1.5784,-1.5784,-1.5784,-1.6177,-1.8041,-1.9355,-2.0651,-2.2585,-2.3091,-2.3091,-2.3091,-2.3091,-2.3091,-2.3091,-2.3091,-2.3091,-2.3091,-2.3091,-2.3091,-2.3091,-2.3091,-2.3247,-2.3721,-2.415,-2.458,-2.5057,-2.5459,-2.5693,-2.5693,-2.5693,-2.5693,-2.5693,-2.5693,-2.5693,-2.5693,-2.5693,-2.5693,-2.5693,-2.5693,-2.5693,-2.5693,-2.5693,-2.5693,-2.5693,-2.5693,-2.5693,-2.5693,-2.5693,-2.5693,-1.411,-1.3792,-1.3851,-1.4092,-1.4463,0.0,0.0,-1.4595,-1.4457,-1.3624,-1.3061,-1.263,-1.2345,-1.1922,-1.1515,-1.1148,-1.125,-1.1156,-1.068,-0.9413,-0.8574,-0.8633,-0.8647,-0.8686,-0.8844,-0.9968,-1.0784,-1.1012,-1.0134,-1.0114,-1.1375,-1.1625,-1.2651,-1.4685,-1.5023,-1.5317,-1.5611,-1.5711,-1.5784,-1.5784,-1.5784,-1.5784,-1.5784,-1.5784,-1.5784,-1.5784,-1.5784,-1.5784,-1.5784,-1.5784,-1.5784,-1.5784,-1.5784,-1.5784,-1.5784,-1.5784,-1.5784,-1.5784,-1.5784,-1.5784,-1.5784,-1.5784,-1.5784,-1.5784,-1.5784,-1.5792,-1.6223,-1.8301,-2.0065,-2.1552,-2.2777,-2.309,-2.309,-2.309,-2.3091,-2.3091,-2.3091,-2.3091,-2.3091,-2.3091,-2.3091,-2.3091,-2.3091,-2.3276,-2.3613,-2.4043,-2.4473,-2.4902,-2.5342,-2.5596,-2.5693,-2.5693,-2.5693,-2.5693,-2.5693,-2.5693,-2.5693,-2.5693,-2.5693,-2.5693,-2.5693,-2.5693,-2.5693,-2.5693,-2.5693,-2.5693,-2.5693,-2.5693,-2.5693,-2.5693,-2.5693,-2.5693,-1.4599,-1.4172,-1.4192,-1.457,-1.4717,-1.4873,0.0,0.0,0.0,-1.463,-1.3741,-1.29,-1.2636,-1.2039,-1.1506,-1.1343,-1.159,-1.1799,-1.1745,-1.0562,-0.9686,-0.9583,-0.9593,-0.9628,-0.9723,-1.065,-1.1382,-1.1799,-1.084,-1.0821,-1.2155,-1.2256,-1.2973,-1.4466,-1.475,-1.5044,-1.5391,-1.5625,-1.5724,-1.5784,-1.5784,-1.5784,-1.5784,-1.5784,-1.5784,-1.5784,-1.5784,-1.5784,-1.5784,-1.5784,-1.5784,-1.5784,-1.5784,-1.5784,-1.5784,-1.5784,-1.5784,-1.5784,-1.5784,-1.5784,-1.5784,-1.5784,-1.5784,-1.5784,-1.5784,-1.5804,-1.6215,-1.8232,-2.0896,-2.2869,-2.194,-2.167,-2.1931,-2.2869,-2.3119,-2.3106,-2.3101,-2.3091,-2.3091,-2.3091,-2.3091,-2.312,-2.3208,-2.3555,-2.3965,-2.4463,-2.4844,-2.5234,-2.5635,-2.5693,-2.5693,-2.5693,-2.5693,-2.5693,-2.5693,-2.5693,-2.5693,-2.5693,-2.5693,-2.5693,-2.5693,-2.5693,-2.5693,-2.5693,-2.5693,-2.5693,-2.5693,-2.5693,-2.5693,-2.5693,-2.5693,-2.5693,-1.4862,-1.4434,-1.4114,-1.4172,-1.4502,-1.4795,-1.4844,0.0,-1.5126,-1.4396,0.0,-1.3677,-1.2483,0.0,0.0,-1.1168,-1.1283,-1.139,-1.1129,-1.1132,-1.1035,-1.0656,-1.064,-1.0645,-1.0637,-1.0971,-1.1312,-1.1548,-1.0826,-1.083,-1.1904,-1.2162,-1.2973,-1.4466,-1.4556,-1.4836,-1.5391,-1.5431,-1.5571,-1.5784,-1.5784,-1.5784,-1.5784,-1.5784,-1.5784,-1.5784,-1.5784,-1.5784,-1.5784,-1.5784,-1.5784,-1.5784,-1.5784,-1.5784,-1.5784,-1.5784,-1.5784,-1.5784,-1.5784,-1.5784,-1.5784,-1.5784,-1.5784,-1.5784,-1.5784,-1.5804,-1.5874,-1.6135,-1.9542,-2.2102,-1.775,-1.6639,-1.7697,-2.2048,-2.3111,-2.3079,-2.3096,-2.3091,-2.3091,-2.3091,-2.3091,-2.3218,-2.3652,-2.375,-2.4062,-2.492,-2.5086,-2.5234,-2.5635,-2.5693,-2.5693,-2.5693,-2.5693,-2.5693,-2.5693,-2.5693,-2.5693,-2.5693,-2.5693,-2.5693,-2.5693,-2.5693,-2.5693,-2.5693,-2.5693,-2.5693,-2.5693,-2.5693,-2.5693,-2.5693,-2.5693,-2.5693,-1.5743,-1.5586,-1.5488,-1.4972,-1.5205,-1.5488,-1.5205,-1.5283,-1.5294,-1.4962,0.0,0.0,0.0,0.0,0.0,0.0,-1.1674,-1.1673,-1.1075,0.0,-1.1337,-1.1185,0.0,0.0,-1.1675,-1.1771,-1.1955,-1.2233,-1.1496,-1.1589,-1.283,-1.2494,-1.2906,-1.4219,-1.4436,-1.4723,-1.5137,-1.5258,-1.5438,-1.5784,-1.5784,-1.5784,-1.5784,-1.5784,-1.5784,-1.5784,-1.5784,-1.5784,-1.5784,-1.5784,-1.5784,-1.5784,-1.5784,-1.5784,-1.5784,-1.5784,-1.5784,-1.5784,-1.5784,-1.5784,-1.5784,-1.5784,-1.5784,-1.5784,-1.5784,-1.5792,-1.6373,-1.9259,-1.9464,-1.8378,-1.6331,-1.5821,-1.704,-2.1935,-2.2402,-2.1954,-2.2882,-2.3091,-2.3091,-2.3091,-2.3305,-2.3652,-2.4082,-2.415,-2.4355,-2.5018,-2.5293,-2.5527,-2.5664,-2.5693,-2.5693,-2.5693,-2.5693,-2.5693,-2.5693,-2.5693,-2.5693,-2.5693,-2.5693,-2.5693,-2.5693,-2.5693,-2.5693,-2.5693,-2.5693,-2.5693,-2.5693,-2.5693,-2.5693,-2.5693,-2.5693,-2.5693,-1.6486,-1.6484,-1.6521,-1.5781,-1.586,-1.5977,-1.5508,-1.541,-1.541,-1.541,-1.4932,0.0,0.0,0.0,0.0,0.0,0.0,-1.1551,0.0,-1.089,0.0,0.0,0.0,0.0,0.0,-1.1994,-1.2087,-1.2605,-1.1871,-1.2028,-1.3426,-1.2939,-1.3079,-1.4082,-1.4295,-1.4543,-1.4836,-1.5033,-1.5319,-1.5658,-1.5738,-1.5784,-1.5784,-1.5784,-1.5784,-1.5784,-1.5784,-1.5784,-1.5784,-1.5784,-1.5784,-1.5784,-1.5784,-1.5784,-1.5784,-1.5784,-1.5784,-1.5784,-1.5784,-1.5784,-1.5784,-1.5784,-1.5784,-1.5784,-1.5784,-1.5806,-1.656,-2.011,-1.8559,-1.5818,-1.5819,-1.5785,-1.6689,-2.0239,-2.0904,-2.0962,-2.1898,-2.2359,-2.2618,-2.2751,-2.3063,-2.3582,-2.4456,-2.459,-2.4746,-2.5185,-2.5527,-2.5693,-2.5693,-2.5693,-2.5693,-2.5693,-2.5693,-2.5693,-2.5693,-2.5693,-2.5693,-2.5693,-2.5693,-2.5693,-2.5693,-2.5693,-2.5693,-2.5693,-2.5693,-2.5693,-2.5693,-2.5693,-2.5693,-2.5693,-2.5693,-2.5693,-1.6804,-1.6687,-1.659,-1.6183,-1.6085,-1.5977,-1.5508,-1.541,-1.541,-1.541,-1.5381,-1.4984,-1.3832,0.0,0.0,0.0,0.0,0.0,0.0,0.0,0.0,0.0,0.0,0.0,0.0,-1.1279,-1.1242,0.0,-1.1632,-1.1799,-1.3127,-1.3419,-1.3705,-1.4082,-1.4095,-1.4242,-1.4529,-1.483,-1.5072,-1.5206,-1.5591,-1.5784,-1.5784,-1.5784,-1.5784,-1.5784,-1.5784,-1.5784,-1.5784,-1.5784,-1.5784,-1.5784,-1.5784,-1.5784,-1.5784,-1.5784,-1.5784,-1.5784,-1.5784,-1.5784,-1.5784,-1.5784,-1.5784,-1.5784,-1.5784,-1.5806,-1.5845,-1.5988,-1.59,-1.5798,-1.5778,-1.5818,-1.5832,-1.5999,-1.841,-2.0486,-1.9749,-2.0531,-2.1509,-2.1971,-2.2062,-2.2695,-2.4714,-2.5096,-2.5195,-2.5596,-2.5674,-2.5693,-2.5693,-2.5693,-2.5693,-2.5693,-2.5693,-2.5693,-2.5693,-2.5693,-2.5693,-2.5693,-2.5693,-2.5693,-2.5693,-2.5693,-2.5693,-2.5693,-2.5693,-2.5693,-2.5693,-2.5693,-2.5693,-2.5693,-2.5693,-2.5693,-1.6298,-1.5947,-1.568,-1.5583,-1.5771,-1.6034,-1.6222,-1.6055,-1.587,-1.587,-1.5615,-1.5284,-1.4869,0.0,0.0,0.0,0.0,0.0,0.0,0.0,0.0,0.0,0.0,0.0,0.0,0.0,0.0,0.0,-1.227,0.0,-1.2899,-1.3373,-1.3646,-1.3753,-1.3981,-1.4229,-1.4516,-1.4714,-1.5058,-1.5609,-1.5745,-1.5784,-1.5784,-1.5784,-1.5784,-1.5784,-1.5784,-1.5784,-1.5784,-1.5784,-1.5784,-1.5784,-1.5784,-1.5784,-1.5784,-1.5784,-1.5784,-1.5784,-1.5784,-1.5784,-1.5784,-1.5784,-1.5784,-1.5784,-1.5784,-1.5785,-1.5799,-1.5812,-1.5785,-1.5799,-1.5812,-1.5784,-1.6103,-1.7196,-1.811,-1.8881,-1.9368,-1.9954,-2.0432,-2.0568,-2.1719,-2.2885,-2.359,-2.4717,-2.5566,-2.5664,-2.5693,-2.5693,-2.5693,-2.5693,-2.5693,-2.5693,-2.5693,-2.5693,-2.5693,-2.5693,-2.5693,-2.5693,-2.5693,-2.5693,-2.5693,-2.5693,-2.5693,-2.5693,-2.5693,-2.5693,-2.5693,-2.5693,-2.5693,-2.5693,-2.5693,-2.5693,-1.573,-1.5436,-1.5163,-1.5058,-1.5217,-1.553,-1.6085,-1.6005,-1.5909,-1.6237,-1.5947,-1.5497,-1.5049,-1.5081,0.0,0.0,0.0,0.0,0.0,-0.9735,0.0,0.0,0.0,0.0,0.0,0.0,0.0,0.0,0.0,0.0,0.0,-1.322,-1.3493,-1.36,-1.3935,-1.3998,-1.3732,-1.4329,-1.4925,-1.5514,-1.5718,-1.5785,-1.5784,-1.5784,-1.5784,-1.5784,-1.5784,-1.5784,-1.5784,-1.5784,-1.5784,-1.5784,-1.5784,-1.5784,-1.5784,-1.5784,-1.5784,-1.5784,-1.5784,-1.5784,-1.5784,-1.5784,-1.5784,-1.5784,-1.5784,-1.5784,-1.5852,-1.6068,-1.5966,-1.5804,-1.5795,-1.5803,-1.6069,-1.7135,-1.7581,-1.7807,-1.8279,-1.8848,-1.9352,-1.9606,-2.0752,-2.2002,-2.3081,-2.4226,-2.5177,-2.5635,-2.5274,-2.5177,-2.5635,-2.5274,-2.5177,-2.5635,-2.5693,-2.5693,-2.5693,-2.5693,-2.5693,-2.5693,-2.5693,-2.5693,-2.5693,-2.5693,-2.5693,-2.5693,-2.5693,-2.5693,-2.5693,-2.5693,-2.5693,-2.5693,-2.5693,-2.5693]},{"header":{"parameterUnit":"m.s-1","parameterCategory":1,"la1":30.6,"la2":29.2853,"lo1":-89.7004,"lo2":-87.6739,"dx":0.0162,"dy":0.0183,"nx":112,"ny":82,"refTime":"2022-11-28T18:00:00:Z","depth":0,"parameterNumber":3,"parameterNumberName":"V-component_of_WINDS"},"data":[0.0,0.0,0.0,0.0,0.0,0.0,0.0,0.0,0.0,0.0,0.0,0.0,0.0,0.0,0.0,0.0,0.0,0.0,0.0,0.0,0.0,0.0,0.0,0.0,0.0,0.0,0.0,0.0,0.0,0.0,0.0,0.0,0.0,0.0,0.0,0.0,0.0,0.0,0.0,0.0,0.0,0.0,0.0,0.0,0.0,0.0,0.0,0.0,0.0,0.0,0.0,0.0,0.0,0.0,0.0,0.0,0.0,0.0,0.0,0.0,0.0,0.0,0.0,0.0,0.0,0.0,0.0,0.0,0.0,0.0,0.0,0.0,0.0,0.0,0.0,0.0,0.0,0.0,0.0,0.0,0.0,0.0,0.0,0.0,0.0,0.0,0.0,0.0,0.0,0.0,1.0624,1.0663,1.0701,1.0701,1.0663,1.0663,1.0338,0.956,0.0,0.0,0.0,0.0,0.0,0.0,0.0,0.0,0.0,0.0,0.0,0.0,0.0,0.0,0.0,0.0,0.0,0.0,0.0,0.0,0.0,0.0,0.0,0.0,0.0,0.0,0.0,0.0,0.0,0.0,0.0,0.0,0.0,0.0,0.0,0.0,0.0,0.0,0.0,0.0,0.0,0.0,0.0,0.0,0.0,0.0,0.0,0.0,0.0,0.0,0.0,0.0,0.0,0.0,0.0,0.0,0.0,0.0,0.0,0.0,0.0,0.0,0.0,0.0,0.0,0.0,0.0,0.0,0.0,0.0,0.0,0.0,0.0,0.0,0.0,0.0,0.0,0.0,0.0,0.0,0.0,0.0,0.0,0.0,0.0,0.0,0.0,0.0,0.0,0.0,0.0,0.0,0.0,0.0,0.0,0.0,0.0,0.0,0.0,0.0,0.0,0.0,0.0,0.0,1.0694,1.0911,1.1136,1.1206,1.095,1.095,1.0803,1.0446,0.0,0.0,0.0,0.0,0.0,0.0,0.0,0.0,0.0,0.0,0.0,0.0,0.0,0.0,0.0,0.0,0.0,0.0,0.0,0.0,0.0,0.0,0.0,0.0,0.0,0.0,0.0,0.0,0.0,0.0,0.0,0.0,0.0,0.0,0.0,0.0,0.0,0.0,0.0,0.0,0.0,0.0,0.0,0.0,0.0,0.0,0.0,0.0,0.0,0.0,0.0,0.0,0.0,0.0,0.0,0.0,0.0,0.0,0.0,0.0,0.0,0.0,0.0,0.0,0.0,0.0,0.0,0.0,0.0,0.0,0.0,0.0,0.0,0.0,0.0,0.0,0.0,0.0,0.0,0.0,0.0,0.0,0.0,0.0,0.0,0.0,0.0,0.0,0.0,0.0,0.0,0.0,0.0,0.0,0.0,0.0,0.0,0.0,0.0,0.0,0.0,0.0,0.0,1.1146,1.1132,1.1931,1.1662,1.1347,1.1238,1.109,1.095,1.081,1.0307,0.0,0.0,0.0,0.0,0.0,0.0,0.0,0.0,0.0,0.0,0.0,0.0,0.0,0.0,0.0,0.0,0.0,0.0,0.0,0.0,0.0,0.0,0.0,0.0,0.0,0.0,0.0,0.0,0.0,0.0,0.0,0.0,0.0,0.0,0.0,0.0,0.0,0.0,0.0,0.0,0.0,0.0,0.0,0.0,0.0,0.0,0.0,0.0,0.0,0.0,0.0,0.0,0.0,0.0,0.0,0.0,0.0,0.0,0.0,0.0,0.0,0.0,0.0,0.0,0.0,0.0,0.0,0.0,0.0,0.0,0.0,0.0,0.0,0.0,0.0,0.0,0.0,0.0,0.0,0.0,0.0,0.0,0.0,0.0,0.0,0.0,0.0,0.0,0.0,0.0,0.0,0.0,0.0,0.0,0.0,0.0,0.0,0.0,0.0,0.0,0.0,0.0,1.2123,1.2146,1.322,1.2727,1.2245,1.2196,1.1782,1.1465,1.1323,1.0919,0.0,0.0,0.0,0.0,0.0,0.0,0.0,0.0,0.0,0.0,0.0,0.0,0.0,0.0,0.0,0.0,0.0,0.0,0.0,0.0,0.0,0.0,0.0,0.0,0.0,0.0,0.0,0.0,0.0,0.0,0.0,0.0,0.0,0.0,0.0,0.0,0.0,0.0,0.0,0.0,0.0,0.0,0.0,0.0,0.0,0.0,0.0,0.0,0.0,0.0,0.0,0.0,0.0,0.0,0.0,0.0,0.0,0.0,0.0,0.0,0.0,0.0,0.0,0.0,0.0,0.0,0.0,0.0,0.0,0.0,0.0,0.0,0.0,0.0,0.0,0.0,0.0,0.0,0.0,0.0,0.0,0.0,0.0,0.0,0.0,0.0,0.0,0.0,0.0,0.0,0.0,0.0,0.0,0.0,0.0,0.0,0.0,0.0,0.0,0.0,0.0,0.0,1.3741,1.4047,1.4519,1.4774,1.4805,1.4503,1.3641,1.2912,1.2347,1.1471,0.0,0.0,0.0,0.0,0.0,0.0,0.0,0.0,0.0,0.0,0.0,0.0,0.0,0.0,0.0,0.0,0.0,0.0,0.0,0.0,0.0,0.0,0.0,0.0,0.0,0.0,0.0,0.0,0.0,0.0,0.0,0.0,0.0,0.0,0.0,0.0,0.0,0.0,0.0,0.0,0.0,0.0,0.0,0.0,0.0,0.0,0.0,0.0,0.0,0.0,0.0,0.0,0.0,0.0,0.0,0.0,0.0,0.0,0.0,0.0,0.0,0.0,0.0,0.0,0.0,0.0,0.0,0.0,0.0,0.0,0.0,0.0,0.0,0.0,0.0,0.0,0.0,0.0,0.0,0.0,0.0,0.0,0.0,0.0,0.0,0.0,0.0,0.0,0.0,0.0,0.0,0.0,0.0,0.0,0.0,0.0,0.0,0.0,0.0,0.0,0.0,0.0,1.4612,1.483,1.5773,1.5453,1.5137,1.5019,1.4496,1.3753,1.2758,0.0,0.0,0.0,0.0,0.0,0.0,0.0,0.0,0.0,0.0,0.0,0.0,0.0,0.0,0.0,0.0,0.0,0.0,0.0,0.0,0.0,0.0,0.0,0.0,0.0,0.0,0.0,0.0,0.0,0.0,0.0,0.0,0.0,0.0,0.0,0.0,0.0,0.0,0.0,0.0,0.0,0.0,0.0,0.0,0.0,0.0,0.0,0.0,0.0,0.0,0.0,0.0,0.0,0.0,0.0,0.0,0.0,0.0,0.0,0.0,0.0,0.0,0.0,0.0,0.0,0.0,0.0,0.0,0.0,0.0,0.0,0.0,0.0,0.0,0.0,0.0,0.0,0.0,0.0,0.0,0.0,0.0,0.0,0.0,0.0,0.0,0.0,0.0,0.0,0.0,0.0,0.0,0.0,0.0,0.0,0.0,0.0,0.0,0.0,0.0,0.0,0.0,1.576,1.5679,1.5949,1.693,1.6458,1.607,1.607,1.5596,1.4856,1.3802,0.0,0.0,0.0,0.0,0.0,0.0,0.0,0.0,0.0,0.0,0.0,0.0,0.0,0.0,0.0,0.0,0.0,0.0,0.0,0.0,0.0,0.0,0.0,0.0,0.0,0.0,0.0,0.0,0.0,0.0,0.0,0.0,0.0,0.0,0.0,0.0,0.0,0.0,0.0,0.0,0.0,0.0,0.0,0.0,0.0,0.0,0.0,0.0,0.0,0.0,0.0,0.0,0.0,0.0,0.0,0.0,0.0,0.0,0.0,0.0,0.0,0.0,0.0,0.0,0.0,0.0,0.0,0.0,0.0,0.0,0.0,0.0,0.0,0.0,0.0,0.0,0.0,0.0,0.0,0.0,0.0,0.0,0.0,0.0,0.0,0.0,0.0,0.0,0.0,0.0,0.0,0.0,0.0,0.0,0.0,0.0,0.0,0.0,0.0,0.0,0.0,0.0,1.6636,1.7111,1.7561,1.7964,1.8008,1.8008,1.8008,1.7139,1.6301,0.0,0.0,0.0,0.0,0.0,0.0,0.0,0.0,0.0,0.0,0.0,0.0,0.0,0.0,0.0,0.0,0.0,0.0,0.0,0.0,0.0,0.0,0.0,0.0,0.0,0.0,0.0,0.0,0.0,0.0,0.0,0.0,0.0,0.0,0.0,0.0,0.0,0.0,0.0,0.0,0.0,0.0,0.0,0.0,0.0,0.0,0.0,0.0,0.0,0.0,0.0,0.0,0.0,0.0,0.0,0.0,0.0,0.0,0.0,0.0,0.0,0.0,0.0,0.0,0.0,0.0,0.0,0.0,0.0,0.0,0.0,0.0,0.0,0.0,0.0,0.0,0.0,0.0,0.0,0.0,0.0,0.0,0.0,0.0,0.0,0.0,0.0,0.0,0.0,0.0,0.0,0.0,0.0,0.0,0.0,0.0,0.0,0.0,0.0,0.0,0.0,0.0,0.0,1.6687,1.735,1.7876,1.7974,1.8008,1.8008,1.8008,1.7759,1.7128,1.5993,0.0,0.0,0.0,0.0,0.0,0.0,0.0,0.0,0.0,0.0,0.0,0.0,0.0,0.0,0.0,0.0,0.0,0.0,0.0,0.0,0.0,0.0,0.0,0.0,0.0,0.0,0.0,0.0,0.0,0.0,0.0,0.0,0.0,0.0,0.0,0.0,0.0,0.0,0.0,0.0,0.0,0.0,0.0,0.0,0.0,0.0,0.0,0.0,0.0,0.0,0.0,0.0,0.0,0.0,0.0,0.0,0.0,0.0,0.0,0.0,0.0,0.0,0.0,0.0,0.0,0.0,0.0,0.0,0.0,0.0,0.0,0.0,0.0,0.0,0.0,0.0,0.0,0.0,0.0,0.0,0.0,0.0,0.0,0.0,0.0,0.0,0.0,0.0,0.0,0.0,0.0,0.0,0.0,0.0,0.0,0.0,0.0,0.0,0.0,0.0,0.0,0.0,1.7912,1.8594,1.904,1.904,1.8747,1.8529,1.8529,1.8202,1.761,1.6694,0.0,0.0,0.0,0.0,0.0,0.0,0.0,0.0,0.0,0.0,0.0,0.0,0.0,0.0,0.0,0.0,0.0,0.0,0.0,0.0,0.0,0.0,0.0,0.0,0.0,0.0,0.0,0.0,0.0,0.0,0.0,0.0,0.0,0.0,0.0,0.0,0.0,0.0,0.0,0.0,0.0,0.0,0.0,0.0,0.0,0.0,0.0,0.0,0.0,0.0,0.0,0.0,0.0,0.0,0.0,0.0,0.0,0.0,0.0,0.0,0.0,0.0,0.0,0.0,0.0,0.0,0.0,0.0,0.0,0.0,0.0,0.0,0.0,0.0,0.0,0.0,0.0,0.0,0.0,0.0,0.0,0.0,0.0,0.0,0.0,0.0,0.0,0.0,0.0,0.0,0.0,0.0,0.0,0.0,0.0,0.0,0.0,0.0,0.0,0.0,0.0,0.0,1.9735,2.0301,2.0585,2.0585,1.9879,1.9431,1.9431,1.8687,1.8077,1.7714,0.0,0.0,0.0,0.0,0.0,0.0,0.0,0.0,0.0,0.0,0.0,0.0,0.0,0.0,0.0,0.0,0.0,0.0,0.0,0.0,0.0,0.0,0.0,0.0,0.0,0.0,0.0,0.0,0.0,0.0,0.0,0.0,0.0,0.0,0.0,0.0,0.0,0.0,0.0,0.0,0.0,0.0,0.0,0.0,0.0,0.0,0.0,0.0,0.0,0.0,0.0,0.0,0.0,0.0,0.0,0.0,0.0,0.0,0.0,0.0,1.9791,1.8799,0.0,0.0,0.0,0.0,0.0,0.0,0.0,0.0,0.0,0.0,0.0,0.0,0.0,0.0,0.0,0.0,0.0,0.0,0.0,0.0,0.0,0.0,0.0,0.0,0.0,0.0,0.0,0.0,0.0,0.0,0.0,0.0,0.0,0.0,0.0,0.0,0.0,0.0,0.0,0.0,1.9856,2.0303,2.0598,2.0598,2.044,2.0333,2.0333,2.0139,1.9998,1.9932,1.9561,0.0,0.0,0.0,0.0,0.0,0.0,0.0,0.0,0.0,0.0,0.0,0.0,0.0,0.0,0.0,0.0,0.0,0.0,0.0,0.0,0.0,0.0,0.0,0.0,0.0,0.0,0.0,0.0,0.0,0.0,0.0,0.0,0.0,0.0,0.0,0.0,0.0,0.0,0.0,0.0,0.0,0.0,0.0,0.0,0.0,0.0,0.0,0.0,0.0,0.0,0.0,0.0,0.0,0.0,0.0,0.0,0.0,0.0,0.0,2.0857,2.003,0.0,0.0,0.0,0.0,0.0,0.0,0.0,0.0,0.0,0.0,0.0,0.0,0.0,0.0,0.0,0.0,0.0,0.0,0.0,0.0,0.0,0.0,0.0,0.0,0.0,0.0,0.0,0.0,0.0,0.0,0.0,0.0,0.0,0.0,0.0,0.0,0.0,0.0,0.0,0.0,2.1367,2.1654,2.1803,2.1803,2.1447,2.1239,2.1239,2.0846,2.059,2.059,2.0376,0.0,0.0,0.0,0.0,0.0,0.0,0.0,0.0,0.0,0.0,0.0,0.0,0.0,0.0,0.0,0.0,0.0,0.0,0.0,0.0,0.0,0.0,0.0,0.0,0.0,0.0,0.0,0.0,0.0,0.0,0.0,0.0,0.0,0.0,0.0,0.0,0.0,0.0,0.0,0.0,0.0,0.0,0.0,0.0,0.0,0.0,0.0,0.0,0.0,0.0,0.0,0.0,0.0,2.3501,2.3501,2.3501,2.3501,2.3501,2.3429,2.2034,2.1457,2.1464,2.0745,0.0,0.0,0.0,0.0,0.0,0.0,0.0,0.0,0.0,0.0,0.0,0.0,0.0,0.0,0.0,0.0,0.0,0.0,0.0,0.0,0.0,0.0,2.205,2.2153,2.2178,2.1816,2.047,0.0,0.0,0.0,0.0,0.0,0.0,0.0,0.0,0.0,0.0,0.0,2.2955,2.3108,2.3108,2.3108,2.2506,2.2094,2.2094,2.1459,2.1037,2.1037,2.1037,2.078,0.0,0.0,0.0,0.0,0.0,0.0,0.0,0.0,0.0,0.0,0.0,0.0,0.0,0.0,0.0,0.0,0.0,0.0,0.0,0.0,0.0,0.0,0.0,0.0,0.0,0.0,0.0,0.0,0.0,0.0,0.0,0.0,2.0901,2.1856,0.0,0.0,0.0,0.0,0.0,0.0,0.0,0.0,0.0,0.0,0.0,0.0,0.0,2.4452,2.5091,2.5091,2.5091,2.5091,2.5091,2.5091,2.5091,2.5091,2.5091,2.5091,2.4867,0.0,2.2832,2.2742,0.0,0.0,0.0,0.0,0.0,0.0,0.0,0.0,0.0,0.0,0.0,0.0,0.0,0.0,0.0,0.0,0.0,0.0,0.0,0.0,0.0,0.0,2.4231,2.475,2.4887,2.4651,2.3827,2.242,2.1316,2.1269,2.1401,2.1446,0.0,0.0,0.0,0.0,0.0,0.0,2.3065,2.3108,2.3108,2.3108,2.3017,2.2944,2.2944,2.2854,2.275,2.275,2.275,2.2439,2.1677,2.1793,0.0,0.0,0.0,0.0,0.0,0.0,0.0,0.0,0.0,0.0,0.0,0.0,0.0,0.0,0.0,0.0,0.0,0.0,0.0,0.0,0.0,0.0,0.0,0.0,0.0,0.0,0.0,0.0,0.0,2.2023,2.3004,2.3482,2.3854,2.4131,0.0,0.0,0.0,0.0,0.0,0.0,0.0,0.0,0.0,2.537,2.5091,2.5063,2.5398,2.5398,2.5398,2.5398,2.5398,2.5398,2.5398,2.5398,2.5398,2.5398,2.5398,2.5007,2.4381,2.4381,2.4381,2.4381,0.0,0.0,0.0,0.0,2.3894,2.3681,2.3681,2.3889,2.4123,2.3784,0.0,0.0,0.0,0.0,0.0,0.0,0.0,2.3811,2.4353,2.4764,2.508,2.5329,2.5398,2.5315,2.4979,2.4265,2.3365,2.2179,2.2549,2.2829,2.2082,2.2397,0.0,0.0,0.0,2.3108,2.3108,2.3108,2.3108,2.3108,2.3108,2.3108,2.3108,2.3108,2.3108,2.3108,2.3108,2.2944,2.2598,2.2392,2.1865,0.0,0.0,0.0,0.0,0.0,0.0,0.0,0.0,0.0,0.0,0.0,0.0,0.0,0.0,0.0,0.0,0.0,0.0,0.0,0.0,0.0,0.0,0.0,0.0,0.0,0.0,0.0,0.0,2.3657,2.4567,2.4707,2.5149,2.5398,0.0,0.0,0.0,0.0,0.0,0.0,2.5673,2.5508,2.5563,2.5946,2.5783,2.5783,2.5973,2.5973,2.5973,2.5973,2.5973,2.5973,2.5973,2.5973,2.5973,2.5973,2.5973,2.5973,2.5932,2.5563,2.5398,2.5398,2.5398,2.5398,2.5398,2.5398,2.5398,2.5398,2.5398,2.5508,2.5604,2.5142,2.5015,2.4931,2.4535,0.0,0.0,0.0,0.0,2.5126,2.5548,2.581,2.5973,2.5973,2.5973,2.5919,2.5728,2.5837,2.5383,2.3456,2.3891,2.4248,2.3256,2.3271,0.0,2.3414,2.3398,2.3335,2.3138,2.3275,2.3335,2.3138,2.3108,2.3108,2.3108,2.3108,2.3108,2.3108,2.3108,2.3108,2.3108,2.2913,2.2725,2.2585,0.0,0.0,0.0,0.0,0.0,0.0,0.0,0.0,0.0,0.0,0.0,0.0,0.0,0.0,0.0,0.0,0.0,0.0,0.0,0.0,0.0,0.0,0.0,0.0,0.0,0.0,0.0,0.0,0.0,2.5273,2.5384,0.0,0.0,0.0,0.0,2.5398,2.5398,2.5701,2.6404,2.5783,2.6054,2.7458,2.68,2.6774,2.7484,2.7484,2.7484,2.7484,2.7484,2.7484,2.7484,2.7484,2.7484,2.7484,2.7484,2.7484,2.7382,2.5973,2.5398,2.5398,2.5398,2.5398,2.5398,2.5398,2.5398,2.5398,2.5398,2.5864,2.6443,2.6414,2.64,2.64,2.6371,2.5861,0.0,0.0,2.5849,2.6414,2.6443,2.6956,2.7484,2.7484,2.7484,2.7306,2.659,2.6982,2.7045,2.5549,2.5304,2.5325,2.5259,0.0,2.4253,2.4253,2.4253,2.3972,2.3198,2.3767,2.3943,2.3198,2.3108,2.3108,2.3108,2.3108,2.3108,2.3108,2.3108,2.3108,2.3108,2.38,2.3918,2.3367,2.4014,0.0,0.0,0.0,0.0,0.0,0.0,0.0,0.0,0.0,0.0,0.0,0.0,0.0,0.0,0.0,0.0,0.0,0.0,0.0,0.0,0.0,0.0,0.0,0.0,0.0,0.0,0.0,0.0,2.6782,2.6811,0.0,2.6811,2.6811,2.6811,2.6811,2.6811,2.6916,2.7188,2.6956,2.706,2.7575,2.7331,2.7331,2.76,2.76,2.76,2.76,2.76,2.76,2.76,2.76,2.76,2.76,2.76,2.76,2.756,2.7019,2.6811,2.6811,2.6811,2.6811,2.6811,2.6811,2.6811,2.6811,2.6811,2.6982,2.7203,2.7203,2.7203,2.7203,2.7203,2.7034,2.6811,2.6811,2.7008,2.7203,2.7203,2.7408,2.76,2.76,2.76,2.7524,2.7255,2.7408,2.7433,2.6916,2.6443,2.5952,2.5485,2.5169,2.4998,2.5016,2.5017,2.4894,2.461,2.5204,2.5549,2.5246,2.5569,2.5813,2.5813,2.5461,2.5217,2.5217,2.4811,2.4582,2.4582,2.4866,2.4912,2.4681,2.4957,2.4776,0.0,0.0,0.0,0.0,0.0,0.0,0.0,0.0,0.0,0.0,0.0,0.0,0.0,0.0,0.0,0.0,0.0,0.0,0.0,0.0,0.0,0.0,0.0,0.0,0.0,2.7049,2.76,2.76,2.76,2.76,2.76,2.76,2.7685,2.7885,2.791,2.7993,2.8198,2.8222,2.8222,2.8222,2.8222,2.8222,2.8222,2.8222,2.8222,2.8222,2.8222,2.8222,2.8222,2.8222,2.8222,2.8222,2.8222,2.8076,2.791,2.791,2.791,2.787,2.7685,2.76,2.76,2.76,2.76,2.76,2.76,2.76,2.76,2.76,2.76,2.765,2.7835,2.776,2.7635,2.786,2.776,2.76,2.76,2.76,2.76,2.76,2.76,2.76,2.76,2.7779,2.794,2.7936,2.7349,2.6718,2.6246,2.5948,2.5859,2.6063,2.612,2.6078,2.6049,2.6651,2.6988,2.673,2.7077,2.7299,2.7299,2.6923,2.6701,2.6701,2.609,2.573,2.573,2.5757,2.5755,2.5755,2.6027,2.5948,2.5533,0.0,0.0,0.0,0.0,0.0,0.0,0.0,0.0,0.0,0.0,0.0,0.0,0.0,0.0,0.0,0.0,0.0,0.0,0.0,0.0,0.0,0.0,0.0,2.7685,2.7625,2.7625,2.76,2.7625,2.7625,2.7625,2.765,2.791,2.8487,2.8535,2.8779,2.9361,2.9406,2.9406,2.9406,2.9406,2.9406,2.9406,2.9406,2.9406,2.9406,2.9406,2.9406,2.9406,2.9406,2.9406,2.9406,2.9406,2.9081,2.8535,2.8535,2.8535,2.8463,2.786,2.765,2.766,2.766,2.766,2.766,2.766,2.766,2.766,2.766,2.766,2.776,2.8343,2.8116,2.7785,2.8367,2.8091,2.7625,2.764,2.7655,2.763,2.766,2.766,2.7685,2.7685,2.8184,2.8651,2.8657,2.8117,2.766,2.7649,2.7079,2.6828,2.7466,2.7564,0.0,2.7376,2.8025,2.8183,2.7474,2.7429,2.7443,2.7443,2.74,2.7386,2.7386,2.6843,2.6509,2.6509,2.6546,2.6594,2.6566,2.7244,2.76,2.76,0.0,0.0,0.0,0.0,0.0,0.0,0.0,0.0,0.0,0.0,0.0,0.0,0.0,0.0,0.0,0.0,0.0,0.0,0.0,0.0,0.0,2.8631,2.8787,2.776,2.7984,2.8091,2.7635,2.8008,2.8262,2.8262,2.8662,2.8973,2.9134,2.9157,2.9225,2.9384,2.9406,2.9406,2.9406,2.9406,2.9406,2.9406,2.9406,2.9406,2.9406,2.9406,2.9406,2.9406,2.9406,2.9406,2.9406,2.9406,2.9293,2.9157,2.9157,2.9157,2.9088,2.8487,2.8519,2.8904,2.8904,2.8904,2.8904,2.8904,2.8904,2.8904,2.8904,2.8904,2.8927,2.9111,2.9042,2.895,2.9111,2.8709,2.8369,2.8861,2.8637,2.8442,2.8933,2.9052,2.9196,2.9679,2.9527,2.9456,2.9959,2.949,2.9053,2.9044,2.8882,2.8797,2.8985,2.9034,2.9015,2.897,2.9537,2.9831,2.9647,3.0074,3.0367,3.0367,2.9912,2.9618,2.9618,2.9046,2.8723,2.8723,2.8724,2.8521,2.8021,2.7737,2.76,0.0,0.0,0.0,0.0,0.0,0.0,0.0,0.0,0.0,0.0,0.0,0.0,0.0,0.0,0.0,0.0,0.0,0.0,0.0,0.0,0.0,0.0,2.9384,2.9435,2.8496,2.8662,2.8756,2.84,2.8662,2.8873,2.8873,2.918,2.9496,2.9761,2.9783,2.9908,3.0145,3.0145,3.0145,3.0145,3.0145,3.0145,3.0145,3.0145,3.0314,3.0592,3.0592,3.0773,3.109,3.109,3.109,3.109,3.109,3.092,3.0697,3.0697,3.0697,3.0587,0.0,0.0,0.0,0.0,2.9406,2.9406,2.9406,2.9406,2.9406,2.9406,2.9406,2.9499,3.0073,3.0064,2.9993,3.0548,3.0263,2.9887,3.0272,3.0111,2.996,3.0361,3.0454,3.0541,3.0939,3.0922,3.0881,3.1006,3.0937,0.0,3.0438,2.9937,2.9679,2.9924,2.9988,3.0073,3.0357,3.0717,3.0913,3.0913,3.1271,3.1511,3.1511,3.1137,0.0,0.0,0.0,2.9849,2.9621,2.9606,0.0,0.0,0.0,2.8438,2.8438,2.8438,0.0,0.0,2.7594,2.741,0.0,0.0,0.0,0.0,0.0,0.0,0.0,0.0,0.0,0.0,0.0,0.0,0.0,0.0,0.0,0.0,3.0016,3.0208,2.9673,2.9607,2.9563,2.9406,2.9451,2.9496,2.9496,2.9563,2.9827,3.0356,3.0414,3.0638,3.1171,3.119,0.0,0.0,0.0,3.136,3.1444,3.1444,3.1765,3.2429,3.2429,3.2763,3.3406,3.3406,3.3406,3.3406,3.3406,3.3096,3.2585,3.2585,3.2585,3.2425,3.0579,2.9849,2.9849,2.9849,2.9849,2.9849,2.9849,0.0,0.0,2.9849,2.9849,3.0073,3.1259,3.1242,3.1079,3.227,3.2161,3.1733,3.1774,3.1758,3.1726,3.1807,3.1823,3.1847,3.1919,3.2296,3.2472,3.2017,3.23,3.2426,3.1843,3.0657,3.0,3.0528,3.0612,3.0836,3.1421,3.1511,3.1511,3.1511,3.1511,0.0,3.1511,3.1511,3.1511,3.1511,3.0928,3.0372,2.9846,2.9729,2.9711,2.9711,2.9636,2.9606,2.9606,2.9606,2.9606,2.9577,2.8378,2.7824,0.0,0.0,0.0,0.0,0.0,0.0,0.0,0.0,0.0,0.0,0.0,0.0,0.0,0.0,0.0,3.0208,3.0638,3.0995,3.0858,3.0858,3.0497,2.9518,2.9827,3.0123,3.0123,3.0576,3.0898,3.1015,3.1035,3.1092,3.119,3.119,3.1461,3.2073,3.209,3.2357,3.2966,3.2983,3.3051,3.3186,3.3186,0.0,3.3406,3.3406,3.3406,3.3406,3.3406,3.3343,3.322,3.322,3.322,3.3186,3.2777,3.2634,3.2634,3.2634,3.2634,3.2634,3.2634,3.2634,3.2634,3.2634,3.2634,3.2672,3.2929,3.292,0.0,3.3148,3.2779,3.2446,3.2997,3.2772,3.2552,3.3063,3.3207,3.3358,3.39,3.3269,3.2888,3.3833,3.3251,3.2739,3.3129,3.205,3.1171,3.1301,3.1316,3.1346,3.1481,3.1511,3.1511,3.1511,3.1511,3.1511,3.1511,3.1511,3.1511,3.1511,3.1376,3.1256,3.1137,3.0612,3.0328,3.0328,2.9834,2.9606,2.9606,2.9606,2.9606,2.9592,2.9337,2.9217,0.0,0.0,0.0,0.0,0.0,0.0,0.0,0.0,0.0,0.0,0.0,3.0673,3.0751,0.0,3.1095,3.0797,3.1015,3.119,3.119,3.119,3.0975,3.0372,3.0559,3.074,3.074,3.1015,3.119,3.119,3.1529,3.1752,3.1752,3.2087,3.2459,3.2831,3.2848,3.3034,3.3406,3.3406,3.3592,3.3947,3.3947,3.415,3.4484,3.4484,3.4484,3.4484,3.4484,3.4484,3.4484,3.4484,3.4484,3.4484,3.4484,3.4066,3.3406,3.3406,3.3406,3.3406,3.3406,3.3406,3.3406,3.3406,3.3406,3.3474,3.3846,3.3947,3.4032,3.4404,3.4292,3.4135,3.4464,3.434,3.4188,3.4526,3.4609,3.4704,3.5028,3.4568,3.4211,3.4549,3.4056,3.3594,3.3598,3.2748,3.206,3.2039,3.1732,3.1511,3.1511,3.1511,3.1511,3.1511,3.1511,3.1511,3.1511,3.1511,3.1511,3.1511,3.1511,3.1511,3.1511,3.1182,3.0987,3.0987,3.0688,3.0552,3.0552,3.0552,3.0552,3.0552,3.0552,3.0208,0.0,0.0,0.0,0.0,0.0,0.0,0.0,2.9888,3.0311,3.0311,3.0784,3.119,3.119,3.119,3.119,3.119,3.119,3.119,3.119,3.119,3.119,3.119,3.119,3.119,3.119,3.1326,3.141,3.141,3.2107,3.2513,3.2513,3.3068,3.3474,3.3609,3.3609,3.3694,3.3846,3.3846,3.4134,3.4709,3.4709,3.503,3.56,3.56,3.56,3.56,3.56,3.56,3.56,3.56,3.56,3.56,3.56,3.4873,3.3846,3.3846,3.3846,3.3846,3.3846,3.3846,3.3846,3.3846,3.3846,3.3947,3.4539,3.4709,3.4844,3.543,3.56,3.56,3.56,3.56,3.56,3.56,3.56,3.56,3.56,3.5492,3.5276,3.4871,3.4685,3.448,3.405,3.3425,3.2913,3.264,3.1983,3.1511,3.1511,3.1511,3.1511,3.1511,3.1511,3.1511,3.1511,3.1511,3.1511,3.1511,3.1511,3.1511,3.1511,3.1511,3.1511,3.1511,3.1511,3.1511,3.1511,3.1511,3.1511,3.1511,3.1511,3.0943,2.6744,2.7775,2.888,2.9692,2.9897,3.0065,0.0,3.1021,3.1072,3.1072,3.114,3.119,3.119,3.119,3.119,3.119,3.119,3.119,3.119,3.119,3.119,3.119,3.119,3.119,3.119,3.1802,3.2175,3.2175,3.2848,3.3288,3.3288,3.3372,3.3694,3.4353,3.437,3.4692,3.5346,3.5346,3.5397,3.5481,3.5481,3.5515,3.56,3.56,3.56,3.56,3.56,3.56,3.56,3.56,3.56,3.56,3.56,3.5498,3.5346,3.5346,3.5346,3.5346,3.5346,3.5346,3.5346,3.5346,3.5346,3.5363,3.5447,3.5481,3.5481,3.5583,3.56,3.56,3.56,3.56,3.56,3.56,3.56,3.56,3.56,3.5121,3.4871,3.5385,3.5002,3.4767,3.5301,3.4816,3.3973,3.2767,3.1983,3.1511,3.1511,3.1511,3.1511,3.1511,3.1511,3.1511,3.1511,3.1511,3.1511,3.1511,3.1511,3.1511,3.1511,3.1511,3.1511,3.1511,3.1511,3.1511,3.1511,3.1511,3.1511,3.1511,3.1511,3.1421,2.8581,2.9231,2.982,3.0565,3.0734,3.0818,3.1123,3.119,3.119,3.119,3.119,3.119,3.119,3.119,3.119,3.119,3.119,3.119,3.119,3.119,3.136,3.1802,3.1853,3.1853,3.1853,3.251,3.2933,3.2933,3.3626,3.4032,3.4032,3.4455,3.4805,3.5131,3.5148,3.5301,3.56,3.56,3.56,3.56,3.56,3.56,3.56,3.56,3.56,3.56,3.56,3.56,3.56,3.56,3.56,3.56,3.56,3.56,3.56,3.56,3.56,3.56,3.56,3.56,3.56,3.56,3.56,3.56,3.56,3.56,3.56,3.56,3.56,3.56,3.56,3.56,3.56,3.56,3.56,3.56,3.56,3.5385,3.5253,3.5554,3.5375,3.5261,3.5549,3.5043,3.4416,3.3841,3.2848,3.2148,3.2148,3.1768,3.1511,3.1511,3.1511,3.1511,3.1511,3.1511,3.1511,3.1511,3.1511,3.1511,3.1511,3.1511,3.1682,3.2148,3.2148,3.2339,3.2718,3.2339,3.2148,3.2148,3.1697,3.171,3.0097,3.0412,3.0531,3.1072,3.119,3.119,3.119,3.119,3.119,3.119,3.119,3.119,3.119,3.119,3.119,3.119,3.119,3.119,3.119,3.1376,3.1701,3.2242,3.2666,3.2919,3.2919,3.3389,3.3711,3.3711,3.4387,3.4793,3.4793,3.5295,3.56,3.56,3.56,3.56,3.56,3.56,3.56,3.56,3.56,3.56,3.56,3.56,3.56,3.56,3.56,3.56,3.56,3.56,3.56,3.56,3.56,3.56,3.56,3.56,3.56,3.56,3.56,3.56,3.56,3.56,3.56,3.56,3.56,3.56,3.56,3.56,3.56,3.56,3.56,3.56,3.56,3.56,3.56,3.56,3.56,3.56,3.56,3.56,3.56,3.56,3.56,3.5206,3.488,3.488,3.3893,3.3082,3.2906,3.2244,3.171,3.1524,3.1511,3.1511,3.1511,3.1511,3.1511,3.1511,3.1511,3.1511,3.1511,3.1511,3.1739,3.2272,3.2492,3.2841,3.3313,3.3013,3.2868,3.2868,3.2539,3.2672,3.097,3.1157,3.1157,3.119,3.119,3.119,3.119,3.119,3.119,3.119,3.119,3.119,3.119,3.119,3.119,3.119,3.119,3.119,3.119,3.1819,3.2276,3.2293,3.3563,3.4421,3.4421,3.4438,3.4455,3.4455,3.5165,3.5566,3.5566,3.5583,3.56,3.56,3.56,3.56,3.56,3.56,3.56,3.56,3.56,3.56,3.56,3.56,3.56,3.56,3.56,3.56,3.56,3.56,3.56,3.56,3.56,3.56,3.56,3.56,3.56,3.56,3.56,3.56,3.56,3.56,3.56,3.56,3.56,3.56,3.56,3.56,3.56,3.56,3.56,3.56,3.56,3.56,3.56,3.56,3.56,3.56,3.56,3.56,3.56,3.56,3.56,3.5583,3.5583,3.5583,3.4998,3.4286,3.3662,3.2986,3.2299,3.1582,3.1511,3.1511,3.1511,3.1511,3.1511,3.1511,3.1511,3.1511,3.1511,3.1511,3.1511,3.1524,3.2259,3.2614,3.2641,3.3261,3.3572,3.3588,3.4276,3.4622,3.1626,3.1824,3.1914,3.1349,3.1391,3.1603,3.1603,3.1603,3.1695,3.2003,3.2056,3.2056,3.2056,3.1806,3.1603,3.1603,3.1372,3.119,3.119,3.1836,3.2479,3.2966,3.3897,3.4692,3.5182,3.5233,3.5233,3.5233,3.5447,3.56,3.56,3.56,3.56,3.56,3.56,3.56,3.56,3.56,3.56,3.56,3.5963,3.6139,3.6139,3.6501,3.6646,3.6646,3.6646,3.6646,3.6646,3.6646,3.644,3.6139,3.6139,3.592,3.56,3.56,3.56,3.56,3.56,3.56,3.56,3.56,3.56,3.56,3.56,3.56,3.56,3.56,3.56,3.56,3.56,3.56,3.56,3.56,3.56,3.56,3.56,3.56,3.56,3.56,3.56,3.56,3.56,3.56,3.56,3.56,3.5027,3.4363,3.3694,3.3391,3.3156,3.2917,3.2504,3.2216,3.2216,3.2216,3.2216,3.2216,3.3099,3.3607,3.3607,3.4085,3.4569,3.5011,3.5249,3.5619,3.6116,3.5849,3.5731,3.5731,3.5534,3.5673,3.2127,3.2264,3.2367,3.1805,3.186,3.2039,3.2039,3.2039,3.2144,3.2451,3.2501,3.2501,3.2501,3.2127,3.1844,3.2022,3.1695,3.1468,3.1638,3.2536,3.3382,3.3825,3.4826,3.5652,3.6113,3.6165,3.6011,3.5644,3.56,3.56,3.56,3.56,3.5694,3.5876,3.5876,3.5876,3.5876,3.5876,3.5876,3.5898,3.6437,3.6684,3.6704,3.7039,3.7209,3.7209,3.7209,3.7209,3.7209,3.7209,3.6999,3.6684,3.6684,3.6354,3.5876,3.5876,3.5761,3.56,3.56,3.56,3.56,3.56,3.56,3.56,3.56,3.56,3.56,3.56,3.56,3.56,3.56,3.56,3.56,3.56,3.56,3.56,3.56,3.56,3.56,3.56,3.56,3.56,3.56,3.5853,3.613,3.6383,3.6071,3.5429,3.4468,3.4351,3.4371,3.438,3.4005,3.3751,3.3751,3.3751,3.3751,3.3751,3.4595,3.5102,3.5102,3.5546,3.6002,3.6434,3.6682,3.702,3.75,3.7294,3.7186,3.7178,3.703,3.7171,3.2534,3.255,3.255,3.2517,3.2517,3.2534,3.2534,3.2534,3.2534,3.2567,3.2567,3.2567,3.2567,3.2179,3.2022,3.2467,3.2144,3.1986,3.2434,3.3827,3.4801,3.4801,3.6218,3.7209,3.7209,3.7209,3.6766,3.5761,3.5672,3.5672,3.5672,3.5672,3.592,3.6416,3.6437,3.6437,3.6437,3.6437,3.6437,3.6437,3.6981,3.7247,3.7247,3.7248,3.7284,3.7284,3.7284,3.7284,3.7284,3.7284,3.7266,3.7247,3.7247,3.6921,3.6437,3.6437,3.6118,3.5672,3.5672,3.5644,3.56,3.56,3.56,3.56,3.56,3.56,3.56,3.56,3.56,3.56,3.56,3.56,3.56,3.56,3.56,3.56,3.56,3.56,3.56,3.56,3.5616,3.5673,3.5707,3.635,3.7109,3.7804,3.7899,3.7378,3.6001,3.582,3.5841,3.591,3.5868,3.5868,3.5868,3.5868,3.5868,3.5868,3.5927,3.597,3.597,3.6002,3.6018,3.6018,3.6626,3.6976,3.6976,3.7666,3.8024,3.8041,3.8717,3.9056,3.3105,3.324,3.3314,3.2665,3.2761,3.3014,3.3014,3.3014,3.3105,3.3419,3.3462,3.3462,3.3462,3.3136,3.2887,3.2999,3.2632,3.2349,3.2484,3.3827,3.4801,3.4801,3.6218,3.7209,3.7209,3.7209,3.7078,3.6805,3.6786,3.6786,3.6786,3.6786,3.6845,3.6981,3.6999,3.6999,3.6999,3.6999,3.6999,3.7001,3.7488,3.772,3.7737,3.8152,3.8318,3.8318,3.8318,3.8318,3.8318,3.8318,3.8083,3.772,3.772,3.7433,3.6999,3.6999,3.6921,3.6786,3.6786,3.627,3.56,3.56,3.56,3.56,3.56,3.56,3.56,3.56,3.56,3.56,3.56,3.56,3.56,3.56,3.56,3.56,3.56,3.56,3.56,3.56,3.6067,3.6667,3.7228,3.7483,3.7684,3.7869,3.7907,3.7769,3.7403,3.7345,3.7364,3.736,3.6868,3.6554,3.6554,3.6554,3.6554,3.6554,3.7576,3.8162,3.8162,3.8706,3.899,3.899,3.916,3.9278,3.9278,3.9462,3.9554,3.9529,3.974,3.9825,3.3522,3.3638,3.3675,3.3178,3.327,3.3465,3.3465,3.3465,3.3522,3.3748,3.3807,3.3807,3.3807,3.348,3.3258,3.3419,3.309,3.2856,3.306,3.4441,3.5465,3.5465,3.6888,3.7861,3.7861,3.7861,3.7861,3.7861,3.7451,3.7209,3.7209,3.7209,3.7285,3.7506,3.7506,3.7506,3.7506,3.7506,3.7506,3.7506,3.8015,3.8251,3.8267,3.8562,3.8707,3.8707,3.8707,3.8707,3.8707,3.8707,3.8512,3.8251,3.8251,3.7947,3.7506,3.7506,3.7378,3.7209,3.7209,3.6805,3.6295,3.6295,3.6143,3.5963,3.5963,3.5783,3.56,3.56,3.56,3.56,3.56,3.56,3.56,3.56,3.56,3.56,3.56,3.5893,3.6231,3.6546,3.6965,3.7505,3.8247,3.8389,3.8472,3.8824,3.8865,3.8863,3.887,3.8582,3.8514,3.8819,3.8505,3.8254,3.8254,3.8254,3.8254,3.8254,3.9017,3.9486,3.9486,3.9893,4.0096,4.0096,4.0096,4.0096,4.0096,4.0096,4.0096,4.0096,4.0096,4.0096,3.3793,3.3807,3.3807,3.3807,3.3807,3.3807,3.3807,3.3807,3.3807,3.3807,3.3807,3.3807,3.3807,3.3508,3.339,3.3734,3.3508,3.339,3.3748,3.5238,3.6303,3.6303,3.7716,3.8707,3.8707,3.8707,3.8707,3.8707,3.7878,3.7396,3.7396,3.7396,3.7596,3.798,3.8015,3.8015,3.8015,3.8015,3.8015,3.7997,3.8481,3.8707,3.8707,3.8707,3.8707,3.8707,3.8707,3.8707,3.8707,3.8707,3.8707,3.8707,3.8707,3.8433,3.8015,3.8015,3.7755,3.7396,3.7396,3.7396,3.7377,3.7229,3.6882,3.6498,3.6416,3.6075,3.5694,3.5622,3.56,3.56,3.56,3.56,3.56,3.56,3.56,3.5616,3.5735,3.6383,3.7144,3.7905,3.8053,3.8273,3.903,3.9149,3.9354,4.0003,4.0096,4.0096,4.0096,3.9529,3.9402,4.0028,4.0096,4.0096,4.0096,4.0096,4.0096,4.0096,4.0096,4.0096,4.0096,4.0096,4.0096,4.0096,4.0096,4.0096,4.0096,4.0096,4.0096,4.0096,4.0096,4.0096,3.3707,3.3807,3.3807,3.3807,3.3807,3.3807,3.3807,3.3807,3.3807,3.3807,3.3807,3.3807,3.3807,3.3734,3.3721,3.3793,3.3734,3.3721,3.3775,3.5238,3.6303,3.6303,3.7716,3.8707,3.8707,3.8707,3.8707,3.8707,3.853,3.8433,3.8433,3.8433,3.8483,3.8562,3.8562,3.8562,3.8562,3.8562,3.8562,3.8562,3.8676,3.8707,3.8707,3.8707,3.8707,3.8707,3.8707,3.8707,3.8707,3.8707,3.8707,3.8707,3.8707,3.8643,3.8562,3.8562,3.8515,3.8433,3.8433,3.8433,3.8302,3.7469,3.7152,3.698,3.6522,3.635,3.6182,3.5717,3.56,3.56,3.56,3.56,3.56,3.56,3.56,3.5769,3.6434,3.7178,3.7922,3.8667,3.8809,3.9037,3.979,3.9926,3.9944,4.0096,4.0096,4.0096,4.0096,3.9994,3.996,4.0096,4.0096,4.0096,4.0096,4.0096,4.0096,4.0096,4.0096,4.0096,4.0096,4.0096,4.0096,4.0096,4.0096,4.0096,4.0096,4.0096,4.0096,4.0096,4.0096,4.0096,3.3694,3.3807,3.3807,3.3807,3.3807,3.3807,3.3807,3.3807,3.3807,3.3807,3.3807,3.3807,3.3807,3.3807,3.3807,3.3807,3.3807,3.3807,3.3807,3.5238,3.6303,3.6303,3.7716,3.8707,3.8707,3.8707,3.8707,3.8707,3.8707,3.8707,3.8707,3.8707,3.8707,3.8707,3.8707,3.8707,3.8707,3.8707,3.8707,3.8707,3.8707,3.8707,3.8707,3.8707,3.8707,3.8707,3.8707,3.8707,3.8707,3.8707,3.8707,3.8707,3.8707,3.8707,3.8707,3.8707,3.8707,3.8707,3.8707,3.8707,3.8627,3.8135,3.779,3.747,3.6962,3.6623,3.6287,3.5761,3.56,3.56,3.56,3.56,3.5701,3.6129,3.6518,3.7026,3.777,3.821,3.8684,3.9436,3.9554,3.9681,4.0045,4.0096,4.0096,4.0096,4.0096,4.0096,4.0096,4.0096,4.0096,4.0096,4.0096,4.0096,4.0096,4.0096,4.0096,4.0096,4.0096,4.0096,4.0096,4.0096,4.0096,4.0096,4.0096,4.0096,4.0096,4.0096,4.0096,4.0096,4.0096,4.0096,3.3694,3.3807,3.3807,3.3807,3.3807,3.3807,3.3807,3.3807,3.3807,3.3807,3.3807,3.3807,3.3807,3.3807,3.3807,3.3807,3.3807,3.3807,3.3807,3.5238,3.6303,3.6303,3.7716,3.8707,3.8707,3.8707,3.8707,3.8707,3.8707,3.8707,3.8707,3.8707,3.8707,3.8707,3.8707,3.8707,3.8707,3.8707,3.8707,3.8707,3.8707,3.8707,3.8707,3.8707,3.8707,3.8707,3.8707,3.8707,3.8707,3.8707,3.8707,3.8707,3.8707,3.8707,3.8707,3.8707,3.8707,3.8707,3.8707,3.8707,3.8707,3.8707,3.8415,3.7963,3.7378,3.6902,3.6437,3.5766,3.56,3.56,3.56,3.5718,3.6062,3.684,3.7601,3.8294,3.887,3.9106,3.9419,3.9994,4.0096,4.0096,4.0096,4.0096,4.0096,4.0096,4.0096,4.0096,4.0096,4.0096,4.0096,4.0096,4.0096,4.0096,4.0096,4.0096,4.0096,4.0096,4.0096,4.0096,4.0096,4.0096,4.0096,4.0096,4.0096,4.0096,4.0096,4.0096,4.0096,4.0096,4.0096,4.0096,3.3694,3.3807,3.3807,3.3807,3.3807,3.3807,3.3807,3.3807,3.3807,3.3807,3.3807,3.3807,3.3807,3.3807,3.3807,3.3807,3.3807,3.3807,3.3807,3.5238,3.6303,3.6303,3.7716,3.8707,3.8707,3.8707,3.8707,3.8707,3.8707,3.8707,3.8707,3.8707,3.8707,3.8707,3.8707,3.8707,3.8707,3.8707,3.8707,3.8707,3.8707,3.8707,3.8707,3.8707,3.8707,3.8707,3.8707,3.8707,3.8707,3.8707,3.8707,3.8707,3.8707,3.8707,3.8707,3.8707,3.8707,3.8707,3.8707,3.8707,3.8707,3.8707,3.8676,3.8449,3.7487,3.7171,3.6904,3.5898,3.56,3.56,3.56,3.6146,3.6897,3.7618,3.8362,3.8903,3.8988,3.9537,4.0028,4.0096,4.0096,4.0096,4.0096,4.0096,4.0096,4.0096,4.0096,4.0096,4.0096,4.0096,4.0096,4.0096,4.0096,4.0096,4.0096,4.0096,4.0096,4.0096,4.0096,4.0096,4.0096,4.0096,4.0096,4.0096,4.0096,4.0096,4.0096,4.0096,4.0096,4.0096,4.0096,4.0096,3.3606,3.3807,3.3807,3.3807,3.3807,3.3807,3.3807,3.3807,3.3807,3.3807,3.3807,3.3807,3.3807,3.3807,3.3807,3.3807,3.3807,3.3807,3.3807,3.5238,3.6303,3.6303,3.7716,3.8707,3.8707,3.8707,3.8707,3.8707,3.8707,3.8707,3.8707,3.8707,3.8707,3.8707,3.8707,3.8707,3.8707,3.8707,3.8707,3.8707,3.8707,3.8707,3.8707,3.8707,3.8707,3.8707,3.8707,3.8707,3.8707,3.8707,3.8707,3.8707,3.8707,3.8707,3.8707,3.8707,3.8707,3.8707,3.8707,3.8707,3.8707,3.8707,3.8707,3.858,3.7843,3.7415,3.7039,3.6291,3.5854,3.5701,3.6197,3.7212,3.8193,3.8481,3.9123,3.9673,3.9673,3.9893,4.0096,4.0096,4.0096,4.0096,4.0096,4.0096,4.0096,4.0096,4.0096,4.0096,4.0096,4.0096,4.0096,4.0096,4.0096,4.0096,4.0096,4.0096,4.0096,4.0096,4.0096,4.0096,4.0096,4.0096,4.0096,4.0096,4.0096,4.0096,4.0096,4.0096,4.0096,4.0096,4.0096,4.0096,3.3465,3.3707,3.3807,3.3807,3.3807,3.3807,3.3807,3.3807,3.3807,3.3807,3.3807,3.3807,3.3807,3.3807,3.3807,3.3807,3.3807,3.3807,3.3807,3.5238,3.6303,3.6303,3.7716,3.8707,3.8707,3.8707,3.8707,3.8707,3.8707,3.8707,3.8707,3.8707,3.8707,3.8707,3.8707,3.8707,3.8707,3.8707,3.8707,3.8707,3.8707,3.8707,3.8707,3.8707,3.8707,3.8707,3.8707,3.8707,3.8707,3.8707,3.8707,3.8707,3.8707,3.8707,3.8707,3.8707,3.8707,3.8707,3.8707,3.8707,3.8707,3.8707,3.8707,3.8627,3.8251,3.7703,3.7095,3.656,3.6199,3.6197,3.7202,3.821,3.9039,3.9259,3.9723,4.0096,4.0096,4.0096,4.0096,4.0096,4.0096,4.0096,4.0096,4.0096,4.0096,4.0096,4.0096,4.0096,4.0096,4.0096,4.0096,4.0096,4.0096,4.0096,4.0096,4.0096,4.0096,4.0096,4.0096,4.0096,4.0096,4.0096,4.0096,4.0096,4.0096,4.0096,4.0096,4.0096,4.0096,4.0096,4.0096,4.0096,3.3199,3.3494,3.3807,3.3807,3.3807,3.3807,3.3807,3.3807,3.3807,3.3807,3.3807,3.3807,3.3807,3.3807,3.3807,3.3807,3.3807,3.3807,3.3807,3.5238,3.6303,3.6303,3.7716,3.8707,3.8707,3.8707,3.8707,3.8707,3.8707,3.8707,3.8707,3.8707,3.8707,3.8707,3.8707,3.8707,3.8707,3.8707,3.8707,3.8707,3.8707,3.8707,3.8707,3.8707,3.8707,3.8707,3.8707,3.8707,3.8707,3.8707,3.8707,3.8707,3.8707,3.8707,3.8707,3.8707,3.8707,3.8707,3.8707,3.8707,3.8707,3.8707,3.8707,3.8707,3.8692,3.7999,3.7095,3.656,3.6576,3.7134,3.8582,3.8988,3.9174,3.9926,4.0096,4.0096,4.0096,4.0096,4.0096,4.0096,4.0096,4.0096,4.0096,4.0096,4.0096,4.0096,4.0096,4.0096,4.0096,4.0096,4.0096,4.0096,4.0096,4.0096,4.0096,4.0096,4.0096,4.0096,4.0096,4.0096,4.0096,4.0096,4.0096,4.0096,4.0096,4.0096,4.0096,4.0096,4.0096,4.0096,4.0096,4.0096,3.3105,3.3494,3.3807,3.3807,3.3807,3.3807,3.3807,3.3807,3.3807,3.3807,3.3807,3.3807,3.3807,3.3807,3.3807,3.3807,3.3807,3.3807,3.3807,3.5238,3.6303,3.6303,3.7716,3.8707,3.8707,3.8707,3.8707,3.8707,3.8707,3.8707,3.8707,3.8707,3.8707,3.8707,3.8707,3.8707,3.8707,3.8707,3.8707,3.8707,3.8707,3.8707,3.8707,3.8707,3.8707,3.8707,3.8707,3.8707,3.8707,3.8707,3.8707,3.8707,3.8707,3.8707,3.8707,3.8707,3.8707,3.8707,3.8707,3.8707,3.8707,3.8707,3.8707,3.8707,3.8707,3.7999,3.7124,3.6771,3.7477,3.8396,3.887,3.9385,3.9808,4.0045,4.0096,4.0096,4.0096,4.0096,4.0096,4.0096,4.0096,4.0096,4.0096,4.0096,4.0096,4.0096,4.0096,4.0096,4.0096,4.0096,4.0096,4.0096,4.0096,4.0096,4.0096,4.0096,4.0096,4.0096,4.0096,4.0096,4.0096,4.0096,4.0096,4.0096,4.0096,4.0096,4.0096,4.0096,4.0096,4.0096,4.0096,4.0096,3.2719,3.3258,3.3606,3.3762,3.3807,3.3807,3.3807,3.3807,3.3807,3.3807,3.3807,3.3807,3.3807,3.3807,3.3807,3.3807,3.3807,3.3807,3.3807,3.5238,3.6523,3.7129,3.8083,3.8707,3.8707,3.8707,3.8707,3.8707,3.8707,3.8707,3.8707,3.8707,3.8707,3.8707,3.8707,3.8707,3.8707,3.8707,3.8707,3.8707,3.8707,3.8707,3.8707,3.8707,3.8707,3.8707,3.8707,3.8707,0.0,3.8707,3.8707,3.8707,3.8707,3.8707,3.8707,3.8707,3.8707,3.8707,3.8707,3.8707,3.8707,3.8707,3.8707,3.8682,3.8581,3.8097,3.7558,3.7285,3.8075,3.9056,3.9326,3.9757,4.0096,4.0096,4.0096,4.0096,4.0096,4.0096,4.0096,4.0096,4.0096,4.0096,4.0096,4.0096,4.0096,4.0096,4.0096,4.0096,4.0096,4.0096,4.0096,4.0096,4.0096,4.0096,4.0096,4.0096,4.0096,4.0096,4.0096,4.0096,4.0096,4.0096,4.0096,4.0096,4.0096,4.0096,4.0096,4.0096,4.0096,4.0096,4.0096,4.0096,0.0,3.2737,3.3288,3.3666,3.3793,3.3807,3.3807,3.3807,0.0,3.3807,3.3807,3.3807,3.3807,3.3807,3.3807,3.3807,3.3807,3.3807,3.3807,3.5238,3.689,3.8505,3.8707,3.8707,3.8707,3.8707,3.8707,3.8707,3.8707,3.8707,3.8707,3.8707,3.8707,3.8707,3.8707,3.8707,3.8707,3.8707,3.8707,3.8707,3.8707,3.8707,3.8707,3.8707,3.8707,3.8707,3.8707,3.8707,3.8707,3.8707,3.8707,3.8707,3.8707,3.8707,3.8707,3.8707,3.8707,3.8707,3.8707,3.8707,3.8707,3.8707,3.8707,3.8661,3.8433,3.8375,3.8327,3.8048,3.8514,3.9225,3.9926,4.0096,4.0096,4.0096,4.0096,4.0096,4.0096,4.0096,4.0096,4.0096,4.0096,4.0096,4.0096,4.0096,4.0096,4.0096,4.0096,4.0096,4.0096,4.0096,4.0096,4.0096,4.0096,4.0096,4.0096,4.0096,4.0096,4.0096,4.0096,4.0096,4.0096,4.0096,4.0096,4.0096,4.0096,4.0096,4.0096,4.0096,4.0096,4.0096,4.0096,4.0096,3.0108,0.0,3.3229,3.3317,3.3564,3.3807,0.0,3.3807,3.3807,3.3807,3.3807,3.3807,3.3807,3.3807,3.3807,3.3807,3.3807,3.3807,3.3807,3.5238,3.689,3.8505,3.8707,3.8707,3.8707,3.8707,3.8707,3.8707,3.8707,3.8707,3.8707,3.8707,3.8707,3.8707,3.8707,3.8707,3.8707,3.8707,3.8707,3.8707,3.8707,3.8707,3.8707,3.8707,3.8707,3.8707,3.8707,3.8707,3.8707,3.8707,3.8707,3.8707,3.8707,3.8707,3.8707,3.8707,3.8707,3.8707,3.8707,3.8707,3.8707,3.8707,3.8707,3.8727,3.8867,3.9021,3.908,3.8815,3.9259,3.9893,4.0062,4.0096,4.0096,4.0096,4.0096,4.0096,4.0096,4.0096,4.0096,4.0096,4.0096,4.0096,4.0096,4.0096,4.0096,4.0096,4.0096,4.0096,4.0096,4.0096,4.0096,4.0096,4.0096,4.0096,4.0096,4.0096,4.0096,4.0096,4.0096,4.0096,4.0096,4.0096,4.0096,4.0096,4.0096,4.0096,4.0096,4.0096,4.0096,4.0096,4.0096,4.0096,2.8716,3.038,3.2161,3.2598,3.3121,3.3564,3.3748,3.3807,3.3807,3.3807,3.3807,3.3807,3.3807,3.3807,3.3807,3.3807,3.3807,3.4064,3.4835,3.6046,3.7312,3.856,3.8707,3.8707,3.8707,3.8707,3.8707,3.8707,3.8707,3.8707,3.8707,3.8707,3.8707,3.8707,3.8707,3.8707,3.8707,3.8707,3.8707,3.8707,3.8707,3.8707,3.8707,3.8707,3.8707,3.8707,3.8707,3.8707,3.8707,3.8707,3.8707,3.8707,3.8707,3.8707,3.8707,3.8707,3.8707,3.8707,3.8707,3.8707,3.8707,3.8707,3.8707,3.8797,3.9423,3.9507,3.9405,3.9371,3.9725,4.0096,4.0096,4.0096,4.0096,4.0096,4.0096,4.0096,4.0096,4.0096,4.0096,4.0096,4.0096,4.0096,4.0096,4.0096,4.0096,4.0096,4.0096,4.0096,4.0096,4.0096,4.0096,4.0096,4.0096,4.0096,4.0096,4.0096,4.0096,4.0096,4.0096,4.0096,4.0096,4.0096,4.0096,4.0096,4.0096,4.0096,4.0096,4.0096,4.0096,4.0096,4.0096,4.0096,2.7621,2.9007,3.068,3.1736,3.2516,3.3172,3.3671,3.3807,3.3807,3.3807,3.3807,3.3807,3.3807,3.3807,3.3807,3.3807,3.3899,3.4523,3.6083,3.6997,3.7804,3.8597,3.8707,3.8707,3.8707,3.8707,3.8707,3.8707,3.8707,3.8707,3.8707,3.8707,3.8707,3.8707,3.8707,3.8707,3.8707,3.8707,3.8707,3.8707,3.8707,3.8707,3.8707,3.8707,3.8707,3.8707,3.8707,3.8707,3.8707,3.8707,3.8707,3.8707,3.8707,3.8707,3.8707,3.8707,3.8707,3.8707,3.8707,3.8707,3.8707,3.8707,3.8781,3.9069,4.0037,3.9975,3.9664,4.001,4.0096,4.0096,4.0096,4.0096,4.0096,4.0096,4.0096,4.0096,4.0096,4.0096,4.0096,4.0096,4.0096,4.0096,4.0096,4.0096,4.0096,4.0096,4.0096,4.0096,4.0096,4.0096,4.0096,4.0096,4.0096,4.0096,4.0096,4.0096,4.0096,4.0096,4.0096,4.0096,4.0096,4.0096,4.0096,4.0096,4.0096,4.0096,4.0096,4.0096,4.0096,4.0096,4.0096,4.0096,2.686,2.8047,2.9624,3.1126,3.1891,3.2548,3.3574,3.3807,3.3807,3.3807,3.3807,3.3807,3.3807,3.3807,3.3807,3.3807,3.4362,3.5151,3.6156,3.6997,3.7804,3.8597,3.8707,3.8707,3.8707,3.8707,3.8707,3.8707,3.8707,3.8707,3.8707,3.8707,3.8707,3.8707,3.8707,3.8707,3.8707,3.8707,3.8707,3.8707,3.8707,3.8707,3.8707,3.8707,3.8707,3.8707,3.8707,3.8707,3.8707,3.8707,3.8707,3.8707,3.8707,3.8707,3.8707,3.8707,3.8707,3.8707,3.8707,3.8707,3.8707,3.8707,3.9166,3.9866,4.0701,4.0707,4.0559,4.1276,4.0828,4.0096,4.0096,4.0096,4.0096,4.0096,4.0096,4.0096,4.0096,4.0096,4.0096,4.0096,4.0096,4.0096,4.0096,4.0096,4.0096,4.0096,4.0096,4.0096,4.0096,4.0096,4.0096,4.0096,4.0096,4.0096,4.0096,4.0096,4.0096,4.0096,4.0096,4.0096,4.0096,4.0096,4.0096,4.0096,4.0096,4.0096,4.0096,4.0096,4.0096,4.0096,4.0096,4.0096,2.6691,2.7503,2.8679,3.0086,3.1383,3.2519,3.3303,3.3634,3.3807,3.3807,3.3807,3.3807,3.3807,3.3807,3.3935,3.438,3.5151,3.5991,3.6831,3.7643,3.8285,3.867,3.8707,3.8707,3.8707,3.8707,3.8707,3.8707,3.8707,3.8707,3.8707,3.8707,3.8707,3.8707,3.8707,3.8707,3.8707,3.8707,3.8707,3.8707,3.8707,3.8707,3.8707,3.8707,3.8707,3.8707,3.8707,3.8707,3.8707,3.8707,3.8707,3.8707,3.8707,3.8707,3.8707,3.8707,3.8707,3.8707,3.8707,3.8707,3.8707,3.8707,3.9239,3.9981,4.0465,4.061,4.0694,4.1192,4.0744,4.0096,4.0096,4.0096,4.0096,4.0096,4.0096,4.0096,4.0096,4.0096,4.0096,4.0096,4.0096,4.0096,4.0096,4.0096,4.0096,4.0096,4.0096,4.0096,4.0096,4.0096,4.0096,4.0096,4.0096,4.0096,4.0096,4.0096,4.0096,4.0096,4.0096,4.0096,4.0096,4.0096,4.0096,4.0096,4.0096,4.0096,4.0096,4.0096,4.0096,4.0096,4.0096,4.0096,2.6877,2.752,2.8353,2.9437,3.099,3.2401,3.3054,3.3508,3.3807,3.3807,3.3807,3.3807,3.3807,3.3954,3.427,3.4912,3.5899,3.6813,3.7419,3.8193,3.8707,3.8707,3.8707,3.8707,3.8707,3.8707,3.8707,3.8707,3.8707,3.8707,3.8707,3.8707,3.8707,3.8707,3.8707,3.8707,3.8707,3.8707,3.8707,3.8707,3.8707,3.8707,3.8707,3.8707,3.8707,3.8707,3.8707,3.8707,3.8707,3.8707,3.8707,3.8707,3.8707,3.8707,3.8707,3.8707,3.8707,3.8707,3.8707,3.8707,3.8707,3.8707,3.9368,4.0187,4.0203,4.0506,4.0881,4.0908,4.0504,4.0096,4.0096,4.0096,4.0096,4.0096,4.0096,4.0096,4.0096,4.0096,4.0096,4.0096,4.0096,4.0096,4.0096,4.0096,4.0096,4.0096,4.0096,4.0096,4.0096,4.0096,4.0096,4.0096,4.0096,4.0096,4.0096,4.0096,4.0096,4.0096,4.0096,4.0096,4.0096,4.0096,4.0096,4.0096,4.0096,4.0096,4.0096,4.0096,4.0096,4.0096,4.0096,4.0096,2.7431,2.8298,2.9094,2.9858,3.0786,3.1773,3.2943,3.3508,3.3807,3.3807,3.3807,3.3807,3.3807,3.4399,3.4931,3.5004,3.6358,3.7437,3.7492,3.8193,3.8707,3.8707,3.8707,3.8707,3.8707,3.8707,3.8707,3.8707,3.8707,3.8707,3.8707,3.8707,3.8707,3.8707,3.8707,3.8707,3.8707,3.8707,3.8707,3.8707,3.8707,3.8707,3.8707,3.8707,3.8707,3.8707,3.8707,3.8707,3.8707,3.8707,3.8707,3.8707,3.8707,3.8707,3.8707,3.8707,3.8707,3.8707,3.8707,3.8707,3.8707,3.8707,3.9753,4.0903,4.0384,4.0901,4.1594,4.1047,4.0504,4.0096,4.0096,4.0096,4.0096,4.0096,4.0096,4.0096,4.0096,4.0096,4.0096,4.0096,4.0096,4.0096,4.0096,4.0096,4.0096,4.0096,4.0096,4.0096,4.0096,4.0096,4.0096,4.0096,4.0096,4.0096,4.0096,4.0096,4.0096,4.0096,4.0096,4.0096,4.0096,4.0096,4.0096,4.0096,4.0096,4.0096,4.0096,4.0096,4.0096,4.0096,4.0096,4.0096,2.7464,2.8383,2.9179,2.9922,3.1098,3.2194,3.2658,3.3299,3.3807,3.3807,3.3807,3.3954,3.4454,3.4784,3.5334,3.6395,3.7088,3.7676,3.8175,3.8505,3.8707,3.8707,3.8707,3.8707,3.8707,3.8707,3.8707,3.8707,3.8707,3.8707,3.8707,3.8707,3.8707,3.8707,3.8707,3.8707,3.8707,3.8707,3.8707,3.8707,3.8707,3.8707,3.8707,3.8707,3.8707,3.8707,3.8707,3.8707,3.8707,3.8707,3.8707,3.8707,3.8707,3.8707,3.8707,3.8707,3.8707,3.8707,3.8707,3.8707,3.8781,3.9276,4.0194,4.1017,4.057,4.1085,4.1599,4.0672,4.0254,4.0096,4.0096,4.0096,4.0096,4.0096,4.0096,4.0096,4.0096,4.0096,4.0096,4.0096,4.0096,4.0096,4.0096,4.0096,4.0096,4.0096,4.0096,4.0096,4.0096,4.0096,4.0096,4.0096,4.0096,4.0096,4.0096,4.0096,4.0096,4.0096,4.0096,4.0096,4.0096,4.0096,4.0096,4.0096,4.0096,4.0096,4.0096,4.0096,4.0096,4.0096,4.0096,4.0096,2.7749,2.8569,2.923,3.0209,3.1478,3.2501,3.2501,3.3163,3.3807,3.3807,3.4009,3.4344,3.4912,3.5426,3.6156,3.7309,3.7713,3.8065,3.8615,3.8707,3.8707,3.8707,3.8707,3.8707,3.8707,3.8707,3.8707,3.8707,3.8707,3.8707,3.8707,3.8707,3.8707,3.8707,3.8707,3.8707,3.8707,3.8707,3.8707,3.8707,3.8707,3.8707,3.8707,3.8707,3.8707,3.8707,3.8707,3.8707,3.8707,3.8707,3.8707,3.8707,3.8707,3.8707,3.8707,3.8707,3.8707,3.8707,3.8707,3.8707,3.8836,3.9643,4.0451,4.1039,4.0693,4.1149,4.1556,4.0434,4.0096,4.0096,4.0096,4.0096,4.0096,4.0096,4.0096,4.0096,4.0096,4.0096,4.0096,4.0096,4.0096,4.0096,4.0096,4.0096,4.0096,4.0096,4.0096,4.0096,4.0096,4.0096,4.0096,4.0096,4.0096,4.0096,4.0096,4.0096,4.0096,4.0096,4.0096,4.0096,4.0096,4.0096,4.0096,4.0096,4.0096,4.0096,4.0096,4.0096,4.0096,4.0096,4.0096,4.0096,2.8317,2.8993,2.9348,3.0818,3.186,3.2501,3.2501,3.3163,3.3807,3.3807,3.4435,3.5004,3.5023,3.6376,3.7492,3.7511,3.8175,3.8707,3.8707,3.8707,3.8707,3.8707,3.8707,3.8707,3.8707,3.8707,3.8707,3.8707,3.8707,3.8707,3.8707,3.8707,3.8707,3.8707,3.8707,3.8707,3.8707,3.8707,3.8707,3.8707,3.8707,3.8707,3.8707,3.8707,3.8707,3.8707,3.8707,3.8707,3.8707,3.8707,3.8707,3.8707,3.8707,3.8707,3.8707,3.8707,3.8707,3.8707,3.8707,3.8707,3.8836,3.9643,4.0451,4.104,4.0711,4.1167,4.1534,4.0434,4.0096,4.0096,4.0096,4.0096,4.0096,4.0096,4.0096,4.0096,4.0096,4.0096,4.0096,4.0096,4.0096,4.0096,4.0096,4.0096,4.0096,4.0096,4.0096,4.0096,4.0096,4.0096,4.0096,4.0096,4.0096,4.0096,4.0096,4.0096,4.0096,4.0096,4.0096,4.0096,4.0096,4.0096,4.0096,4.0096,4.0096,4.0096,4.0096,4.0096,4.0096,4.0096,4.0096,4.0096,2.8317,2.8993,2.9348,3.0818,3.186,3.2501,3.2501,3.3163,3.3807,3.3807,3.4435,3.5188,3.5807,3.678,3.7694,3.8248,3.8542,3.8707,3.8707,3.8707,3.8707,3.8707,3.8707,3.8707,3.8707,3.8707,3.8707,3.8707,3.8707,3.8707,3.8707,3.8707,3.8707,3.8707,3.8707,3.8707,3.8707,3.8707,3.8707,3.8707,3.8707,3.8707,3.8707,3.8707,3.8707,3.8707,3.8707,3.8707,3.8707,3.8707,3.8707,3.8707,3.8707,3.8707,3.8707,3.8707,3.8707,3.8707,3.8707,3.9074,3.968,4.0487,4.0988,4.1324,4.1413,4.1315,4.1036,4.0286,4.0096,4.0096,4.0096,4.0096,4.0096,4.0096,4.0096,4.0096,4.0096,4.0096,4.0096,4.0096,4.0096,4.0096,4.0096,4.0096,4.0096,4.0096,4.0096,4.0096,4.0096,4.0096,4.0096,4.0096,4.0096,4.0096,4.0096,4.0096,4.0096,4.0096,4.0096,4.0096,4.0096,4.0096,4.0096,4.0096,4.0096,4.0096,4.0096,4.0096,4.0096,4.0096,4.0096,4.0096,2.8317,2.8993,2.9348,3.0818,3.186,3.2599,3.2934,3.3433,3.3807,3.3807,3.4724,3.5665,3.6193,3.7221,3.818,3.8752,3.8855,3.8913,3.9036,3.9064,3.9064,3.9064,3.9064,3.9013,3.8869,3.8855,3.88,3.8723,3.8707,3.8707,3.8707,3.8707,3.8707,3.8707,3.8707,3.8707,3.8707,3.8707,3.8707,3.8707,3.8707,3.8707,3.8707,3.8707,3.8707,3.8707,3.8707,3.8707,3.8707,3.8707,3.8707,3.8707,3.8707,3.8707,3.8707,3.8707,3.8909,3.9184,3.9184,3.9698,4.0506,4.1332,4.1503,4.1443,4.173,4.138,4.078,4.0237,4.0096,4.0096,4.0096,4.0096,4.0096,4.0096,4.0096,4.0096,4.0096,4.0096,4.0096,4.0096,4.0096,4.0096,4.0096,4.0096,4.0096,4.0096,4.0096,4.0096,4.0096,4.0096,4.0096,4.0096,4.0096,4.0096,4.0096,4.0096,4.0096,4.0096,4.0096,4.0096,4.0096,4.0096,4.0096,4.0096,4.0096,4.0096,4.0096,4.0096,4.0096,4.0096,4.0096,4.0096,2.8317,2.8993,2.9348,3.0818,3.186,3.2729,3.3606,3.3807,3.3825,3.3899,3.5183,3.6321,3.6395,3.7672,3.8833,3.9044,3.9139,3.9251,3.9564,3.9599,3.9599,3.9599,3.9599,3.9493,3.9192,3.9152,3.9036,3.8807,3.8747,3.8735,3.8735,3.8704,3.8707,3.8707,3.8707,3.8707,3.8707,3.8707,3.8707,3.8707,3.8707,3.8707,3.8707,3.8707,3.8707,3.8707,3.8707,3.8707,3.8707,3.8707,3.8707,3.8707,3.8707,3.8707,3.8707,3.8781,3.9276,3.9916,3.9974,4.0543,4.1334,4.2066,4.1922,4.1475,4.1727,4.138,4.078,4.0237,4.0146,4.0171,4.0121,4.0096,4.0096,4.0096,4.0096,4.0096,4.0096,4.0096,4.0096,4.0096,4.0096,4.0096,4.0096,4.0096,4.0096,4.0096,4.0096,4.0096,4.0096,4.0096,4.0096,4.0096,4.0096,4.0096,4.0096,4.0096,4.0096,4.0096,4.0096,4.0096,4.0096,4.0096,4.0096,4.0096,4.0096,4.0096,4.0096,4.0096,4.0096,4.0096,4.0096,4.0096,2.8317,2.8993,2.9348,3.0818,3.186,3.2729,3.3606,3.3807,3.3972,3.4619,3.5569,3.6486,3.7125,3.82,3.9036,3.9099,3.9314,3.9529,3.9599,3.9599,3.9599,3.9599,3.9599,3.9576,3.9505,3.9486,3.9469,3.9414,3.9171,3.9008,3.9008,3.88,3.8707,3.8707,3.8707,3.8707,3.8707,3.8707,3.8707,3.8707,3.8707,3.8707,3.8707,3.8707,3.8707,3.8707,3.8707,3.8707,3.8707,3.8707,3.8707,3.8707,3.8707,3.8707,3.8781,3.9405,3.9753,3.9992,4.0616,4.1368,4.2066,4.2249,4.2031,4.1727,4.1761,4.138,4.078,4.0237,4.0417,4.0631,4.0204,4.0096,4.0096,4.0096,4.0096,4.0096,4.0096,4.0096,4.0096,4.0096,4.0096,4.0096,4.0096,4.0096,4.0096,4.0096,4.0096,4.0096,4.0096,4.0096,4.0096,4.0096,4.0096,4.0096,4.0096,4.0096,4.0096,4.0096,4.0096,4.0096,4.0096,4.0096,4.0096,4.0096,4.0096,4.0096,4.0096,4.0096,4.0096,4.0096,4.0096,4.0096,2.7762,2.8722,2.9441,3.1351,3.2161,3.2729,3.3606,3.3807,3.4027,3.4839,3.5697,3.647,3.7017,3.8209,3.9218,3.9529,3.9731,3.9882,4.0014,4.0034,4.0034,4.0034,4.0034,3.9984,3.984,3.9829,3.9775,3.9611,3.9289,3.9112,3.9112,3.8859,3.8707,3.8707,3.8707,3.8891,3.9276,3.9276,3.9478,3.9848,3.9848,3.9848,3.9811,3.9056,3.8707,3.8707,3.8707,3.8707,3.8726,3.9129,3.9276,3.9313,3.9698,3.9848,3.9884,4.0322,4.0726,4.1111,4.1534,4.2194,4.2873,4.2873,4.239,4.1853,4.2142,4.1599,4.0903,4.0914,4.1127,4.1201,4.0625,4.0473,4.0417,4.0171,4.0096,4.0096,4.0096,4.0096,4.0096,4.0096,4.0096,4.0096,4.0096,4.0096,4.0096,4.0096,4.0096,4.0096,4.0096,4.0096,4.0096,4.0096,4.0096,4.0096,4.0096,4.0409,4.0629,4.0629,4.095,4.1162,4.1162,4.1162,4.0993,4.0629,4.0976,4.1162,4.1162,4.1162,4.1162,4.1162,4.1162,4.1162,2.7051,2.843,2.9721,3.1965,3.2501,3.2729,3.3606,3.3807,3.399,3.4656,3.5605,3.6431,3.6831,3.8158,3.9377,4.0002,4.0139,4.026,4.0473,4.0496,4.0496,4.0496,4.0496,4.0406,4.0186,4.0167,4.0043,3.9778,3.9401,3.9192,3.9192,3.9017,3.8909,3.8909,3.9038,3.9441,4.0102,4.0102,4.0451,4.1095,4.1095,4.1095,4.104,3.9735,3.9095,3.9095,3.9095,3.9095,3.9166,3.9827,4.0102,4.0175,4.0838,4.1095,4.1113,4.126,4.1735,4.2323,4.2451,4.2928,4.3515,4.3515,4.2791,4.2059,4.2539,4.2,4.1273,4.1686,4.181,4.1664,4.1064,4.0833,4.0655,4.0204,4.0096,4.0096,4.0096,4.0096,4.0096,4.0096,4.0096,4.0096,4.0096,4.0096,4.0096,4.0096,4.0096,4.0096,4.0096,4.0096,4.0096,4.0096,4.0214,4.0299,4.0299,4.0967,4.139,4.139,4.1965,4.2286,4.2286,4.2422,4.2202,4.1593,4.2049,4.2286,4.2286,4.2286,4.2286,4.2286,4.2286,4.2286,2.665,2.8542,3.0368,3.2071,3.2501,3.2729,3.3606,3.3807,3.3825,3.3935,3.5202,3.6597,3.7556,3.8721,3.9656,4.0032,4.0285,4.0465,4.0489,4.0496,4.0496,4.0496,4.0496,4.0481,4.0457,4.0449,4.0422,4.037,3.9853,3.9541,3.9541,3.9662,3.9735,3.9735,4.0432,4.082,4.093,4.093,4.0985,4.1095,4.1095,4.1095,4.1095,4.0875,4.0783,4.0783,4.0783,4.0783,4.0783,4.0893,4.093,4.0948,4.1058,4.1095,4.1168,4.1882,4.2213,4.2396,4.3094,4.3423,4.3515,4.3515,4.3087,4.2596,4.2692,4.2596,4.2362,4.1916,4.181,4.1664,4.1064,4.0552,4.0179,4.0121,4.0096,4.0096,4.0096,4.0096,4.0096,4.0096,4.0096,4.0096,4.0096,4.0096,4.0096,4.0096,4.0096,4.0096,4.0096,4.0096,4.0096,4.0096,4.0663,4.1052,4.1052,4.1728,4.2151,4.2151,4.2236,4.2286,4.2286,4.2912,4.3189,4.3105,4.2574,4.2286,4.2286,4.2286,4.2286,4.2286,4.2286,4.2286,2.6791,2.8474,2.9875,3.1472,3.2181,3.2729,3.3606,3.3807,3.3807,3.3807,3.4743,3.5901,3.7017,3.8169,3.9183,3.9966,4.033,4.0496,4.0496,4.0496,4.0496,4.0496,4.0496,4.0496,4.0496,4.0496,4.0496,4.0496,4.0129,3.988,3.988,4.0034,4.0111,4.0111,4.0764,4.1315,4.1772,4.1772,4.2011,4.2433,4.2433,4.2433,4.2433,4.2433,4.1956,4.1095,4.1095,4.1095,4.1132,4.1589,4.1772,4.1827,4.2268,4.2433,4.2488,4.2837,4.2965,4.302,4.3386,4.3515,4.3515,4.3515,4.3142,4.2769,4.305,4.2939,4.2635,4.2382,4.2302,4.2101,4.1155,4.0726,4.0473,4.0154,4.0096,4.0096,4.0096,4.0096,4.0096,4.0096,4.0096,4.0096,4.0096,4.0096,4.0096,4.0096,4.0096,4.0096,4.0096,4.0096,4.0265,4.0663,4.1018,4.1373,4.1779,4.2489,4.2929,4.2929,4.3335,4.3599,4.3599,4.3893,4.4062,4.4062,4.3741,4.3599,4.3599,4.3599,4.3599,4.3599,4.3599,4.3599,2.6772,2.8095,2.9124,3.0941,3.1806,3.2495,3.357,3.3807,3.3807,3.3807,3.427,3.5036,3.618,3.7493,3.8721,3.9633,4.0185,4.0496,4.0496,4.0496,4.0496,4.0496,4.0496,4.0496,4.0496,4.0496,4.0496,4.0496,4.0241,4.0052,3.9982,4.0403,4.0593,4.0511,4.1293,4.2011,4.2598,4.2598,4.291,4.3515,4.3515,4.3515,4.3515,4.3515,4.2837,4.1717,4.1717,4.1717,4.1772,4.2359,4.2598,4.2653,4.3276,4.3515,4.3515,4.3515,4.3515,4.3515,4.3515,4.3515,4.3515,4.3515,4.3232,4.2976,4.3375,4.3214,4.2902,4.2902,4.2693,4.2244,4.1358,4.0903,4.0601,4.0196,4.0096,4.0096,4.0096,4.0096,4.0096,4.0096,4.0096,4.0096,4.0096,4.0096,4.0096,4.0096,4.0096,4.0096,4.0096,4.0265,4.0578,4.1136,4.1542,4.1982,4.2523,4.3267,4.3707,4.3707,4.4265,4.4615,4.4615,4.4615,4.4615,4.4615,4.4615,4.4615,4.4615,4.4615,4.4615,4.4615,4.4615,4.4615,2.6285,2.73,2.8425,3.08,3.1432,3.1865,3.3437,3.3807,3.3807,3.3807,3.3825,3.4207,3.5349,3.7117,3.8512,3.8899,3.9829,4.0496,4.0496,4.0496,4.0496,4.0496,4.0496,4.0496,4.0496,4.0496,4.0496,4.0496,4.0241,3.9953,3.9645,4.0836,4.1386,4.1071,4.2578,4.3387,4.3441,4.3441,4.346,4.3515,4.3515,4.3515,4.3515,4.3515,4.346,4.3386,4.3386,4.3386,4.3386,4.3423,4.3441,4.3441,4.3478,4.3515,4.3515,4.3515,4.3515,4.3515,4.3515,4.3515,4.3515,4.3515,4.3479,4.3462,4.3479,4.3479,4.3444,4.3444,4.2696,4.1832,4.1771,4.0938,4.0146,4.0113,4.0096,4.0096,4.0096,4.0096,4.0096,4.0096,4.0096,4.0096,4.0096,4.0096,4.0096,4.0096,4.0096,4.0096,4.0096,4.0696,4.117,4.1204,4.2429,4.3291,4.3325,4.4079,4.4547,4.4547,4.4581,4.4615,4.4615,4.4615,4.4615,4.4615,4.4615,4.4615,4.4615,4.4615,4.4615,4.4615,4.4615,4.4615,2.5496,2.6539,2.7657,3.0092,3.104,3.1811,3.3437,3.3807,3.3807,3.3807,3.3807,3.3968,3.4568,3.5841,3.7244,3.8614,3.9333,3.9919,4.0439,4.0496,4.0496,4.0496,4.0496,4.0496,4.0496,4.0496,4.0496,4.0496,4.0406,4.0232,3.9932,4.1147,4.1717,4.143,4.2769,4.3515,4.3515,4.3515,4.3515,4.3515,4.3515,4.3515,4.3515,4.3515,4.3515,4.3515,4.3515,4.3515,4.3515,4.3515,4.3515,4.3515,4.3515,4.3515,4.3515,4.3515,4.3515,4.3515,4.3515,4.3515,4.3515,4.3515,4.3515,4.3515,4.3515,4.3515,4.3427,4.3069,4.2404,4.1707,4.1335,4.0672,4.0096,4.0096,4.0096,4.0096,4.0096,4.0096,4.0096,4.0096,4.0096,4.0096,4.0096,4.0096,4.0096,4.0096,4.0096,4.0282,4.0747,4.1035,4.1559,4.2523,4.3071,4.3623,4.413,4.4418,4.4615,4.4615,4.4615,4.4615,4.4615,4.4615,4.4615,4.4615,4.4615,4.4615,4.4615,4.4615,4.4615,4.4615,4.4615,4.4615,2.4436,2.5575,2.6822,2.8829,3.0183,3.1421,3.2897,3.3538,3.3807,3.3807,3.3807,3.3876,3.4159,3.491,3.6042,3.769,3.8463,3.915,3.9977,4.0092,4.0208,4.0477,4.0496,4.0496,4.0496,4.0496,4.0496,4.0496,4.0496,4.0328,3.9943,4.0991,4.1665,4.1834,4.2914,4.3515,4.3515,4.3515,4.3515,4.3515,4.3515,4.3515,4.3515,4.3515,4.3515,4.3515,4.3515,4.3515,4.3515,4.3515,4.3515,4.3515,4.3515,4.3515,4.3515,4.3515,4.3515,4.3515,4.3515,4.3515,4.3515,4.3515,4.3515,4.3515,4.3515,4.3515,4.3392,4.2845,4.2282,4.1664,4.1064,4.0497,4.0096,4.0096,4.0096,4.0096,4.0096,4.0096,4.0096,4.0096,4.0096,4.0096,4.0096,4.0096,4.0096,4.0096,4.0316,4.0646,4.1136,4.1644,4.2293,4.3291,4.3656,4.4012,4.4564,4.4615,4.4615,4.4615,4.4615,4.4615,4.4615,4.4615,4.4615,4.4615,4.4615,4.4615,4.4615,4.4615,4.4615,4.4615,4.4615,4.4615,0.0,0.0,0.0,2.708,2.8835,3.0576,3.1798,3.2935,3.3757,3.3752,3.377,3.3876,3.4159,3.4475,3.502,3.6089,3.7225,3.8277,3.915,3.9265,3.9554,4.0362,4.0458,4.0477,4.0496,4.0496,4.0496,4.0496,4.0496,4.0248,3.9645,4.0375,4.1282,4.2266,4.3075,4.3515,4.3515,4.3515,4.3515,4.3515,4.3515,4.3515,4.3515,4.3515,4.3515,4.3515,4.3515,4.3515,4.3515,4.3515,4.3515,4.3515,4.3515,4.3515,4.3515,4.3515,4.3515,4.3515,4.3515,4.3515,4.3515,4.3515,4.3515,4.3515,4.3515,4.3515,4.3392,4.2864,4.2282,4.1643,4.1041,4.0497,4.0096,4.0096,4.0096,4.0096,4.0096,4.0096,4.0096,4.0096,4.0096,4.0096,4.0096,4.0096,4.0096,4.0096,4.073,4.1221,4.1238,4.2479,4.3392,4.3426,4.413,4.4615,4.4615,4.4615,4.4615,4.4615,4.4615,4.4615,4.4615,4.4615,4.4615,4.4615,4.4615,4.4615,4.4615,4.4615,4.4615,4.4615,4.4615,4.4615,2.3016,0.0,0.0,0.0,0.0,0.0,3.0883,3.1922,3.2638,3.2873,3.3385,3.3876,3.4159,3.4288,3.4586,3.5311,3.6362,3.7353,3.8238,3.8354,3.8681,3.9534,3.9631,3.9861,4.0439,4.0496,4.0496,4.0496,4.0496,4.0336,3.9992,4.0854,4.1661,4.2284,4.3075,4.3515,4.3515,4.3515,4.3515,4.3515,4.3515,4.3515,4.3515,4.3515,4.3515,4.3515,4.3515,4.3515,4.3515,4.3515,4.3515,4.3515,4.3515,4.3515,4.3515,4.3515,4.3515,4.3515,4.3515,4.3515,4.3515,4.3515,4.3515,4.3515,4.3515,4.3515,4.3462,4.3322,4.2562,4.1556,4.0594,4.0204,4.0096,4.0096,4.0096,4.0096,4.0096,4.0096,4.0096,4.0096,4.0096,4.0096,4.0096,4.0096,4.0096,4.0096,4.073,4.139,4.1931,4.2828,4.3639,4.4198,4.4479,4.4615,4.4615,4.4615,4.4615,4.4615,4.4615,4.4615,4.4615,4.4615,4.4615,4.4615,4.4615,4.4615,4.4615,4.4615,4.4615,4.4615,4.4615,4.4615,2.2649,2.3477,2.4397,2.5832,0.0,0.0,2.9606,3.1042,3.2158,3.2356,3.3145,3.3855,3.3993,3.4123,3.4315,3.4666,3.537,3.6241,3.7312,3.7469,3.7777,3.8642,3.8757,3.9084,3.9919,3.9871,3.9989,4.0469,4.0389,4.0194,3.9912,4.0534,4.1182,4.1772,4.258,4.3149,4.3515,4.3515,4.3515,4.3515,4.3515,4.3515,4.3515,4.3515,4.3515,4.3515,4.3515,4.3515,4.3515,4.3515,4.3515,4.3515,4.3515,4.3515,4.3515,4.3515,4.3515,4.3515,4.3515,4.3515,4.3515,4.3515,4.3515,4.3515,4.3515,4.3515,4.341,4.2922,4.1961,4.0955,4.0279,4.0096,4.0096,4.0096,4.0096,4.0096,4.0096,4.0096,4.0096,4.0096,4.0096,4.0096,4.0096,4.0096,4.0214,4.0493,4.1187,4.1931,4.2658,4.3436,4.4079,4.4564,4.4615,4.4615,4.4615,4.4615,4.4615,4.4615,4.4615,4.4615,4.4615,4.4615,4.4615,4.4615,4.4615,4.4615,4.4615,4.4615,4.4615,4.4615,4.4615,4.4615,2.2365,2.2902,2.3562,2.4203,2.58,0.0,2.8078,3.0049,3.1711,3.1801,3.2721,3.3528,3.3628,3.3851,3.4059,3.4169,3.4445,3.5078,3.6293,3.6495,3.6836,3.7709,3.7805,3.8151,3.9042,3.8904,3.9175,4.0186,4.0156,3.9943,3.9622,3.9854,4.0344,4.1077,4.1882,4.269,4.3496,4.3515,4.3515,4.3515,4.3515,4.3515,4.3515,4.3515,4.3515,4.3515,4.3515,4.3515,4.3515,4.3515,4.3515,4.3515,4.3515,4.3515,4.3515,4.3515,4.3515,4.3515,4.3515,4.3515,4.3515,4.3515,4.3515,4.3515,4.3515,4.3515,4.3267,4.2111,4.1029,4.0186,4.0121,4.0096,4.0096,4.0096,4.0096,4.0096,4.0096,4.0096,4.0096,4.0096,4.0096,4.0096,4.0096,4.0096,4.0367,4.1085,4.183,4.2574,4.3291,4.4096,4.4615,4.4615,4.4615,4.4615,4.4615,4.4615,4.4615,4.4615,4.4615,4.4615,4.4615,4.4615,4.4615,4.4615,4.4615,4.4615,4.4615,4.4615,4.4615,4.4615,4.4615,4.4615,2.3057,2.3291,2.3427,2.3579,2.479,0.0,2.6547,2.7975,2.9369,2.998,3.0826,3.1747,3.2672,3.2886,3.3179,3.4059,3.4246,3.4491,3.5011,3.5281,3.5725,3.6536,3.6632,3.6976,3.7853,3.8259,3.8569,3.8784,3.9622,3.9943,3.9622,4.0246,4.0766,4.1091,4.1882,4.269,4.3496,4.3515,4.3515,4.3515,4.3515,4.3515,4.3515,4.3515,4.3515,4.3515,4.3515,4.3515,4.3515,4.3515,4.3515,4.3515,4.3515,4.3515,4.3515,4.3515,4.3515,4.3515,4.3515,4.3515,4.3515,4.3515,4.3515,4.3515,4.3515,4.3515,4.3266,4.2119,4.1273,4.064,4.0226,4.0096,4.0096,4.0096,4.0096,4.0096,4.0096,4.0096,4.0096,4.0096,4.0096,4.0096,4.0096,4.0096,4.0367,4.1085,4.183,4.2574,4.3291,4.4096,4.4615,4.4615,4.4615,4.4615,4.4615,4.4615,4.4615,4.4615,4.4615,4.4615,4.4615,4.4615,4.4615,4.4615,4.4615,4.4615,4.4615,4.4615,4.4615,4.4615,4.4615,4.4615,2.4013,2.3949,2.4051,2.4408,2.505,0.0,0.0,2.7522,2.8605,2.8968,3.0037,3.1066,3.1642,3.1887,3.2182,3.2723,3.3142,3.3463,3.3618,3.4379,3.504,3.5448,3.5505,3.5837,3.6663,3.688,3.73,3.8089,3.8836,3.9285,3.9346,3.9721,4.0123,4.0485,4.1277,4.2084,4.2892,4.3313,4.3515,4.3515,4.3515,4.3515,4.3515,4.3515,4.3515,4.3515,4.3515,4.3515,4.3515,4.3515,4.3515,4.3515,4.3515,4.3515,4.3515,4.3515,4.3515,4.3515,4.3515,4.3515,4.3515,4.3515,4.3515,4.3515,4.3515,4.3096,4.2539,4.1964,4.1367,4.0855,4.0567,4.0501,4.0501,4.0501,4.0299,4.0096,4.0096,4.0096,4.0096,4.0096,4.0096,4.0096,4.0096,4.0417,4.0899,4.1644,4.2388,4.3132,4.3893,4.4333,4.4615,4.4615,4.4615,4.4615,4.4615,4.4615,4.4615,4.4615,4.4615,4.4615,4.4615,4.4615,4.4615,4.4615,4.4615,4.4615,4.4615,4.4615,4.4615,4.4615,4.4615,4.4615,2.4971,2.4609,2.4643,2.5236,2.549,2.5761,0.0,0.0,0.0,2.8253,2.9301,3.0298,3.0599,3.086,3.1083,3.1164,3.1843,3.2307,3.2161,3.3245,3.4202,3.4555,3.4593,3.4867,3.5509,3.5528,3.61,3.7565,3.8117,3.8529,3.8846,3.9019,3.9342,3.9879,4.0524,4.1332,4.2286,4.2928,4.3349,4.3515,4.3515,4.3515,4.3515,4.3515,4.3515,4.3515,4.3515,4.3515,4.3515,4.3515,4.3515,4.3515,4.3515,4.3515,4.3515,4.3515,4.3515,4.3515,4.3515,4.3515,4.3515,4.3515,4.3515,4.3515,4.3515,4.2696,4.1831,4.193,4.1457,4.094,4.1047,4.108,4.103,4.094,4.0552,4.0222,4.0113,4.0096,4.0096,4.0096,4.0096,4.0146,4.0299,4.0798,4.1508,4.2371,4.3031,4.3707,4.4513,4.4615,4.4615,4.4615,4.4615,4.4615,4.4615,4.4615,4.4615,4.4615,4.4615,4.4615,4.4615,4.4615,4.4615,4.4615,4.4615,4.4615,4.4615,4.4615,4.4615,4.4615,4.4615,4.4615,2.5677,2.5,2.4508,2.4609,2.5118,2.5625,2.571,0.0,2.701,2.7362,0.0,2.812,2.9498,0.0,0.0,3.0271,3.0999,3.1292,3.0577,3.1219,3.2391,3.4055,3.4265,3.4284,3.4389,3.5062,3.5876,3.6764,3.7756,3.8242,3.8044,3.8721,3.9342,3.9879,3.9992,4.0763,4.2286,4.2396,4.2782,4.3515,4.3515,4.3515,4.3515,4.3515,4.3515,4.3515,4.3515,4.3515,4.3515,4.3515,4.3515,4.3515,4.3515,4.3515,4.3515,4.3515,4.3515,4.3515,4.3515,4.3515,4.3515,4.3515,4.3515,4.3515,4.3515,4.2696,4.1898,4.2447,4.1789,4.1027,4.1564,4.1706,4.1565,4.1034,4.0849,4.0688,4.0206,4.0096,4.0096,4.0096,4.0096,4.0316,4.0967,4.1136,4.1677,4.3054,4.3341,4.3707,4.4513,4.4615,4.4615,4.4615,4.4615,4.4615,4.4615,4.4615,4.4615,4.4615,4.4615,4.4615,4.4615,4.4615,4.4615,4.4615,4.4615,4.4615,4.4615,4.4615,4.4615,4.4615,4.4615,4.4615,2.7198,2.6996,2.6894,2.5997,2.6336,2.6759,2.6336,2.6471,2.6758,2.6923,0.0,0.0,0.0,0.0,0.0,0.0,2.9828,3.031,3.0222,0.0,3.1685,3.2484,0.0,0.0,3.3906,3.4306,3.4842,3.5655,3.6739,3.7467,3.766,3.8595,3.9138,3.92,3.9662,4.0451,4.1589,4.2064,4.2705,4.3515,4.3515,4.3515,4.3515,4.3515,4.3515,4.3515,4.3515,4.3515,4.3515,4.3515,4.3515,4.3515,4.3515,4.3515,4.3515,4.3515,4.3515,4.3515,4.3515,4.3515,4.3515,4.3515,4.3515,4.3515,4.3515,4.295,4.2377,4.2629,4.2342,4.2016,4.2267,4.2315,4.2176,4.1581,4.1153,4.0752,4.0238,4.0096,4.0096,4.0096,4.0468,4.0967,4.1711,4.183,4.2185,4.3223,4.3809,4.4215,4.4564,4.4615,4.4615,4.4615,4.4615,4.4615,4.4615,4.4615,4.4615,4.4615,4.4615,4.4615,4.4615,4.4615,4.4615,4.4615,4.4615,4.4615,4.4615,4.4615,4.4615,4.4615,4.4615,4.4615,2.8483,2.8552,2.8688,2.7334,2.7401,2.7604,2.686,2.6691,2.6691,2.6691,2.6939,0.0,0.0,0.0,0.0,0.0,0.0,2.8679,0.0,2.952,0.0,0.0,0.0,0.0,0.0,3.3753,3.4134,3.4633,3.5736,3.661,3.714,3.8118,3.8668,3.8689,3.9276,3.9955,4.0763,4.1585,4.2375,4.3166,4.3386,4.3515,4.3515,4.3515,4.3515,4.3515,4.3515,4.3515,4.3515,4.3515,4.3515,4.3515,4.3515,4.3515,4.3515,4.3515,4.3515,4.3515,4.3515,4.3515,4.3515,4.3515,4.3515,4.3515,4.3515,4.3133,4.2723,4.2882,4.281,4.2733,4.2878,4.2932,4.2778,4.2194,4.1585,4.1029,4.0648,4.0441,4.0387,4.0626,4.1078,4.1682,4.2465,4.2591,4.2861,4.3623,4.4215,4.4615,4.4615,4.4615,4.4615,4.4615,4.4615,4.4615,4.4615,4.4615,4.4615,4.4615,4.4615,4.4615,4.4615,4.4615,4.4615,4.4615,4.4615,4.4615,4.4615,4.4615,4.4615,4.4615,4.4615,4.4615,2.9179,2.8976,2.8807,2.7959,2.779,2.7604,2.686,2.6691,2.6691,2.6691,2.6708,2.6619,2.629,0.0,0.0,0.0,0.0,0.0,0.0,0.0,0.0,0.0,0.0,0.0,0.0,3.3586,3.4093,0.0,3.4889,3.5781,3.6313,3.7121,3.7911,3.8689,3.8726,3.9129,3.9918,4.0744,4.155,4.2353,4.3128,4.3515,4.3515,4.3515,4.3515,4.3515,4.3515,4.3515,4.3515,4.3515,4.3515,4.3515,4.3515,4.3515,4.3515,4.3515,4.3515,4.3515,4.3515,4.3515,4.3515,4.3515,4.3515,4.3515,4.3515,4.3133,4.2806,4.3336,4.3098,4.2823,4.3351,4.3461,4.3352,4.279,4.2215,4.177,4.1756,4.1291,4.1099,4.1871,4.2044,4.2349,4.324,4.3358,4.3639,4.4445,4.4581,4.4615,4.4615,4.4615,4.4615,4.4615,4.4615,4.4615,4.4615,4.4615,4.4615,4.4615,4.4615,4.4615,4.4615,4.4615,4.4615,4.4615,4.4615,4.4615,4.4615,4.4615,4.4615,4.4615,4.4615,4.4615,3.0332,3.0716,3.0941,2.9385,2.9351,2.9454,2.8455,2.7807,2.7418,2.7418,2.7046,2.6674,2.655,0.0,0.0,0.0,0.0,0.0,0.0,0.0,0.0,0.0,0.0,0.0,0.0,0.0,0.0,0.0,3.4649,0.0,3.544,3.6743,3.7621,3.7915,3.8414,3.9093,3.9882,4.0703,4.1513,4.231,4.3113,4.3515,4.3515,4.3515,4.3515,4.3515,4.3515,4.3515,4.3515,4.3515,4.3515,4.3515,4.3515,4.3515,4.3515,4.3515,4.3515,4.3515,4.3515,4.3515,4.3515,4.3515,4.3515,4.3515,4.3515,4.3369,4.326,4.3442,4.3369,4.326,4.3442,4.3515,4.3356,4.2829,4.2536,4.2284,4.1892,4.207,4.2361,4.2642,4.3208,4.3729,4.4019,4.4136,4.4282,4.4564,4.4615,4.4615,4.4615,4.4615,4.4615,4.4615,4.4615,4.4615,4.4615,4.4615,4.4615,4.4615,4.4615,4.4615,4.4615,4.4615,4.4615,4.4615,4.4615,4.4615,4.4615,4.4615,4.4615,4.4615,4.4615,4.4615,3.1463,3.1912,3.215,3.0619,3.0605,3.0645,2.9471,2.8801,2.8407,2.8266,2.7621,2.7046,2.6941,2.6587,0.0,0.0,0.0,0.0,0.0,2.5865,0.0,0.0,0.0,0.0,0.0,0.0,0.0,0.0,0.0,0.0,0.0,3.6321,3.7199,3.7492,3.8285,3.8989,3.9601,4.0323,4.1146,4.2054,4.2749,4.3223,4.3515,4.3515,4.3515,4.3515,4.3515,4.3515,4.3515,4.3515,4.3515,4.3515,4.3515,4.3515,4.3515,4.3515,4.3515,4.3515,4.3515,4.3515,4.3515,4.3515,4.3515,4.3515,4.3515,4.3515,4.3552,4.3848,4.3719,4.357,4.3843,4.3716,4.341,4.3085,4.2841,4.2727,4.2803,4.3089,4.3465,4.4036,4.463,4.4986,4.4815,4.4852,4.4841,4.4626,4.4786,4.4841,4.4626,4.4786,4.4841,4.4626,4.4615,4.4615,4.4615,4.4615,4.4615,4.4615,4.4615,4.4615,4.4615,4.4615,4.4615,4.4615,4.4615,4.4615,4.4615,4.4615,4.4615,4.4615,4.4615,4.4615]}]]